GFSNW_850_spd_003.txt.gz
Wind_Speed
3 5 9 10 7 8 7 4 3 5 11 4 3 3 5 4 2 6 5 5 4 3 3 4 3 3 1 5 3 2 2 2 1 2 1 1 1 3 3 2 2 1 1 8
1 3 6 9 7 8 6 4 5 5 9 3 1 1 3 5 2 5 3 3 3 3 3 4 3 3 1 7 3 1 1 2 2 2 2 2 1 2 4 4 2 7 3 6
1 1 3 7 8 6 6 4 2 4 4 6 7 5 2 4 6 5 7 4 4 4 4 5 3 2 1 3 3 4 1 2 4 4 3 2 5 4 5 5 4 6 13 19
3 1 1 3 5 5 4 2 2 3 1 3 6 4 3 4 3 4 4 4 3 5 3 2 2 1 2 2 2 2 3 3 3 4 8 6 10 12 11 12 12 7 13 14
5 3 1 1 2 3 3 3 5 6 5 5 5 5 1 4 3 2 2 6 3 4 5 5 4 3 2 3 1 2 2 2 1 3 5 5 9 12 12 12 12 12 17 19
7 5 4 2 2 2 2 4 8 5 3 2 4 2 5 5 7 5 4 14 5 3 6 6 3 6 3 2 3 2 0 3 1 3 5 9 6 3 4 3 5 4 5 7
9 7 5 4 3 3 3 4 7 4 1 2 3 4 3 5 3 7 7 7 5 4 6 5 1 2 4 2 4 2 4 3 1 2 5 1 2 2 6 7 12 7 7 5
10 8 7 5 5 3 3 6 3 4 2 2 4 9 8 11 8 5 6 3 5 9 4 3 5 4 5 3 8 4 3 4 2 2 3 7 10 6 3 5 6 2 2 8
11 10 9 7 5 3 4 6 5 3 11 6 8 7 9 4 3 3 4 6 9 5 5 3 2 1 3 3 2 5 4 3 2 2 3 5 5 1 3 4 6 4 11 23
12 11 10 9 7 7 6 5 6 3 5 9 12 4 7 6 6 3 3 5 4 4 2 2 2 3 0 2 1 2 1 1 5 5 5 8 8 5 3 1 3 9 21 23
13 12 11 10 9 8 8 7 6 5 4 11 9 8 8 8 7 4 9 5 0 4 3 3 3 2 3 2 2 3 3 3 4 2 4 7 3 3 2 5 18 14 16 12
13 13 12 11 10 9 9 8 7 7 4 4 9 8 6 6 6 8 14 3 5 7 4 2 3 3 2 3 3 0 4 6 2 7 6 6 3 5 11 7 8 10 8 11
14 14 13 12 10 10 10 9 8 7 6 4 7 7 8 7 7 7 6 5 6 6 5 9 2 4 4 4 6 2 3 5 4 1 6 13 13 13 8 18 14 10 9 10
16 15 14 13 11 10 9 9 9 9 5 4 4 8 7 8 9 8 8 7 7 6 6 4 3 2 10 4 4 6 9 3 4 5 19 12 9 12 19 7 6 6 7 9
18 17 16 15 13 11 10 9 10 11 8 4 4 5 8 9 8 8 10 10 10 9 6 4 3 5 4 3 0 3 9 7 3 6 9 5 6 10 7 3 4 5 8 13
21 19 17 16 15 12 9 5 11 11 10 3 1 4 9 12 15 14 14 15 14 11 8 5 6 8 5 2 3 9 14 15 16 8 7 8 7 1 1 1 4 6 8 15
24 21 18 16 15 14 10 3 3 13 15 4 2 3 4 12 13 12 13 15 11 9 6 8 7 10 8 2 5 4 8 12 1 6 5 4 2 2 1 4 7 12 17 23
27 23 18 16 14 13 15 15 5 9 9 6 3 3 1 7 5 6 6 6 7 6 4 3 4 4 8 4 5 0 4 4 2 1 2 6 8 2 6 11 18 23 24 24
26 23 20 18 20 15 19 18 19 14 9 5 6 5 3 6 5 3 3 4 2 2 2 2 3 2 4 2 4 6 3 4 13 12 8 4 5 11 15 19 21 22 26 27
28 24 16 9 12 16 16 13 11 12 8 8 4 6 2 6 6 2 3 1 2 2 1 1 2 2 4 2 1 8 13 14 9 3 1 8 12 15 19 22 24 25 28 32
26 9 5 15 22 11 7 5 2 3 2 4 4 5 3 7 3 3 2 2 1 2 0 1 1 2 2 7 14 15 9 7 4 3 6 11 16 20 24 27 29 31 33 34
5 9 17 8 5 4 4 3 3 2 3 5 5 4 4 4 3 3 2 2 1 2 1 2 2 2 6 11 9 6 7 4 5 10 15 17 19 21 24 27 28 29 30 31
12 5 5 3 1 3 5 5 1 3 7 6 6 4 4 3 3 5 2 2 2 0 1 3 2 7 9 9 8 7 2 6 13 16 17 18 19 21 22 25 26 29 32 32
2 3 3 2 1 2 3 3 4 4 6 13 12 6 2 2 3 2 3 1 1 1 2 5 2 11 9 6 5 1 8 15 17 19 18 18 22 24 25 26 29 32 32 33
4 3 3 1 2 4 6 11 9 8 13 17 9 6 3 2 3 2 3 2 3 4 4 2 12 9 6 4 3 12 18 20 20 19 19 22 25 26 28 29 31 30 30 30
3 4 4 6 3 3 5 8 10 9 14 10 5 3 2 1 3 3 5 5 5 3 4 7 6 4 5 5 14 19 22 22 21 19 21 25 24 25 29 32 31 31 29 29
3 3 6 5 3 7 7 6 8 11 11 2 4 3 3 5 2 3 4 4 3 5 5 3 6 7 9 18 23 25 23 21 19 22 25 24 23 26 30 32 31 30 32 29

GFSNW_850_spd_006.txt.gz
Wind_Speed
6 6 8 10 13 12 12 6 4 10 13 4 2 4 4 3 4 3 4 5 5 4 3 4 3 3 2 2 3 2 4 1 2 1 2 3 2 1 1 2 2 2 4 6
5 6 7 9 13 12 9 5 5 7 12 3 3 4 4 4 3 3 3 3 2 3 4 4 4 3 3 3 1 2 1 0 2 3 4 3 5 3 2 1 1 8 4 4
5 5 6 8 11 11 9 5 3 3 2 3 9 10 5 5 5 5 7 5 7 7 5 4 6 5 3 1 1 1 1 2 4 5 6 4 6 7 7 8 5 8 13 18
5 6 5 5 8 9 8 3 2 3 4 4 10 6 6 11 5 3 3 4 3 5 4 4 4 3 4 2 2 1 2 3 4 8 11 13 12 14 12 15 15 11 15 15
5 5 5 5 5 6 4 4 4 4 4 7 11 1 7 9 5 2 4 7 7 5 5 2 5 3 3 1 3 1 2 1 4 4 8 10 12 15 15 13 13 13 15 16
6 5 5 5 5 5 3 5 8 5 1 3 3 3 7 9 9 5 5 15 10 8 8 5 6 5 5 3 1 2 1 1 1 4 9 13 6 4 4 3 4 8 10 8
8 5 5 5 5 5 5 6 7 3 3 2 3 8 6 12 3 8 9 6 6 4 8 8 7 9 7 4 4 1 3 2 1 3 5 3 3 5 9 13 13 8 9 3
10 8 6 5 5 6 5 8 4 3 3 4 5 10 11 11 9 10 9 4 7 10 4 2 3 1 2 4 6 3 2 3 2 2 4 15 12 3 2 2 11 4 3 9
11 9 8 6 6 6 7 7 6 4 12 5 7 8 12 6 5 5 4 7 12 5 3 2 2 1 1 3 4 4 5 4 2 2 4 4 3 4 5 4 8 4 11 20
12 10 9 7 7 7 8 8 7 5 6 8 11 5 8 7 6 5 5 6 3 3 2 2 2 2 1 2 2 4 2 2 4 6 6 8 6 5 1 3 3 14 12 9
14 12 10 9 8 8 9 8 8 6 4 12 9 9 11 8 8 5 9 6 2 3 3 3 3 2 3 3 2 3 3 2 4 3 4 6 2 2 2 5 12 7 7 6
14 13 11 10 9 8 8 8 7 8 5 8 11 9 10 10 10 11 13 1 6 7 4 3 3 3 1 1 3 4 4 5 4 7 6 7 13 11 7 7 7 7 2 6
14 13 12 10 10 9 9 9 9 8 6 6 9 9 11 11 11 11 7 6 8 7 6 7 2 3 5 4 6 4 5 7 4 6 11 14 14 10 5 6 4 3 6 3
14 14 13 12 10 10 9 10 10 10 6 5 6 10 13 13 11 11 10 8 13 10 8 4 3 3 9 4 6 8 10 8 11 12 18 16 7 2 5 7 5 6 4 7
15 14 13 13 12 10 9 10 12 13 7 4 5 11 12 13 13 12 11 11 14 11 6 4 4 4 4 2 1 7 15 12 5 4 5 9 4 7 9 9 5 4 6 8
17 15 14 14 13 11 9 5 9 11 10 4 2 5 10 14 14 13 13 12 13 9 6 5 5 6 7 4 3 9 14 12 15 13 7 5 6 3 3 3 4 6 9 13
18 17 16 15 14 14 9 4 4 15 12 4 2 3 5 14 13 12 11 14 7 7 5 6 7 7 9 2 5 9 10 6 6 9 7 3 5 3 2 4 6 11 16 19
23 19 17 13 13 13 15 9 4 7 8 5 3 2 2 9 6 6 9 7 7 6 4 3 3 3 5 4 8 2 2 2 1 2 2 4 7 2 4 8 13 17 20 22
26 21 18 16 18 13 15 15 12 9 8 4 5 6 4 10 5 5 5 5 3 4 4 3 5 3 5 5 6 2 4 6 6 9 8 4 1 5 9 13 16 19 21 22
31 32 17 8 10 13 14 11 7 8 8 6 6 5 3 6 6 3 5 3 2 3 2 2 2 2 4 5 5 5 8 12 12 8 4 2 5 10 13 14 16 17 21 27
29 10 11 11 24 16 9 6 6 5 1 5 5 6 4 4 2 3 3 2 2 2 2 2 2 3 7 8 12 13 12 10 6 4 0 5 9 12 14 17 19 24 25 28
12 14 21 17 6 3 4 4 4 3 4 7 7 5 5 6 4 3 3 1 2 2 2 2 3 3 10 14 15 11 10 8 3 3 7 12 15 15 19 22 24 25 27 30
17 5 5 4 2 3 5 6 3 4 7 7 7 4 4 4 3 5 2 4 2 3 3 3 3 9 14 15 12 11 9 4 5 10 14 16 17 17 19 23 23 25 29 31
4 2 4 1 3 2 2 2 3 4 5 13 14 6 2 2 3 2 2 2 2 3 4 5 4 14 14 11 11 9 4 6 13 16 17 18 18 20 23 23 23 26 29 30
3 2 2 2 4 5 6 8 8 7 13 13 9 6 2 2 3 1 3 4 4 4 3 0 9 13 11 11 10 5 9 15 19 20 22 20 19 23 26 24 24 27 29 28
2 4 4 5 4 3 6 9 12 13 16 10 4 3 3 2 3 4 5 3 5 1 1 4 9 10 8 8 10 12 18 21 24 23 20 20 23 24 25 25 26 28 29 29
2 3 9 4 4 7 8 12 10 16 15 3 3 5 2 5 2 3 4 4 0 3 6 6 3 4 8 11 16 23 25 24 22 20 20 23 24 24 24 27 28 30 29 29

GFSNW_850_spd_009.txt.gz
Wind_Speed
5 5 7 12 15 18 17 10 5 11 13 9 6 5 6 4 8 4 3 2 4 5 4 3 3 4 5 3 5 4 6 2 2 4 3 3 4 4 4 2 2 3 3 7
6 6 7 13 16 18 10 5 6 11 14 4 3 5 6 3 7 3 4 3 1 3 5 3 6 5 5 4 5 7 6 1 3 5 6 4 4 1 2 1 2 9 6 5
6 6 7 12 15 16 8 6 3 6 9 4 9 9 9 7 3 4 4 7 7 8 6 4 7 7 4 2 4 4 2 1 3 5 9 8 8 9 9 10 7 10 11 16
7 6 6 9 12 13 9 2 2 5 7 7 10 10 10 11 6 3 7 5 4 7 4 6 4 6 6 3 2 1 3 2 5 10 12 11 12 13 13 15 14 13 15 16
7 6 5 7 9 11 5 5 4 3 3 8 10 5 10 13 5 9 7 7 8 5 6 2 6 4 3 2 4 1 2 1 4 4 7 10 14 16 18 16 10 13 13 15
8 7 6 6 6 8 3 4 9 7 4 9 8 7 9 10 11 2 5 12 8 9 9 10 9 8 5 4 2 2 2 1 4 4 11 13 6 3 1 4 7 7 10 10
8 7 6 6 6 6 5 7 6 5 4 8 8 8 10 11 7 8 11 9 9 6 10 11 10 10 6 3 3 1 4 1 2 3 7 3 5 9 13 10 9 9 8 7
9 8 7 6 7 7 6 10 5 4 3 7 6 11 14 11 12 15 12 6 8 11 3 2 2 1 3 1 4 3 1 3 2 2 5 14 10 5 6 8 13 10 6 10
11 9 8 7 7 7 7 8 6 3 13 5 11 12 16 11 8 7 5 7 7 4 3 2 2 2 0 5 6 5 4 2 3 3 3 4 2 7 5 7 9 7 7 13
12 10 9 8 8 8 8 7 7 4 6 6 11 9 12 8 11 6 8 8 4 3 2 1 3 3 2 3 3 4 2 2 5 6 5 8 8 3 5 4 3 8 12 8
12 11 10 9 9 9 9 8 8 6 4 7 7 7 9 8 11 5 11 7 3 3 2 3 3 1 4 3 2 4 6 5 4 3 3 6 4 4 3 10 15 7 7 7
13 12 10 10 10 10 9 4 7 7 6 6 11 11 12 10 7 7 14 1 7 9 3 3 3 2 0 1 3 4 4 6 3 8 6 12 9 12 14 7 5 9 6 8
13 12 11 10 11 11 12 9 9 7 5 4 6 5 11 11 12 11 6 5 6 8 4 7 3 3 5 5 6 7 6 13 7 8 7 17 13 17 3 3 2 4 10 11
13 12 11 11 10 10 11 11 13 9 5 5 5 9 11 13 12 12 9 9 12 10 6 4 3 3 11 5 7 7 10 9 10 14 20 20 15 1 1 2 6 4 6 9
13 12 11 10 10 10 10 11 12 13 5 4 3 8 12 15 15 11 10 9 10 6 4 3 3 4 3 2 2 8 15 14 10 10 11 8 8 3 8 7 4 4 7 10
14 12 11 11 11 10 7 4 10 13 9 3 3 4 6 11 12 9 9 10 8 9 6 5 5 8 8 5 4 8 10 12 16 15 4 6 7 9 5 3 2 5 8 13
16 13 11 12 13 13 8 4 6 16 11 4 2 3 3 11 8 7 9 8 7 8 5 7 6 9 9 3 7 10 13 12 6 3 5 3 5 4 4 2 4 8 13 17
18 16 14 12 12 13 12 6 5 13 8 5 2 2 2 9 6 5 7 5 5 6 5 3 4 5 2 4 11 15 10 7 4 5 5 0 5 4 3 4 8 13 17 20
23 17 15 13 15 12 16 13 6 8 6 3 4 6 4 8 4 5 5 4 2 2 3 4 4 3 6 9 12 11 10 9 9 5 7 8 5 3 5 8 12 16 19 19
26 24 15 9 10 10 13 10 5 6 7 6 6 7 4 8 6 4 5 3 3 3 2 3 2 3 12 8 7 8 10 10 9 11 9 5 3 5 9 11 14 16 18 19
23 14 7 11 26 19 12 7 7 6 3 7 8 11 5 6 4 4 4 2 2 3 3 3 3 3 12 14 10 9 11 12 10 6 5 2 4 8 11 13 14 15 17 19
11 9 13 18 5 5 4 2 4 4 5 6 7 5 6 6 5 5 4 3 2 3 7 2 3 3 8 12 14 13 13 11 8 4 2 5 8 10 12 14 16 17 22 25
17 4 4 2 2 2 6 9 3 3 7 9 7 4 5 5 4 4 3 5 2 0 2 3 4 8 10 13 15 13 12 10 7 3 6 9 13 16 18 20 20 23 24 24
2 3 3 2 2 2 2 3 3 4 7 15 15 6 3 3 3 2 3 2 2 3 3 4 1 7 11 12 11 12 10 7 6 10 14 19 20 21 19 19 22 24 24 25
2 2 2 2 2 5 6 6 6 8 14 11 8 6 3 3 2 1 3 3 3 4 2 3 1 8 11 10 9 10 10 8 12 14 18 23 22 21 22 23 24 23 24 27
3 3 3 3 4 3 4 6 8 7 10 8 6 3 2 2 1 3 3 2 4 1 2 2 7 8 7 7 8 10 10 14 21 23 23 22 21 20 24 24 23 24 25 28
3 2 4 5 4 4 3 4 5 8 7 1 2 2 2 3 2 2 2 3 2 2 5 6 6 5 2 6 11 15 19 24 21 20 19 20 21 23 24 24 21 19 26 28

GFSNW_850_spd_012.txt.gz
Wind_Speed
4 2 7 12 15 22 20 12 6 11 13 8 11 8 2 1 8 2 2 5 2 3 4 2 4 7 8 4 5 4 4 2 1 8 6 3 2 4 3 0 2 1 1 6
5 3 8 13 18 24 17 11 6 15 17 5 4 4 5 4 7 8 5 2 1 2 5 3 6 8 5 5 7 4 5 1 3 8 5 5 1 3 2 4 2 4 3 4
6 4 7 15 19 22 13 7 3 6 10 10 12 7 7 5 2 4 1 5 4 5 5 3 6 9 4 5 7 2 3 1 1 2 6 8 8 11 10 10 4 6 7 14
6 5 6 13 18 18 10 6 6 11 6 8 6 11 9 10 6 5 7 5 6 6 3 6 5 11 8 4 2 1 3 1 5 7 9 8 10 12 12 13 12 9 10 15
7 5 6 8 14 16 13 5 2 6 4 14 9 5 6 11 8 9 9 5 7 7 6 3 6 5 4 3 4 2 4 2 3 3 5 11 14 15 14 14 14 11 11 14
7 6 5 6 9 13 6 4 2 5 2 5 6 6 9 10 10 2 6 7 8 10 12 14 13 12 10 7 4 3 2 1 2 2 11 10 2 3 7 8 8 9 6 9
7 6 5 5 6 9 4 6 4 3 1 5 9 9 9 8 10 6 8 8 10 10 15 14 14 13 9 6 5 4 4 2 2 2 5 3 4 13 11 9 7 8 9 8
7 6 5 5 5 5 5 6 4 3 2 9 7 9 9 12 7 11 15 10 12 14 5 3 2 2 4 2 4 3 3 4 2 1 3 9 9 4 6 5 11 10 7 11
8 6 5 5 6 5 4 6 7 3 8 3 8 10 14 7 8 7 6 7 8 5 3 2 3 3 2 6 6 8 4 5 1 2 2 3 2 7 5 9 7 9 9 11
10 8 6 5 6 6 6 5 6 5 4 4 3 8 10 12 10 5 9 7 4 1 2 2 3 3 2 5 5 4 3 2 4 4 4 6 9 4 5 3 2 8 5 10
11 9 8 7 6 6 7 6 5 6 3 3 4 6 9 6 13 4 12 5 2 3 3 3 3 1 4 1 4 7 7 6 4 3 3 6 1 2 2 7 14 4 6 4
12 11 9 8 8 7 6 1 5 5 5 6 11 11 11 9 5 10 16 3 8 8 3 2 1 2 2 3 3 7 4 6 4 9 5 10 9 5 7 10 9 4 8 8
13 12 11 9 9 9 10 6 8 5 5 4 5 4 10 11 11 12 7 6 6 9 4 7 3 3 4 4 4 3 4 10 3 3 9 12 12 10 2 4 3 2 3 4
13 12 11 10 9 9 9 6 9 7 4 4 3 6 7 11 10 12 9 7 11 10 8 5 3 3 12 5 6 4 6 5 6 8 14 15 3 8 11 4 3 3 5 4
12 10 10 10 9 9 9 7 8 10 3 4 1 5 10 10 10 7 8 10 11 8 4 3 4 4 2 4 1 3 9 9 7 8 11 4 2 8 1 2 3 4 3 5
12 10 10 10 9 8 6 2 6 10 7 2 2 2 1 7 9 7 7 9 8 9 6 5 5 7 7 3 3 8 14 11 9 11 3 4 8 2 4 3 3 2 4 8
12 10 9 10 10 11 6 4 4 11 9 3 2 2 2 9 7 7 6 9 6 6 4 6 4 4 9 4 5 9 11 11 10 0 7 6 1 5 7 4 3 3 6 10
13 11 9 8 9 11 8 5 3 10 5 5 2 2 2 8 4 3 4 4 4 4 4 4 3 5 3 4 10 15 17 15 6 6 3 5 8 7 7 4 2 6 9 12
17 13 11 8 7 6 10 8 3 9 6 3 4 5 4 8 4 4 3 4 1 2 2 4 3 3 6 7 9 11 12 10 10 9 6 8 10 7 3 2 5 8 10 13
20 17 8 6 7 11 9 6 3 4 6 5 6 7 3 7 5 3 5 2 1 2 2 3 2 3 15 14 11 8 10 12 11 11 12 10 7 3 2 4 7 9 11 17
24 12 7 9 20 13 10 6 5 5 3 7 9 14 6 7 4 3 5 3 2 3 2 4 3 3 8 17 14 7 9 11 11 10 9 6 4 1 4 7 10 16 15 17
10 8 11 11 4 2 4 5 3 4 4 5 7 5 7 7 5 4 5 3 2 4 9 2 3 3 5 11 9 8 10 12 11 9 7 3 1 4 9 13 17 17 18 21
13 3 3 1 1 2 2 4 2 2 4 5 5 4 5 5 4 5 2 6 5 1 3 3 2 8 7 9 10 11 11 13 11 6 2 2 6 12 17 19 19 18 20 23
3 2 3 2 2 2 1 2 3 3 2 11 14 6 4 3 3 3 3 1 2 3 3 4 2 7 6 9 11 11 9 9 6 3 7 12 19 23 22 20 19 20 24 22
3 2 2 2 2 3 3 2 4 6 9 8 7 6 4 2 3 0 3 4 3 2 2 3 10 7 11 12 10 9 7 5 6 8 15 22 23 23 23 20 20 23 23 23
2 2 3 3 3 3 4 6 7 7 9 6 5 2 1 2 2 2 1 1 0 2 3 5 7 8 6 5 5 5 5 8 12 17 24 22 21 21 22 23 24 24 21 19
2 2 4 4 5 3 3 4 4 3 3 2 2 2 4 1 0 1 1 1 2 5 6 7 8 6 4 1 3 9 13 15 19 21 22 22 23 23 24 25 21 15 16 21

GFSNW_850_spd_015.txt.gz
Wind_Speed
5 4 9 13 16 21 21 11 1 11 12 4 4 2 3 2 3 4 3 4 5 4 5 6 6 4 4 9 9 3 3 4 3 3 2 2 1 3 4 4 3 1 4 5
5 4 9 14 18 25 23 6 4 12 15 3 3 6 3 1 6 4 1 5 6 5 4 5 9 5 7 10 5 1 3 2 3 4 4 5 1 3 5 6 3 4 4 5
6 4 8 15 21 28 19 3 2 4 10 8 5 5 3 2 6 2 5 6 3 4 4 4 4 4 3 6 4 3 3 3 5 5 3 0 2 5 4 6 3 4 6 6
7 5 8 15 22 26 12 4 4 10 3 5 5 6 8 6 2 1 3 1 4 5 3 5 5 5 4 2 1 2 3 3 4 4 5 4 4 6 7 4 5 5 7 6
8 6 8 12 18 19 14 4 3 14 11 18 4 5 5 8 8 6 4 4 5 8 4 1 6 8 5 4 5 3 4 1 2 2 7 7 4 7 7 7 6 4 4 4
8 7 7 9 15 16 9 4 2 3 3 5 3 3 1 2 9 3 4 5 12 14 7 21 18 19 16 10 5 2 3 4 3 2 5 5 4 3 5 3 3 2 2 1
8 8 7 8 11 12 5 4 2 4 2 2 4 6 6 5 7 6 13 18 10 12 19 19 17 19 17 14 10 7 4 3 3 2 4 2 4 3 4 5 4 6 10 10
9 7 7 7 9 10 6 5 4 3 1 2 3 4 3 18 26 15 19 13 19 18 7 4 4 5 7 5 6 5 5 4 3 3 1 6 5 2 3 4 3 7 8 9
10 8 7 7 7 7 7 8 7 5 8 4 6 4 21 6 4 4 5 13 10 5 5 4 4 4 5 4 3 12 7 6 4 2 4 6 5 4 6 2 3 4 9 8
10 9 7 7 7 7 6 7 7 5 4 6 5 2 7 10 8 4 6 4 3 3 3 2 3 3 2 5 7 3 3 3 4 4 3 7 8 5 5 3 6 7 7 5
11 9 8 7 7 6 7 8 8 6 4 3 4 4 8 16 15 5 10 5 1 4 3 3 3 2 4 2 6 7 7 6 4 3 3 7 11 6 7 6 5 11 8 2
12 10 8 8 7 7 6 8 7 7 4 3 5 5 7 12 12 14 21 6 7 8 4 1 3 1 0 2 3 4 2 7 6 9 6 9 14 13 14 8 5 10 2 0
11 10 9 8 8 8 8 7 7 7 5 4 5 5 5 6 10 16 9 7 8 9 6 6 3 3 4 4 5 1 3 13 3 4 7 11 10 10 10 11 11 8 2 2
12 11 9 9 8 8 9 7 7 7 5 5 2 4 8 8 12 14 12 11 10 17 10 5 3 3 13 4 4 4 6 2 1 3 3 1 6 10 15 14 8 4 4 4
12 11 10 10 9 8 7 5 7 7 3 4 2 5 7 7 9 10 10 10 15 11 5 3 3 5 2 0 2 2 6 5 3 5 4 6 11 15 11 8 9 7 7 5
12 11 10 9 9 9 7 3 6 8 7 4 1 2 0 4 8 7 7 9 7 6 5 4 4 4 6 3 3 5 17 20 18 4 7 8 17 13 7 6 10 9 8 3
10 9 9 9 9 11 7 4 4 10 9 4 2 1 3 7 9 9 7 9 8 5 4 6 4 4 7 3 4 9 13 9 7 10 13 13 12 6 10 10 9 6 4 1
10 8 7 7 8 10 8 4 2 10 7 4 3 2 1 8 3 4 3 3 4 1 2 5 3 3 2 3 11 19 23 22 16 16 11 6 7 13 12 8 8 5 0 5
11 8 6 3 4 5 7 6 2 9 5 5 4 5 4 8 4 4 4 3 1 1 1 4 2 2 5 6 9 13 12 16 18 13 8 9 12 13 11 9 4 1 5 10
14 11 5 4 7 4 7 3 2 5 6 6 5 8 2 7 4 2 4 2 2 1 3 3 1 3 13 15 14 5 7 15 18 18 15 15 13 11 7 3 3 7 11 16
18 9 7 9 12 8 5 4 3 3 2 6 8 16 5 8 4 3 5 3 2 2 3 4 2 3 7 10 14 10 11 12 8 10 15 17 12 7 3 4 8 12 16 17
11 8 11 12 6 4 3 3 0 2 3 2 3 3 6 6 5 5 6 3 2 5 9 2 3 3 12 15 14 11 12 16 16 15 15 11 6 3 4 9 14 15 16 16
13 4 3 2 2 2 4 5 1 1 2 1 3 3 4 5 4 4 3 5 5 7 3 3 3 5 11 14 13 15 17 19 17 13 8 5 0 6 12 14 15 15 16 16
3 3 3 1 2 2 1 1 1 1 3 4 6 5 3 3 2 3 4 1 2 3 3 3 2 7 10 13 11 11 14 11 6 4 1 4 12 16 15 15 16 16 17 18
4 3 2 2 3 3 1 2 3 3 4 6 4 4 3 2 2 1 3 1 1 1 1 2 5 11 12 12 12 12 10 7 4 5 7 13 15 15 17 16 17 18 21 21
3 4 3 5 4 2 3 7 7 6 6 5 4 2 1 2 1 1 0 2 1 2 2 10 9 7 8 8 5 4 1 3 7 10 14 16 17 18 20 21 20 18 17 16
3 3 5 4 5 4 4 4 4 4 3 2 2 3 1 0 1 1 2 2 1 4 6 10 4 6 7 5 2 4 7 9 10 13 16 17 16 17 16 18 19 18 17 19

GFSNW_850_spd_018.txt.gz
Wind_Speed
13 14 18 23 24 24 22 14 2 11 11 3 1 2 4 1 4 4 4 3 4 4 4 5 3 3 2 8 3 3 2 5 3 1 3 1 2 3 4 4 2 2 4 4
13 14 18 23 25 28 25 14 5 10 14 3 2 5 3 2 2 1 1 2 4 3 4 6 3 4 4 10 4 2 3 2 3 6 6 5 4 2 5 6 3 4 5 5
13 14 18 23 27 29 24 8 3 4 7 2 6 2 1 3 5 2 4 3 6 5 4 5 4 3 3 5 4 3 2 3 5 6 4 3 1 2 4 5 3 3 6 5
14 13 17 22 28 30 21 5 4 9 4 3 3 3 5 3 2 1 4 4 3 5 3 3 4 3 2 4 2 3 3 3 1 3 4 2 0 2 2 5 4 5 6 7
15 13 15 19 26 30 16 4 3 9 9 14 5 5 6 8 3 4 0 3 3 5 4 5 7 7 3 4 2 2 4 0 2 1 4 6 3 4 4 4 3 3 4 4
15 13 14 18 22 26 10 5 4 8 1 6 4 4 6 8 9 0 3 13 8 10 4 17 17 12 11 9 6 2 3 4 3 3 4 5 5 5 3 1 3 3 5 6
15 14 14 15 21 23 10 5 3 4 1 3 6 3 3 5 3 7 8 14 7 12 22 20 21 24 21 19 12 5 4 4 3 2 3 1 4 3 4 7 3 8 9 6
15 14 15 14 18 19 12 7 3 4 1 1 1 3 12 20 20 8 9 4 11 22 7 5 5 5 6 4 6 7 4 5 3 3 3 5 2 5 5 5 5 6 9 10
15 14 15 14 15 15 10 9 7 4 8 3 1 7 19 6 4 5 5 19 11 6 6 4 4 4 5 3 2 8 6 6 4 2 4 6 5 3 9 8 4 15 14 14
14 13 13 13 13 13 11 10 10 6 5 4 3 4 8 12 7 4 3 4 4 4 2 3 3 4 4 5 6 4 3 3 4 2 2 8 7 6 7 5 7 19 18 16
14 13 13 12 12 12 12 12 11 8 5 5 4 7 10 12 12 5 9 5 2 4 4 3 4 3 5 3 5 6 7 6 4 3 2 8 14 6 7 6 14 18 15 14
13 12 12 12 12 12 12 13 11 8 5 6 9 10 10 11 11 14 18 6 6 8 4 2 3 1 1 2 3 3 2 7 6 10 7 6 23 12 18 12 14 19 19 13
13 12 11 10 11 11 10 12 11 8 6 7 6 7 8 9 10 12 9 6 9 9 5 8 3 2 4 4 5 4 4 9 2 3 6 16 14 19 13 17 14 17 14 11
13 12 11 10 10 10 10 10 10 7 6 4 3 4 7 8 10 12 11 11 16 13 10 5 3 3 9 3 3 4 6 7 5 4 5 2 6 13 15 14 13 14 8 4
12 12 11 10 10 9 9 9 9 8 3 4 4 4 2 5 7 9 5 9 15 14 6 3 3 4 3 1 2 3 7 7 4 6 8 9 10 15 17 17 15 10 11 13
12 11 10 10 10 9 10 4 6 8 7 3 1 2 2 4 7 7 7 9 10 7 5 4 5 4 6 4 4 10 20 22 22 10 17 16 13 18 17 14 12 13 16 13
11 10 10 10 10 11 5 5 5 11 9 4 3 2 3 6 10 9 8 10 5 5 5 6 5 5 6 2 4 10 16 17 18 17 13 10 21 14 15 13 14 17 13 10
11 10 9 9 10 11 8 7 7 11 7 4 3 2 1 6 4 4 5 5 6 4 4 5 5 3 3 3 13 19 23 26 23 17 17 11 16 13 17 15 18 16 11 5
12 11 9 8 8 6 7 6 5 9 3 6 3 5 4 7 4 3 3 3 1 1 2 4 4 2 5 7 10 11 12 12 17 20 13 15 19 19 15 18 15 11 5 3
11 10 4 4 7 7 8 4 3 4 3 4 3 6 1 5 3 2 2 1 1 1 3 2 1 3 16 20 17 13 8 11 15 21 19 17 16 18 18 13 7 2 3 10
14 6 3 6 11 4 3 2 2 1 2 3 2 11 4 5 3 3 3 2 0 2 4 3 2 3 6 13 9 6 11 11 17 15 19 21 21 17 13 4 0 6 10 14
12 10 14 11 3 2 3 2 0 1 2 2 2 3 3 4 3 4 5 3 2 5 6 1 2 2 3 10 13 15 18 20 21 20 22 21 13 7 3 3 8 12 13 12
15 4 4 2 2 2 3 6 1 2 2 1 2 1 3 4 5 3 2 5 4 8 2 2 1 7 9 14 16 17 15 15 19 17 8 8 7 2 7 10 10 10 11 11
4 3 3 1 2 2 1 1 1 1 1 1 1 2 2 1 2 2 3 1 1 2 1 2 2 7 10 14 16 15 16 13 9 8 5 0 5 10 9 10 11 12 13 13
4 3 2 1 3 3 3 2 3 2 3 5 5 4 2 2 2 1 2 2 1 0 2 2 5 6 7 9 9 10 9 7 6 3 3 8 12 12 13 12 14 14 14 15
3 4 4 6 4 2 4 5 3 4 5 5 3 2 2 2 1 0 1 3 3 2 1 1 1 1 2 4 2 3 3 3 3 6 10 11 13 14 14 13 12 13 14 16
3 3 10 6 7 5 4 4 4 3 1 1 2 3 3 1 1 1 2 2 2 4 5 7 6 4 5 5 2 5 7 8 9 9 11 12 11 12 12 13 14 16 17 19

GFSNW_850_spd_021.txt.gz
Wind_Speed
24 23 25 29 30 29 25 18 3 15 14 4 2 3 4 3 2 6 4 4 3 5 4 4 3 4 1 4 0 2 2 5 3 1 5 3 1 3 4 4 2 1 3 5
23 23 26 30 32 31 28 13 5 13 16 4 2 4 3 1 2 3 3 2 2 2 5 6 2 3 1 3 3 3 2 2 3 6 6 5 3 3 5 5 3 4 4 5
22 23 27 31 33 33 26 10 3 4 7 4 7 3 2 1 5 3 3 3 5 4 5 6 4 3 2 2 4 4 3 3 5 6 4 3 3 2 4 5 3 3 6 3
22 23 28 32 35 35 24 7 4 9 4 3 4 5 3 4 2 1 2 3 2 4 4 3 4 2 2 3 2 3 4 3 2 3 4 2 1 3 5 6 5 5 5 7
21 23 28 33 36 36 21 8 5 6 7 18 6 4 5 6 2 4 1 5 3 2 6 6 8 6 3 3 3 3 4 1 1 1 4 5 3 5 7 6 4 7 5 5
20 22 27 31 36 36 19 6 5 8 2 5 5 5 6 8 6 5 2 10 5 4 2 7 12 6 8 7 5 3 3 4 3 3 4 4 6 8 8 5 4 6 6 8
20 21 25 29 34 37 18 8 7 5 2 3 6 7 3 6 5 7 4 9 6 13 29 26 22 26 22 19 12 4 5 4 2 2 3 2 6 3 4 6 4 3 2 7
20 20 24 27 32 30 18 8 6 6 2 2 3 8 7 15 14 5 4 2 8 25 6 5 5 5 6 5 7 7 3 5 3 4 3 5 4 5 7 7 7 7 6 7
20 20 24 27 27 27 19 10 6 3 14 3 9 7 11 5 4 4 4 14 27 5 5 4 4 4 4 1 1 6 5 6 4 2 4 6 6 3 8 6 5 15 16 15
21 20 23 25 27 23 16 10 9 6 8 4 11 4 9 10 7 4 4 6 3 3 3 3 3 3 3 4 5 3 2 3 5 2 4 8 6 6 8 5 7 21 24 27
20 20 21 22 23 22 18 14 11 7 7 6 6 11 12 11 10 5 10 5 1 4 4 3 4 3 5 2 4 6 7 6 4 3 1 8 12 5 8 6 8 20 25 26
18 19 19 19 19 17 14 15 12 9 6 8 11 10 9 12 11 13 18 6 6 8 4 1 3 2 2 2 3 2 3 7 5 9 6 4 20 9 22 9 10 22 23 26
18 17 17 17 17 16 14 15 13 11 14 9 7 8 8 7 10 11 9 6 8 8 6 8 3 3 4 4 5 3 4 7 2 2 6 14 14 26 16 16 20 15 21 21
16 16 15 15 14 13 13 14 13 8 8 5 3 7 6 5 5 10 6 7 15 12 9 5 3 3 9 3 3 4 4 8 5 5 10 11 14 19 24 24 19 15 17 19
15 14 14 13 13 12 12 11 11 9 4 4 6 8 4 3 3 3 4 6 14 11 5 3 3 5 3 1 2 3 9 7 4 7 14 10 10 10 14 18 20 19 19 17
14 13 12 12 12 12 12 5 7 8 8 4 2 4 4 5 5 6 10 11 11 8 6 4 5 5 6 4 4 12 21 23 24 18 18 14 18 16 16 19 19 17 17 16
13 12 11 11 11 12 4 4 7 11 9 4 4 1 3 7 9 8 8 9 5 4 4 5 4 5 7 3 5 17 21 22 22 21 18 13 14 10 19 17 16 18 20 15
13 12 11 11 10 10 7 7 8 11 6 3 3 3 2 5 3 3 3 4 5 2 2 2 3 4 2 3 16 22 21 21 23 24 20 18 11 10 19 18 20 21 17 13
14 13 12 11 8 5 7 7 6 8 3 6 3 4 3 5 3 2 2 2 2 1 1 2 3 1 4 5 7 10 11 9 9 10 15 12 14 20 19 24 20 16 11 10
14 15 5 4 7 10 10 4 3 3 2 2 3 4 1 2 3 2 1 2 1 1 3 2 2 3 10 12 16 17 15 11 12 10 12 18 21 24 22 15 10 7 4 5
11 4 3 12 13 5 3 3 4 3 3 3 2 2 3 2 2 2 1 1 0 2 3 2 2 2 5 15 11 8 5 8 7 5 14 17 18 16 17 11 5 2 7 9
7 9 15 9 2 2 4 2 2 2 2 1 1 2 3 3 3 4 3 2 1 5 3 1 2 1 7 8 11 12 10 9 14 16 23 24 22 13 7 4 4 7 9 10
15 4 4 2 4 2 4 6 1 2 1 1 2 2 1 2 2 5 2 3 3 5 2 2 1 5 9 12 14 14 11 10 16 17 14 15 13 6 3 7 8 8 9 10
4 3 3 1 2 2 1 2 2 3 3 4 4 3 2 2 2 2 2 0 0 2 1 2 2 7 9 13 14 13 14 11 8 14 11 6 4 3 4 6 8 9 10 10
4 3 2 2 4 4 4 4 5 4 4 5 5 4 2 2 2 2 2 1 1 2 1 2 7 9 8 8 6 10 11 9 7 2 4 7 7 8 7 8 8 10 12 13
4 4 4 7 5 4 4 5 4 4 7 7 4 2 2 1 2 2 1 2 1 1 1 5 4 5 4 5 7 6 2 3 4 6 8 9 11 10 10 9 9 10 14 17
3 3 9 7 10 7 6 7 5 6 3 1 2 3 2 2 2 1 1 2 1 4 3 3 2 1 2 3 4 6 6 6 7 9 9 9 10 9 10 12 15 18 21 24

GFSNW_850_spd_024.txt.gz
Wind_Speed
34 31 28 30 32 31 29 17 3 18 17 5 2 4 5 3 2 3 3 4 3 5 3 4 2 4 1 3 1 3 1 5 2 2 2 2 1 3 4 4 3 1 3 6
34 31 30 32 34 35 30 13 6 16 18 4 1 3 2 3 2 3 2 3 2 3 4 5 2 2 1 2 2 5 4 1 3 6 5 3 2 3 4 5 3 4 4 5
33 30 30 33 36 36 25 12 3 4 6 4 8 4 2 2 1 2 4 4 4 4 4 5 5 3 1 1 3 5 4 3 5 7 4 2 4 4 4 5 3 4 6 5
32 30 31 35 38 38 23 9 4 7 4 2 4 5 4 4 2 2 4 4 3 5 4 3 3 2 2 3 2 3 3 4 2 2 3 1 2 4 6 7 5 6 5 7
30 30 32 37 40 38 17 9 6 5 4 18 7 4 6 7 3 2 1 5 1 2 5 6 8 6 4 4 3 3 3 2 2 1 4 5 4 6 7 5 4 7 4 10
29 29 33 39 42 40 15 8 10 10 0 4 6 6 6 7 7 3 2 7 5 3 1 4 11 7 10 7 5 3 3 5 3 3 4 5 6 9 10 5 5 7 6 9
27 28 33 39 42 40 19 12 11 5 2 3 6 8 4 5 5 7 3 6 5 10 28 27 22 24 22 19 13 5 5 4 3 2 3 2 6 2 3 7 4 7 2 4
25 27 32 38 41 37 24 12 9 5 2 3 3 7 6 13 9 4 4 3 7 25 5 5 5 5 6 5 6 7 4 5 3 4 3 6 4 5 7 8 8 9 7 4
24 27 32 36 39 36 24 11 8 5 14 6 8 6 7 5 4 3 4 9 29 2 5 4 4 4 4 2 1 4 5 6 4 3 3 6 7 3 4 5 5 9 15 12
24 27 30 33 38 36 23 10 8 5 7 7 12 4 8 9 6 4 6 9 3 2 3 3 3 3 2 3 5 3 3 3 4 3 3 8 7 4 4 5 7 9 21 21
23 26 28 32 35 30 22 13 11 6 7 9 8 9 11 11 9 5 11 5 1 4 3 3 4 3 5 2 4 6 7 6 4 3 2 7 9 4 7 6 6 14 20 22
23 24 27 31 32 28 15 9 10 11 8 9 11 10 9 10 10 14 19 7 7 8 4 1 3 2 1 2 3 2 2 6 4 9 6 4 20 7 16 6 7 15 19 18
22 23 24 27 28 29 20 14 14 12 19 12 8 9 9 9 10 10 9 6 9 8 6 9 3 3 4 4 5 2 4 6 2 2 5 12 20 24 31 17 20 21 16 20
21 20 21 22 22 21 19 19 16 11 10 6 4 8 7 6 7 9 5 6 15 13 8 5 3 3 8 3 3 3 4 7 4 5 12 18 22 21 18 25 28 27 23 20
20 18 18 18 18 18 18 18 14 11 5 5 8 9 6 5 5 5 5 7 13 9 5 3 3 5 4 2 2 3 10 7 4 6 20 11 15 20 14 14 18 19 18 15
19 18 18 17 17 17 16 6 7 9 10 5 2 3 4 5 6 7 11 10 7 5 5 3 5 4 4 4 4 13 16 21 22 17 19 18 20 16 20 21 18 12 14 16
16 16 15 15 14 14 6 6 10 10 8 4 4 3 2 5 6 5 4 4 2 2 3 2 4 3 5 3 3 9 16 20 21 20 19 17 18 17 14 12 11 16 16 17
14 13 13 12 11 12 11 11 11 11 6 4 3 2 2 2 2 1 1 2 3 3 2 2 3 4 2 3 6 15 15 14 13 13 12 14 14 9 8 10 14 17 22 16
14 14 12 12 7 5 8 10 9 7 4 5 3 4 3 1 2 2 2 1 2 0 1 1 3 1 3 4 17 19 17 13 15 13 8 6 3 10 12 16 21 23 19 19
16 16 5 5 7 13 11 4 3 3 4 4 4 3 1 1 2 3 1 3 1 1 2 1 2 2 3 18 14 14 13 12 11 4 7 12 16 17 21 20 17 18 15 7
12 4 5 14 14 5 3 4 5 4 3 3 3 3 2 2 2 2 2 1 1 2 2 2 0 1 6 14 15 16 14 11 9 4 9 13 19 21 21 18 15 7 5 4
7 11 15 9 3 4 6 2 2 3 2 2 2 3 3 3 2 4 2 2 1 3 1 1 1 2 7 11 17 20 19 18 23 23 26 24 23 20 16 12 5 3 6 7
9 4 4 2 4 5 4 4 1 2 3 3 3 2 2 3 2 5 2 2 2 3 1 1 2 3 5 10 15 19 18 17 18 19 19 17 13 8 4 4 6 6 7 9
4 3 3 2 2 2 1 2 2 3 4 7 7 4 3 3 3 1 2 1 1 2 0 1 1 5 12 13 9 11 16 15 14 12 9 7 6 6 6 7 8 8 8 8
4 4 3 2 4 5 5 8 6 5 7 7 6 5 3 2 2 1 2 2 1 2 3 2 4 10 10 8 8 10 11 7 4 4 5 6 8 7 6 5 6 8 10 13
4 4 3 7 5 4 4 6 6 5 7 7 5 3 2 0 2 2 2 4 4 3 3 8 9 9 9 8 8 6 2 3 4 5 6 7 7 8 7 7 9 12 16 19
4 4 7 6 9 6 5 6 4 7 3 2 3 3 3 2 2 1 1 3 3 10 9 6 3 3 4 4 3 4 4 4 5 6 6 6 6 7 9 12 15 19 22 25

GFSNW_850_spd_027.txt.gz
Wind_Speed
41 41 38 33 31 32 31 19 3 22 22 5 1 4 5 3 3 3 2 4 3 5 3 3 3 5 1 2 1 4 1 4 3 1 1 1 1 3 4 3 4 1 0 5
42 42 38 35 34 36 36 13 5 19 22 4 1 2 3 2 1 1 3 3 3 3 4 4 3 3 1 2 3 5 5 1 3 2 2 1 2 3 4 5 2 5 3 4
43 42 39 37 36 37 35 14 3 5 8 6 8 5 4 2 1 1 4 5 4 4 3 4 5 3 1 2 3 4 3 2 4 7 3 2 4 4 4 4 3 4 6 4
44 41 40 37 39 41 33 9 4 7 4 2 5 4 6 5 3 2 2 4 3 5 4 2 3 2 2 3 5 3 2 4 2 1 1 1 2 4 8 8 4 6 3 8
43 40 38 39 42 44 28 9 6 5 3 18 7 2 7 7 3 2 1 6 3 2 5 5 8 6 4 4 2 2 2 3 2 3 1 3 3 5 7 7 4 10 5 14
40 39 38 41 44 46 18 10 11 11 1 3 5 6 6 7 7 3 3 7 5 4 1 4 8 6 11 6 5 3 2 5 3 3 3 2 5 9 12 6 6 9 10 9
38 37 37 40 45 46 22 16 14 6 2 3 5 8 4 7 4 8 3 6 4 7 27 28 23 25 21 17 11 4 5 4 2 2 2 1 4 2 3 12 7 14 5 4
35 34 36 39 45 45 18 17 10 7 3 4 3 6 5 13 10 5 4 3 7 27 6 4 4 4 5 5 7 6 3 4 3 3 3 5 5 4 6 7 6 12 14 6
31 31 34 40 45 45 18 15 12 5 13 7 9 7 9 5 4 3 4 7 27 5 4 3 4 3 3 1 1 3 5 6 3 3 3 5 5 2 3 4 4 2 12 9
28 30 35 41 44 42 21 13 11 5 6 9 14 5 9 9 6 4 6 10 4 1 2 3 3 3 1 3 5 2 2 2 3 2 3 7 6 2 3 2 5 3 12 15
26 30 34 39 42 39 26 17 9 9 6 12 8 9 13 10 10 5 11 6 2 3 3 3 3 3 4 2 3 4 5 6 3 3 1 6 6 4 4 4 4 6 14 17
24 27 33 37 41 38 24 13 11 10 6 9 12 10 11 9 12 14 23 6 7 9 4 1 3 2 1 2 3 1 3 4 3 8 5 4 14 9 9 12 10 8 12 16
22 25 32 36 40 35 19 11 14 13 17 12 9 10 9 11 11 12 9 6 9 9 6 8 2 3 3 4 5 2 4 6 3 1 3 10 19 20 23 26 28 24 20 18
21 24 31 36 37 28 27 9 15 8 10 6 4 8 8 7 10 9 7 8 15 14 9 5 3 3 7 3 2 3 3 7 3 4 12 15 12 14 12 14 17 19 19 19
23 26 29 32 30 30 22 19 14 13 4 6 8 12 8 7 7 8 6 11 15 9 5 3 2 6 5 2 1 3 9 6 4 5 13 6 12 14 18 14 14 16 15 14
22 25 26 26 26 28 27 8 10 11 12 7 3 4 5 8 8 10 13 11 7 5 4 3 4 4 3 3 3 4 5 10 14 9 14 21 21 19 16 16 15 12 6 5
22 25 27 27 26 24 12 8 13 12 10 5 4 3 3 6 7 6 5 5 4 3 4 3 4 3 4 3 3 11 17 17 14 11 11 9 7 8 13 9 5 3 12 19
19 19 20 19 17 19 18 16 15 14 7 5 4 1 2 3 2 3 3 3 4 5 4 3 3 4 2 2 9 18 19 16 2 17 9 6 6 4 3 6 11 20 25 23
20 20 19 18 15 6 12 15 12 9 6 6 3 4 3 2 3 3 3 3 3 2 2 2 3 1 2 4 10 15 17 13 15 8 6 5 7 11 12 14 20 23 23 22
19 14 4 5 9 21 14 5 3 4 6 5 4 3 2 3 2 3 2 3 1 2 0 1 2 3 6 10 8 11 14 14 6 3 11 14 21 24 24 25 24 21 18 13
6 3 7 18 13 5 5 5 6 5 4 4 3 3 3 2 3 2 2 2 0 3 1 2 1 2 2 9 12 11 11 11 14 13 18 25 26 23 21 19 16 14 10 6
7 13 17 8 4 6 6 2 2 4 2 2 2 3 4 3 3 4 2 2 1 2 2 1 2 2 6 11 18 21 22 25 27 24 22 20 18 16 12 8 5 3 4 5
11 4 4 3 5 6 4 5 1 2 4 4 4 2 2 3 2 5 2 3 2 5 2 2 2 5 9 14 15 16 17 16 17 16 14 10 8 7 6 6 6 7 8 9
4 4 5 3 2 2 2 2 2 3 4 9 9 5 3 3 3 2 3 1 2 3 3 3 3 9 13 13 13 14 14 11 10 8 7 7 6 6 6 6 7 7 8 9
5 5 4 3 4 5 6 7 6 6 7 6 7 5 3 3 3 2 3 2 1 2 3 2 10 14 13 12 12 9 6 3 3 5 4 5 5 5 5 5 4 6 9 12
5 6 4 6 6 3 6 10 9 7 8 7 6 3 2 2 2 2 2 4 2 2 3 12 15 12 11 10 9 5 1 2 3 4 4 4 4 5 6 6 9 13 17 20
4 4 9 9 11 6 5 6 5 6 4 2 3 3 1 2 2 2 1 3 3 13 16 16 14 13 11 9 5 3 3 3 2 3 3 4 5 7 10 14 18 21 24 25

GFSNW_850_spd_030.txt.gz
Wind_Speed
36 43 44 41 40 35 33 20 9 20 26 13 9 12 7 5 7 7 7 5 5 12 10 8 9 10 1 5 4 5 2 2 4 5 3 2 2 4 7 4 4 1 2 3
35 43 45 44 44 43 38 23 10 20 29 10 8 6 6 5 6 8 7 7 3 4 8 5 5 6 2 3 5 5 6 4 4 5 4 5 7 8 5 4 1 6 3 2
40 33 45 47 45 43 34 22 7 10 15 10 16 12 13 8 4 4 3 5 3 7 5 0 7 7 3 2 2 2 3 3 6 8 1 1 6 11 11 10 4 4 9 9
44 36 48 47 44 46 29 16 8 15 12 12 13 15 14 11 7 4 6 4 6 7 5 5 5 5 5 3 6 3 3 6 4 1 1 3 4 7 13 16 13 7 8 11
41 34 45 47 46 49 23 16 7 10 23 18 14 13 11 15 6 6 6 7 8 7 4 7 9 9 7 4 7 5 2 3 2 3 2 2 7 9 11 15 15 15 18 19
39 36 45 47 48 55 22 21 14 23 8 12 12 11 14 14 11 2 3 9 7 5 4 4 8 7 8 6 6 6 4 5 4 2 2 3 7 15 17 12 12 14 14 16
32 40 43 46 49 49 23 21 17 10 7 11 14 14 12 13 11 7 4 6 4 6 19 21 18 18 15 11 10 3 5 5 1 1 2 3 1 1 3 13 16 15 18 13
32 40 41 43 47 42 25 21 17 8 4 13 11 14 10 12 8 5 7 4 5 22 5 4 4 2 2 4 7 5 1 4 3 2 4 6 11 3 3 4 6 5 12 12
35 36 40 42 48 42 21 21 19 13 11 8 12 14 15 7 6 5 5 8 21 5 2 2 4 4 3 4 4 3 4 3 1 3 3 4 3 3 1 2 5 6 5 6
34 38 39 42 49 44 20 22 16 11 7 6 14 14 14 8 7 5 7 11 4 2 2 2 2 3 1 5 5 4 2 1 3 3 4 6 1 2 3 3 3 8 5 6
36 37 38 42 51 44 21 21 17 12 6 8 8 10 10 8 11 6 12 7 2 3 2 2 3 2 4 3 2 4 5 6 3 3 3 4 6 6 3 4 6 7 8 6
34 35 37 43 49 44 23 19 15 13 7 6 10 12 15 15 12 12 19 1 8 9 3 1 3 2 1 1 2 3 3 3 1 6 1 3 9 6 5 6 10 12 10 9
31 33 37 43 47 37 19 16 12 14 10 9 7 5 9 11 14 15 8 6 8 7 6 6 2 3 4 4 4 3 4 4 3 1 1 7 8 10 12 11 14 15 14 14
30 34 38 44 50 27 20 17 14 13 9 6 4 8 7 8 13 13 11 12 16 16 8 4 3 3 4 2 0 3 2 8 4 4 11 8 5 5 6 11 12 12 11 11
30 35 39 42 47 28 17 18 14 10 3 6 8 11 8 8 10 7 8 14 16 10 5 2 2 5 4 2 0 2 3 2 2 3 8 5 8 12 13 12 12 12 11 8
31 35 38 41 41 25 21 10 14 12 13 7 4 4 6 11 12 13 15 13 9 5 4 4 4 3 2 4 4 5 6 6 7 7 15 13 11 5 11 9 9 8 8 8
33 35 39 40 35 26 21 8 10 15 10 5 4 3 3 8 9 7 7 7 5 4 5 4 4 3 4 3 3 9 10 9 6 10 9 3 12 7 10 12 14 15 16 18
34 34 32 32 31 25 19 13 16 12 7 5 4 2 3 3 3 4 4 3 4 6 4 4 3 3 2 2 5 9 10 9 4 11 8 8 9 10 13 11 13 22 27 26
31 30 30 28 22 10 13 17 15 10 5 5 3 4 3 3 4 4 4 3 3 2 2 2 3 2 1 2 4 6 9 7 3 9 11 12 15 16 18 23 26 27 22 17
26 22 11 6 9 23 16 4 3 3 6 5 4 2 3 2 3 3 2 3 2 3 2 3 2 2 4 2 2 3 5 5 9 10 17 21 25 24 22 21 17 15 14 11
13 5 6 19 13 5 4 4 5 4 3 5 4 3 4 3 2 3 2 2 0 3 3 2 2 3 3 3 6 8 9 10 12 15 21 21 20 18 16 13 10 5 2 3
10 15 15 6 4 5 6 3 1 3 2 2 3 4 4 4 4 4 2 2 1 3 5 2 3 3 11 14 16 18 20 21 20 17 15 12 10 8 6 4 4 4 5 6
11 6 4 5 7 5 3 5 1 2 2 3 4 3 4 3 4 5 2 3 2 5 2 1 2 12 16 18 20 17 14 13 12 11 10 8 7 6 6 6 6 6 6 6
6 5 4 3 2 3 2 2 3 4 5 9 11 5 3 3 3 1 3 1 2 3 4 3 4 15 20 18 17 13 11 11 9 7 6 5 5 5 5 5 5 5 6 9
5 4 3 3 2 5 4 7 6 6 8 8 8 6 3 2 3 2 3 4 3 2 1 3 12 18 18 18 13 10 8 5 4 4 3 3 4 3 3 2 3 6 10 14
6 7 3 5 4 3 5 10 8 7 9 8 5 3 2 2 2 3 2 2 2 3 3 11 16 17 17 18 13 9 5 4 4 3 3 3 3 2 0 4 7 12 16 19
4 5 9 9 10 5 4 5 5 7 4 2 2 2 2 3 2 3 1 1 3 10 12 17 17 18 16 14 10 7 7 6 4 4 4 3 1 2 6 9 14 17 19 21

GFSNW_850_spd_033.txt.gz
Wind_Speed
40 41 40 42 44 38 36 29 12 24 32 15 16 15 22 20 12 10 9 6 9 12 11 12 12 12 8 10 7 10 3 4 5 13 5 5 9 8 9 5 5 3 3 4
38 40 42 41 44 47 39 32 18 23 30 13 14 19 23 16 14 13 12 11 9 10 10 9 11 11 6 4 7 4 6 7 8 7 7 8 8 9 8 4 1 8 3 3
39 40 41 41 45 49 42 29 11 11 23 32 22 23 22 17 16 11 15 12 8 10 9 6 9 8 4 4 4 1 0 11 9 9 6 3 8 11 11 11 6 8 10 12
41 43 41 39 43 51 42 32 15 19 16 22 21 23 18 22 13 12 16 11 15 11 8 10 7 10 6 6 5 6 4 9 13 14 5 6 8 8 11 16 15 13 12 13
41 38 47 41 44 54 36 23 23 29 27 34 20 21 23 24 19 15 16 13 16 13 9 10 10 12 9 8 9 7 5 5 3 6 8 7 10 11 13 14 16 17 17 17
34 33 42 44 50 60 31 26 24 31 28 24 18 18 22 23 16 3 10 17 10 11 4 7 8 8 4 5 7 10 5 4 4 5 3 5 6 15 17 17 17 12 15 15
34 34 46 42 54 60 32 18 18 22 16 18 20 22 23 21 16 10 6 9 9 6 16 17 15 13 10 7 5 3 5 6 1 0 2 1 2 2 4 6 12 14 13 14
34 40 35 42 55 61 34 19 16 18 5 21 24 22 23 20 11 12 13 6 5 21 10 4 4 2 3 3 3 3 4 5 2 2 6 9 11 5 1 2 4 9 8 10
32 35 42 39 54 62 37 18 11 21 11 14 29 21 22 12 11 7 5 11 14 7 3 2 5 5 6 5 6 3 4 1 4 3 3 4 4 4 2 2 5 8 10 11
42 36 33 47 50 59 37 7 14 15 15 23 22 17 15 20 16 7 8 10 5 3 3 2 3 4 2 5 5 4 3 1 5 5 3 6 5 3 2 5 3 10 11 11
40 34 47 50 49 56 38 5 17 14 10 12 10 12 22 14 20 8 13 8 3 4 3 3 3 1 4 2 2 5 6 7 3 3 2 5 6 6 2 5 8 10 11 11
37 41 43 46 53 48 24 7 15 15 11 9 10 15 15 16 11 14 19 4 14 10 5 1 3 2 1 2 3 3 4 4 1 6 1 5 5 4 4 7 9 11 12 13
37 39 40 45 56 46 15 6 16 12 9 10 9 7 8 15 15 17 8 6 8 8 4 6 2 3 4 4 4 2 3 2 2 1 3 1 4 5 3 7 10 12 14 14
36 37 40 46 53 45 10 3 16 10 9 5 4 4 3 9 12 15 12 14 15 15 8 4 3 3 5 3 2 3 3 6 4 5 9 4 1 6 8 11 11 10 11 12
34 36 39 46 50 41 16 13 15 16 4 5 9 9 5 5 9 9 10 12 15 11 5 2 2 4 4 2 0 3 2 1 3 3 5 4 8 10 9 8 9 9 9 8
34 36 39 45 46 28 20 7 9 12 8 7 4 4 6 9 12 13 13 11 8 6 5 4 4 3 3 3 4 5 3 1 1 4 8 4 4 8 10 11 12 13 15 14
35 37 43 46 36 17 7 6 10 9 11 4 5 5 3 6 6 6 7 7 5 4 5 3 4 4 5 2 4 6 1 1 1 5 6 8 11 8 10 11 13 11 14 18
37 40 42 47 30 13 8 14 14 11 6 3 4 3 5 3 3 4 3 3 4 7 4 3 3 4 1 3 6 4 5 8 7 7 9 10 10 10 12 13 16 20 23 20
41 42 44 30 15 7 10 16 9 9 3 2 3 5 4 4 4 4 3 3 3 2 2 2 3 2 2 4 5 5 6 4 6 10 11 11 12 14 15 17 18 18 15 10
37 32 16 8 8 22 16 9 5 1 3 5 4 3 4 3 3 3 3 3 3 3 2 4 2 2 6 4 4 2 2 4 10 12 12 14 16 16 15 12 10 9 8 6
18 7 5 18 22 14 4 2 1 1 3 5 4 4 6 3 3 3 2 2 1 3 3 3 3 3 5 6 5 4 5 8 9 14 16 15 15 13 11 8 6 4 4 4
12 21 24 12 3 4 4 1 1 3 2 2 3 4 5 4 4 4 3 3 2 3 8 2 3 3 11 12 12 14 17 19 19 16 15 12 10 7 6 5 5 5 5 5
17 7 5 3 5 5 3 3 2 3 2 3 5 4 4 4 5 5 2 3 2 5 2 2 2 14 18 18 18 16 14 14 13 12 9 9 8 7 7 5 6 7 4 5
7 6 5 4 3 4 3 3 3 2 5 10 10 5 3 3 3 0 2 1 2 3 4 3 4 18 24 20 16 15 13 14 10 9 8 7 6 6 6 5 4 3 5 9
8 6 4 4 3 5 3 5 5 6 8 8 6 5 4 2 3 2 3 3 3 3 0 3 15 24 24 22 16 14 13 11 8 7 6 6 6 5 4 2 2 5 9 12
5 6 3 3 4 4 6 10 8 6 6 5 4 3 2 2 3 3 3 3 2 3 3 13 21 26 22 17 15 12 9 8 8 8 6 6 6 5 3 3 6 9 12 15
5 5 10 9 10 5 4 5 4 4 3 2 1 2 3 3 2 3 1 2 3 9 12 15 19 21 21 19 15 11 9 9 8 7 6 5 5 3 3 3 8 11 12 17

GFSNW_850_spd_036.txt.gz
Wind_Speed
37 39 37 38 37 39 33 26 8 20 35 17 17 14 22 29 22 12 10 14 16 13 12 13 13 15 14 13 8 9 10 4 3 9 3 5 7 10 11 3 5 2 1 5
44 39 39 39 39 45 38 19 19 29 37 13 13 19 26 27 22 15 15 11 14 10 12 7 10 6 6 8 5 1 1 3 5 10 6 8 8 11 10 6 3 4 3 3
47 42 40 43 41 46 38 22 9 14 32 26 20 23 21 24 30 18 16 15 14 9 11 9 8 7 3 3 3 4 4 4 9 7 10 4 13 11 10 10 3 4 8 11
42 46 43 44 44 45 40 20 13 17 12 19 19 20 20 24 23 22 20 15 17 11 9 13 8 9 7 4 3 3 2 8 11 14 16 2 10 9 7 11 11 11 10 13
47 46 41 45 44 43 44 23 15 26 11 28 22 22 27 26 24 18 18 13 14 14 10 10 11 12 8 7 7 7 5 5 4 8 10 10 12 14 13 14 13 13 14 13
47 46 44 42 45 41 34 34 25 18 19 23 20 21 22 25 18 21 22 19 15 16 6 16 13 8 2 8 10 9 7 3 2 2 6 7 5 10 16 15 14 10 11 9
45 45 44 39 38 47 31 41 20 16 15 19 24 25 25 23 23 11 15 19 15 12 19 20 17 14 9 8 4 8 5 5 2 1 2 1 7 4 5 5 7 9 8 11
37 40 43 38 40 56 47 45 18 9 7 18 26 29 23 26 24 16 11 7 14 25 14 4 4 2 3 2 3 3 3 4 2 3 4 7 10 1 2 2 5 11 10 10
36 40 38 39 38 60 56 44 15 8 11 18 41 24 25 14 8 1 8 14 15 10 3 2 4 4 6 7 6 1 2 3 3 3 2 4 2 5 3 2 2 9 10 9
32 34 37 32 40 53 57 49 25 4 14 26 37 23 18 16 17 5 14 8 5 3 2 2 2 4 3 6 6 4 2 0 4 3 1 6 6 5 1 2 3 5 6 10
30 31 29 36 47 51 56 50 23 7 13 27 38 27 22 18 27 6 17 8 3 4 2 3 2 2 3 2 6 7 6 6 3 2 2 5 6 6 2 5 6 10 9 10
29 27 29 43 37 56 51 38 16 23 26 10 21 16 14 11 10 15 20 9 13 9 4 1 3 2 2 2 2 6 3 4 3 7 3 5 4 5 5 5 5 7 10 11
29 31 37 48 51 63 59 39 18 15 19 13 13 9 12 14 11 14 7 6 13 10 6 5 2 3 3 3 3 3 4 5 2 2 2 6 5 2 10 9 9 9 9 10
41 41 42 50 52 58 48 37 18 13 14 6 6 5 3 10 14 16 14 13 12 15 13 4 3 3 6 3 1 3 2 8 5 5 4 3 15 13 10 8 8 9 9 13
34 42 51 53 48 39 40 25 17 6 5 5 8 8 6 6 10 10 11 19 19 13 5 3 2 4 4 2 1 1 6 1 3 1 8 3 14 10 9 11 12 11 12 14
45 47 42 42 42 37 23 6 3 9 12 8 3 5 6 8 10 10 11 12 10 7 5 2 5 3 1 3 3 7 9 7 6 4 4 8 12 15 12 14 13 12 13 12
39 37 35 35 36 32 9 3 9 9 10 6 4 4 4 11 12 10 9 8 5 6 5 3 5 4 4 3 2 12 7 6 6 4 4 12 8 11 10 10 13 12 16 20
34 34 33 33 32 23 5 11 14 10 6 4 3 0 5 3 5 4 3 5 5 7 5 3 3 4 2 2 10 10 7 11 9 11 14 16 15 14 13 13 15 17 16 15
37 35 37 36 15 6 9 11 13 7 7 2 2 4 3 5 4 4 3 2 3 3 2 2 4 2 2 6 12 11 7 7 12 11 13 13 15 15 15 15 13 14 13 11
41 43 22 6 10 19 17 6 6 10 4 3 2 4 3 4 3 3 3 4 3 3 1 4 2 2 7 6 8 8 7 13 14 15 12 14 16 17 15 13 11 11 10 9
34 10 5 20 16 6 4 4 4 2 2 3 2 6 5 4 3 3 2 2 0 3 3 4 3 3 6 8 8 6 7 13 9 7 15 14 17 17 15 11 8 7 5 6
14 18 21 10 6 5 5 2 2 1 1 1 2 4 5 4 4 4 3 3 2 2 8 2 3 3 13 12 10 12 14 16 19 18 18 16 14 12 12 10 8 7 7 6
28 8 5 5 5 3 2 4 1 2 1 2 4 3 3 4 5 5 3 3 2 7 1 3 2 11 16 17 20 19 19 19 19 17 15 14 13 11 9 10 11 8 4 4
7 5 5 3 2 2 2 2 2 1 3 11 10 4 3 3 3 2 4 1 2 3 4 3 4 19 20 21 20 20 18 17 16 14 12 12 11 11 9 9 7 4 1 5
7 6 4 3 3 5 3 4 5 5 7 5 5 5 5 2 3 2 4 3 3 4 0 2 14 26 24 24 18 19 20 18 14 11 11 10 9 8 8 6 3 2 5 8
7 8 3 3 3 5 7 10 8 5 4 6 5 2 3 3 2 2 2 4 2 2 3 13 25 29 26 18 18 17 16 13 12 9 11 10 11 8 5 2 2 5 8 11
4 5 11 9 10 7 5 6 6 7 4 2 2 3 4 2 2 2 3 2 2 10 13 19 25 28 22 20 20 19 16 13 11 9 9 9 8 5 4 3 5 6 8 13

GFSNW_850_spd_039.txt.gz
Wind_Speed
49 39 44 39 38 35 36 22 6 18 35 12 9 15 17 16 22 26 10 4 1 7 7 7 9 8 2 10 14 9 8 5 4 18 17 9 5 5 2 4 4 2 5 5
46 47 45 41 41 42 39 17 13 29 41 12 12 7 18 26 20 20 7 3 3 3 7 7 10 5 6 9 5 6 3 2 3 3 3 4 3 4 4 3 3 4 5 5
48 44 39 43 42 44 39 14 6 16 33 27 19 17 17 22 22 21 23 8 8 5 5 3 7 3 2 5 5 5 4 1 6 6 6 2 5 5 5 5 4 3 5 5
40 42 41 45 45 46 40 14 11 18 12 20 13 18 13 19 17 21 15 8 9 7 5 3 5 4 3 3 3 2 4 4 1 5 5 3 4 5 6 4 6 7 8 7
37 37 41 43 47 46 44 8 11 24 6 25 15 20 21 24 19 17 16 13 10 8 6 7 7 8 5 6 2 5 1 2 3 2 6 7 3 5 8 6 5 1 4 6
38 39 40 44 50 49 26 33 22 20 14 18 17 21 23 22 15 17 22 11 7 8 6 11 12 10 14 10 8 6 6 4 3 2 4 6 6 6 6 6 4 3 4 4
42 41 42 45 53 53 25 39 14 12 9 14 20 21 22 21 23 14 19 24 7 12 27 24 21 23 16 16 9 4 6 5 3 3 3 1 9 1 5 6 6 8 9 7
43 44 45 52 54 51 49 31 23 3 3 17 16 23 24 27 25 21 8 7 14 29 11 4 4 5 6 0 3 4 4 5 2 4 4 5 6 2 2 4 4 6 8 8
44 44 46 52 50 49 46 49 17 14 4 12 31 27 26 13 10 2 1 6 25 26 4 3 5 4 6 4 2 8 7 5 5 2 4 6 6 3 5 4 2 6 13 10
39 43 50 50 45 49 35 43 42 10 7 10 25 21 27 30 7 5 3 8 3 4 3 3 3 2 7 5 8 4 3 3 5 2 2 7 5 6 2 6 5 9 13 12
44 44 46 44 44 39 39 48 41 18 7 12 30 32 30 19 20 7 12 4 7 1 3 4 3 3 5 4 8 7 6 6 3 4 3 5 10 4 6 7 13 13 12 12
32 34 39 41 38 34 45 43 48 26 15 10 9 28 22 34 30 26 19 15 9 11 4 3 4 2 2 3 2 2 2 6 6 7 6 7 14 21 21 20 18 16 15 11
33 35 35 36 40 40 47 48 28 28 19 26 16 10 16 27 23 24 13 11 17 5 8 5 3 4 4 3 4 3 2 6 3 5 3 6 24 25 20 16 16 12 9 7
33 31 34 34 38 43 45 43 32 18 7 1 3 7 15 32 29 25 29 20 21 21 18 6 3 4 6 4 4 4 5 5 5 3 12 23 19 18 18 18 15 11 10 11
29 30 29 32 34 32 37 45 38 22 5 2 4 16 13 17 22 23 25 25 26 18 5 4 2 5 5 2 3 1 2 4 4 4 8 17 12 19 16 17 16 12 9 10
31 28 32 33 26 25 27 18 51 48 30 4 2 8 16 11 14 18 19 20 15 7 6 2 5 4 5 3 3 2 17 17 13 7 15 22 22 16 12 14 13 12 13 12
31 32 30 25 29 34 31 11 9 20 29 14 0 3 3 12 18 16 13 8 8 6 5 3 5 4 5 3 4 11 17 17 18 21 25 19 12 11 12 15 17 16 19 20
31 31 28 28 30 37 41 11 4 16 7 8 3 2 4 6 6 5 5 5 5 9 4 3 4 3 3 3 9 20 20 20 15 11 11 19 19 16 19 19 20 22 22 22
32 32 31 24 15 21 14 9 17 21 9 6 3 4 3 3 6 5 5 5 3 3 2 2 4 0 2 4 18 21 22 11 24 21 21 19 17 22 21 19 20 22 19 17
44 46 19 8 10 17 8 6 3 6 7 6 3 4 2 4 4 2 2 2 3 3 2 3 3 2 7 14 18 17 17 23 20 26 21 20 23 24 20 20 19 20 15 11
24 4 6 19 12 10 6 5 5 4 4 5 5 3 3 3 3 3 1 2 0 3 3 4 1 2 5 11 13 16 14 14 13 8 15 18 25 25 25 20 15 12 11 11
7 17 20 9 7 6 6 4 4 5 2 4 4 5 3 3 4 4 2 3 1 2 5 3 3 1 16 16 14 14 16 13 18 21 24 23 23 20 18 14 14 14 13 12
24 6 5 5 7 7 3 2 2 3 2 4 3 2 2 3 4 5 2 3 1 9 2 3 1 10 17 16 19 19 20 26 25 25 24 23 21 16 13 17 15 14 12 9
7 5 6 4 3 3 2 2 2 3 3 12 10 2 2 3 3 1 4 1 2 2 2 4 3 17 19 24 27 28 26 25 24 22 20 18 17 17 17 15 12 9 7 5
8 7 4 4 2 6 4 6 5 4 7 8 4 3 3 2 3 2 3 2 3 4 3 2 13 23 27 27 25 26 25 22 18 18 18 17 17 16 17 13 10 6 3 2
8 9 4 4 2 4 9 10 6 5 4 3 2 2 3 3 3 2 1 5 3 1 2 12 25 25 25 25 26 26 22 18 17 17 17 16 14 13 12 9 6 3 2 4
5 6 12 9 10 8 5 5 5 4 3 2 2 3 2 1 2 3 3 2 2 7 10 15 25 27 23 23 22 21 19 18 16 18 17 16 12 10 8 6 4 1 3 6

GFSNW_850_spd_042.txt.gz
Wind_Speed
43 38 46 39 36 36 34 28 8 25 40 11 9 15 14 13 24 10 5 5 6 8 10 8 9 11 8 6 16 9 7 5 4 8 6 5 1 4 5 4 4 1 4 5
44 36 40 41 41 44 42 20 16 34 43 11 13 7 20 22 10 6 5 5 7 5 6 4 6 3 3 4 6 10 7 1 2 6 6 2 5 5 4 4 3 6 5 5
45 39 38 45 43 48 49 15 9 14 31 26 21 19 15 20 21 21 12 9 7 8 3 5 6 5 2 1 6 6 11 5 7 7 7 4 3 2 1 5 3 4 6 5
42 43 42 54 46 52 54 20 11 18 14 19 16 20 15 20 15 15 15 9 17 12 5 5 2 5 3 2 8 3 4 5 5 5 4 2 3 5 3 5 4 5 9 8
41 40 40 52 48 54 53 17 8 25 7 26 18 20 23 26 18 12 17 12 12 7 8 8 7 7 4 5 1 4 2 3 2 2 3 2 2 4 4 5 3 5 5 2
40 40 45 56 54 60 31 32 23 15 17 18 17 21 23 25 19 16 34 12 13 6 10 8 12 19 19 12 8 5 6 5 3 4 3 3 5 7 7 5 3 5 5 5
35 39 45 52 55 48 24 36 18 6 9 14 19 22 18 27 20 21 17 30 14 12 15 25 23 23 17 16 6 7 6 5 3 3 3 2 7 4 5 9 5 7 8 5
34 39 43 44 54 46 43 28 22 4 4 14 12 25 21 25 27 18 27 19 15 27 6 4 6 5 5 3 7 3 5 5 3 4 3 4 5 5 6 6 1 1 7 5
38 42 42 42 48 49 58 30 22 9 2 9 25 16 27 16 9 15 11 16 15 21 3 3 5 5 5 4 3 6 7 4 4 3 4 7 7 3 9 7 2 6 12 6
42 45 44 44 47 56 53 41 28 10 5 6 34 18 20 26 12 4 3 9 7 4 3 3 3 3 7 6 9 5 3 3 5 2 3 7 7 6 6 6 6 12 16 13
41 43 45 43 44 49 46 43 35 28 6 17 12 30 24 29 32 8 7 6 1 2 4 4 3 3 5 4 6 7 7 6 3 3 3 6 9 5 7 7 14 20 17 18
38 42 43 43 46 47 49 30 31 34 15 13 20 21 17 30 39 23 13 6 7 7 4 1 3 2 2 4 3 3 1 7 6 8 5 4 3 10 24 27 25 18 19 18
37 38 43 42 43 48 47 31 31 26 23 25 11 9 15 22 37 37 10 8 9 10 4 4 3 4 4 4 4 4 2 6 4 5 5 6 19 23 25 22 22 19 16 14
33 36 39 40 43 38 43 31 25 26 7 3 6 7 9 18 35 41 37 29 23 19 6 1 2 4 6 4 4 5 6 8 6 4 2 16 14 18 23 23 20 18 16 13
31 34 37 34 37 33 28 26 26 21 16 3 10 6 7 18 26 33 27 34 34 19 7 2 2 4 5 1 3 1 5 7 5 5 19 10 10 19 20 21 18 16 15 19
27 32 31 31 31 29 20 11 30 41 20 5 3 7 2 8 25 23 28 40 28 13 8 2 4 3 4 3 3 3 5 9 18 11 25 18 26 21 16 17 16 17 16 16
27 25 25 23 24 28 27 12 14 44 27 1 3 6 3 10 20 15 14 16 12 10 6 2 4 3 5 3 4 11 13 16 18 27 32 23 25 15 18 19 19 18 21 22
23 22 21 24 28 25 32 17 8 16 28 9 1 4 1 4 3 3 6 7 6 7 4 3 3 4 3 1 4 22 22 24 27 26 7 22 24 24 22 21 24 28 30 28
22 24 30 25 20 17 33 40 17 6 12 4 4 2 2 4 4 5 6 4 3 4 2 2 3 1 2 2 17 25 29 13 24 18 19 25 26 26 26 26 28 30 26 22
35 30 10 4 11 20 27 4 4 4 9 4 2 2 1 3 4 6 3 5 2 3 2 3 3 1 2 6 19 22 15 22 27 31 23 26 28 28 28 28 25 25 23 20
31 9 5 19 23 10 7 4 3 2 4 5 4 6 3 7 4 2 5 1 1 3 2 4 2 1 3 14 18 20 20 23 16 9 21 23 29 31 32 27 24 22 18 17
10 17 16 15 10 6 4 1 3 4 1 1 3 7 6 6 5 4 2 3 3 2 4 3 3 2 14 19 17 21 20 17 13 16 24 27 27 28 27 25 21 19 18 18
26 6 4 4 6 7 4 2 1 2 2 2 4 3 4 4 6 4 2 3 3 3 2 4 2 8 18 18 19 20 18 20 23 25 27 28 28 23 20 21 20 20 18 16
5 5 5 4 4 4 3 2 3 3 2 9 9 4 3 3 3 1 3 1 1 2 2 4 2 15 18 20 23 26 27 25 27 29 27 26 24 22 19 19 19 17 16 13
7 7 5 4 2 5 4 4 6 6 6 5 6 4 5 2 4 1 2 2 3 3 3 1 10 19 23 27 30 31 30 31 29 27 25 21 19 18 21 18 16 13 11 9
7 9 4 5 2 6 10 10 8 6 5 3 1 3 3 3 3 2 1 4 3 0 1 8 20 24 27 29 32 31 30 26 23 20 18 16 18 20 19 17 13 10 7 5
6 5 12 7 7 5 5 8 8 6 4 2 1 4 2 1 3 3 3 2 2 3 8 15 23 28 28 29 29 25 21 23 23 20 18 19 18 17 16 15 12 8 5 2

GFSNW_850_spd_045.txt.gz
Wind_Speed
55 60 51 41 42 38 36 31 6 23 40 16 7 13 5 7 18 8 4 2 5 5 7 8 9 10 10 16 13 9 7 6 5 9 3 1 3 5 5 4 4 2 4 6
49 55 54 40 46 46 41 24 14 30 46 12 16 9 15 12 8 7 6 6 5 4 4 5 6 8 7 7 9 10 8 1 2 7 4 2 4 4 4 4 3 6 5 6
50 60 60 43 49 50 39 17 7 15 35 36 20 21 14 20 21 16 3 3 3 1 4 4 8 6 4 9 9 13 9 4 8 9 9 4 3 4 4 5 3 4 6 6
55 56 52 45 39 52 40 19 11 17 14 24 17 20 15 20 16 17 9 5 7 2 2 2 4 3 2 2 10 2 6 4 4 4 4 3 4 4 7 6 6 6 8 7
60 61 53 45 45 54 46 19 8 19 6 29 24 18 21 24 23 7 12 15 4 14 9 8 7 6 4 6 2 4 3 4 3 2 3 4 4 5 6 6 3 6 5 5
60 57 49 49 49 58 33 37 24 16 17 19 19 28 23 23 19 23 21 17 12 6 12 19 27 16 9 11 10 6 5 6 4 4 2 2 5 8 8 6 5 6 6 8
58 60 49 54 51 60 30 44 22 8 9 14 24 19 21 22 25 20 23 36 11 7 6 6 9 12 15 10 6 5 7 6 3 3 3 3 7 3 4 5 2 4 5 6
59 51 49 59 56 53 69 32 23 5 4 14 14 18 23 21 29 21 24 19 36 24 9 2 3 5 4 3 7 5 3 5 3 5 4 5 3 3 7 6 2 3 7 8
48 49 54 52 51 49 60 34 41 9 2 11 16 19 25 13 16 10 21 25 35 16 3 3 6 5 5 4 3 4 6 6 5 3 5 7 8 4 7 6 2 5 7 9
45 44 41 45 45 46 60 20 36 17 2 6 29 11 18 27 14 6 6 22 7 18 3 3 4 4 6 7 10 6 3 3 6 3 3 7 7 6 11 6 7 18 20 20
39 37 34 38 42 44 49 28 28 20 3 10 5 18 14 22 28 12 7 10 7 2 4 4 5 3 6 4 5 7 7 7 4 3 3 6 6 6 8 6 13 25 19 16
33 32 32 38 38 33 46 23 27 16 11 7 12 14 23 24 22 26 17 6 9 13 4 2 3 2 2 4 3 2 3 7 6 8 6 3 5 6 7 25 31 21 24 21
39 34 35 37 36 33 39 27 21 18 7 18 21 15 22 25 21 26 19 5 8 10 8 5 2 3 4 4 5 4 2 4 4 4 1 1 3 13 28 25 28 25 23 24
35 33 34 34 34 31 40 38 11 17 3 1 11 11 9 20 21 31 35 25 15 14 13 4 3 2 4 3 4 5 5 9 7 3 2 4 4 16 25 24 24 25 23 22
33 34 35 32 32 29 28 31 32 13 15 2 11 22 12 19 28 31 39 29 25 15 4 3 2 4 4 2 2 2 7 7 6 5 20 8 15 22 22 25 24 22 23 22
33 31 34 36 31 29 30 12 35 20 15 5 4 11 12 12 17 25 41 42 27 16 8 3 4 7 6 2 3 3 11 13 13 8 28 13 26 25 23 24 22 20 20 20
32 35 39 34 39 35 22 9 12 38 27 3 2 4 6 4 13 13 15 21 13 7 7 4 5 4 7 4 3 5 11 12 14 20 34 20 30 19 24 22 22 21 22 23
31 27 27 34 36 21 15 9 12 29 30 3 2 4 4 4 3 5 6 7 5 5 5 3 3 6 2 3 2 14 17 21 23 26 15 27 28 28 25 24 26 27 28 28
31 29 28 24 19 12 19 12 21 31 13 4 4 2 3 2 4 6 5 6 2 2 2 0 3 0 4 1 13 22 28 14 25 18 18 27 32 31 29 29 30 31 32 29
29 31 12 7 19 18 27 4 4 3 6 5 3 3 2 4 3 4 4 6 1 2 2 4 3 2 4 6 14 21 18 19 29 32 24 30 31 31 32 31 31 29 30 28
26 12 7 24 32 17 6 5 1 4 2 5 5 8 3 2 2 3 3 3 4 4 4 3 1 3 3 10 20 21 18 21 21 13 18 23 30 35 35 32 28 27 26 25
19 17 26 15 5 6 3 3 2 2 3 2 1 2 4 4 3 3 2 3 2 3 4 4 3 2 10 18 22 21 22 21 13 11 21 24 28 30 32 31 29 25 22 22
5 6 7 2 2 3 3 3 1 1 3 3 2 1 2 3 3 4 3 4 1 1 2 2 2 2 15 18 22 22 19 17 19 23 24 27 28 27 27 30 24 21 22 21
5 4 4 3 3 3 2 2 0 1 1 5 7 4 3 5 4 1 5 2 2 3 3 4 1 9 16 19 21 22 22 22 23 25 26 27 28 29 26 23 21 20 21 19
6 6 4 4 1 4 4 3 2 6 6 5 3 5 3 3 4 3 3 3 2 2 2 0 6 16 20 24 24 23 25 24 25 26 28 29 28 26 23 21 19 19 18 16
6 10 5 10 3 6 9 17 12 12 5 3 5 3 4 4 2 3 4 2 2 3 2 2 13 18 21 22 23 25 26 27 27 28 28 26 23 23 21 20 19 17 14 12
6 5 16 8 7 9 11 12 14 10 5 2 2 5 4 2 3 3 4 3 3 7 3 6 13 19 22 23 25 25 27 27 26 26 21 19 17 19 21 21 19 16 13 10

GFSNW_850_spd_048.txt.gz
Wind_Speed
52 44 46 52 51 39 39 27 6 18 40 18 11 17 8 12 19 4 4 2 3 3 6 6 8 10 9 15 13 8 6 5 5 9 1 2 4 7 6 4 4 1 3 6
55 47 44 52 53 50 44 19 14 25 48 14 17 9 16 7 6 8 4 4 4 3 1 3 7 7 7 14 8 9 7 1 1 7 5 2 3 5 4 5 4 6 5 6
58 50 46 49 51 48 50 15 7 15 33 36 16 21 17 22 15 8 3 2 2 2 4 4 3 6 4 11 12 8 10 4 8 9 8 5 4 5 5 6 4 5 6 6
60 53 48 54 57 52 52 19 10 13 14 22 18 19 14 19 17 19 15 3 6 2 5 3 4 2 3 2 6 6 6 8 6 3 3 5 5 5 8 6 6 6 7 7
63 54 51 54 61 55 51 13 6 14 15 26 20 14 22 24 21 9 14 6 9 10 5 5 3 2 2 5 4 7 2 4 3 3 3 1 4 4 7 4 3 5 4 6
65 57 51 59 64 58 33 24 22 13 17 20 16 25 21 19 19 23 11 22 10 5 15 21 23 16 11 4 3 9 8 7 3 4 3 3 5 8 7 6 5 7 7 10
62 55 54 64 68 67 33 27 26 6 5 13 23 19 17 24 23 12 25 18 6 10 20 10 2 2 6 9 3 3 7 7 3 3 3 2 6 2 3 8 6 5 4 4
58 55 62 70 65 65 46 35 23 8 5 9 12 17 23 16 23 17 14 26 22 17 11 3 0 4 1 2 5 3 1 6 3 5 4 5 3 5 7 7 9 6 5 6
53 64 65 60 62 57 54 34 36 10 2 12 20 15 19 16 12 5 18 30 23 6 2 3 3 5 5 5 2 2 6 6 5 3 5 8 8 5 8 5 5 8 11 9
56 65 66 60 57 56 55 44 29 15 3 4 23 13 17 22 16 3 7 19 17 16 3 2 4 9 4 6 10 5 3 3 5 3 3 7 7 4 11 5 8 18 26 26
59 58 57 52 55 51 47 41 42 11 15 11 8 13 20 23 34 7 7 8 11 2 7 5 4 4 6 3 4 7 7 7 3 3 3 7 11 6 9 7 3 28 31 30
50 50 51 50 48 51 43 29 44 25 17 8 6 13 13 25 26 26 20 8 7 15 4 1 3 2 1 4 4 1 3 6 6 9 7 4 16 6 16 6 10 27 29 24
47 44 41 42 45 42 38 35 34 27 15 17 15 12 8 16 18 27 18 18 8 8 12 6 3 4 5 4 5 3 3 4 4 4 5 5 11 16 14 15 20 28 27 26
35 35 34 36 38 40 42 35 39 24 13 3 8 4 8 11 15 24 28 16 17 14 9 3 3 3 6 4 3 4 4 8 6 3 4 2 12 17 18 20 23 24 25 25
29 31 31 33 39 38 33 22 26 24 5 4 11 19 8 11 17 26 25 31 32 12 4 2 3 5 4 1 1 2 7 7 6 8 16 14 11 22 22 26 27 28 29 26
31 29 29 27 28 26 27 10 30 8 13 3 2 7 8 7 14 24 31 31 30 21 12 4 5 5 2 4 3 5 22 15 12 5 20 15 17 27 27 27 26 26 25 24
30 28 28 27 27 27 13 8 6 25 8 3 3 4 3 4 8 13 18 28 21 14 8 5 5 5 7 2 5 3 12 12 10 13 27 13 27 20 27 26 26 24 23 23
26 25 26 26 25 23 11 8 10 28 7 3 2 4 5 1 2 3 8 10 12 6 6 5 3 5 3 4 3 9 11 13 15 22 13 20 28 28 29 26 26 26 26 26
30 31 31 29 22 18 18 16 16 26 11 3 4 2 2 2 5 2 4 4 2 3 2 1 4 2 5 5 5 16 22 20 22 16 11 22 30 33 31 30 28 30 30 29
42 38 18 7 16 15 18 11 8 4 4 7 3 4 2 3 3 2 4 4 2 2 1 6 2 3 4 2 4 18 20 13 25 27 21 28 31 34 32 29 28 28 31 32
30 8 6 13 21 16 3 6 10 9 5 10 10 11 1 2 1 1 3 2 1 3 3 4 2 3 3 4 13 15 13 15 20 17 19 24 30 35 33 31 30 31 31 30
8 12 20 23 8 5 4 3 2 3 4 4 3 5 6 3 2 3 0 1 1 3 4 3 2 1 2 9 17 18 18 18 13 12 20 22 26 29 32 33 32 30 28 29
1 6 6 3 1 3 2 2 1 1 0 0 3 2 4 4 4 2 0 3 1 2 1 2 1 7 3 15 18 19 17 16 16 20 20 23 27 27 28 31 29 30 30 26
1 3 4 3 3 3 2 2 1 2 1 0 6 4 3 3 3 1 3 1 2 3 2 2 2 3 13 16 19 22 20 18 20 22 23 24 25 28 27 28 30 26 24 26
4 5 4 5 4 5 6 5 6 11 5 1 4 6 4 3 4 2 2 2 3 3 2 3 7 5 12 16 19 20 22 21 21 22 24 26 28 30 31 27 22 23 23 18
6 10 5 10 4 8 13 16 10 17 8 5 5 3 3 4 2 4 4 3 4 3 3 9 4 10 13 17 18 20 21 21 22 22 24 26 28 28 25 24 21 17 15 17
6 6 22 12 7 9 11 15 18 12 5 2 3 5 4 3 4 4 5 3 4 11 11 2 5 10 12 13 15 16 17 19 20 22 25 26 24 24 23 22 19 17 16 14

GFSNW_850_spd_054.txt.gz
Wind_Speed
46 46 45 45 44 39 38 33 11 23 44 15 10 17 30 21 24 20 7 4 6 5 8 14 19 22 15 21 24 21 16 9 9 13 3 5 9 11 11 7 6 3 4 8
49 49 47 49 48 46 45 26 12 26 38 13 15 24 29 29 22 23 13 11 7 4 2 5 16 12 14 16 19 18 13 9 10 9 6 4 9 11 12 7 3 11 7 5
48 49 51 51 55 51 49 17 6 14 36 38 29 25 26 29 33 24 15 11 8 7 4 4 3 8 5 14 19 11 21 14 16 13 13 11 11 13 15 14 8 11 11 12
51 50 52 53 62 56 50 26 8 15 15 21 29 29 22 27 21 28 24 15 17 11 6 3 2 1 4 5 4 7 11 16 17 17 16 15 16 14 15 16 16 13 13 15
52 54 53 55 69 60 47 16 11 27 19 36 31 28 27 27 32 24 24 18 20 11 12 4 5 5 8 2 4 6 6 10 10 12 13 13 16 17 18 18 17 12 16 17
53 55 55 55 72 66 35 38 29 31 20 24 21 25 29 31 26 31 32 21 12 18 18 13 7 7 7 8 5 6 4 9 8 13 8 8 6 15 16 16 14 14 14 14
54 55 53 53 74 71 44 44 26 20 13 15 22 30 28 26 27 28 15 28 17 11 9 4 3 3 6 10 10 12 5 9 5 5 4 7 10 3 17 18 15 14 15 13
54 56 57 57 75 70 38 43 31 20 12 18 21 28 32 25 25 25 22 17 24 10 9 4 6 5 4 9 7 12 14 7 4 4 9 10 3 5 8 13 15 16 18 18
50 53 56 65 67 71 40 37 41 18 13 16 29 20 28 21 18 19 22 26 10 19 5 5 9 8 6 7 4 2 7 8 7 3 7 8 9 12 14 4 14 11 13 13
50 52 49 73 67 68 44 34 39 27 17 21 20 16 21 33 21 15 16 13 10 14 7 4 5 6 6 9 10 5 5 4 11 11 7 6 4 10 14 10 15 5 10 10
49 55 61 67 65 46 53 31 37 31 19 12 16 18 23 29 28 14 20 13 8 8 9 7 5 4 5 5 11 7 8 8 5 7 6 11 13 11 12 14 6 9 12 14
47 53 69 64 64 53 34 34 38 25 14 6 11 8 5 9 31 30 25 18 15 10 7 5 5 3 2 8 6 6 6 6 4 7 6 4 27 19 24 10 11 10 13 15
50 63 62 59 59 61 39 26 33 27 9 4 6 9 11 11 17 19 15 21 16 25 15 5 4 5 6 5 9 6 6 5 4 5 10 13 17 23 10 12 12 9 11 17
61 62 52 54 55 51 46 30 22 19 11 3 6 5 24 21 13 22 22 13 18 10 19 8 4 3 8 7 9 12 10 10 13 14 14 15 17 19 20 15 15 14 12 19
50 47 50 50 52 41 31 25 21 17 8 2 7 12 17 23 17 23 24 15 20 13 7 3 5 4 3 2 2 11 10 8 8 10 16 12 20 8 17 21 22 17 18 21
40 42 45 47 46 37 31 7 14 16 18 1 2 5 17 26 21 20 32 32 20 10 9 6 10 5 8 4 7 13 21 20 21 12 16 15 15 12 9 17 18 19 21 25
45 44 44 43 42 32 15 6 10 27 14 2 3 3 7 20 19 21 20 25 25 21 16 6 7 9 8 3 10 7 18 22 20 19 15 10 14 7 8 13 18 20 19 22
38 35 31 27 27 25 8 2 9 24 13 4 3 3 5 21 12 7 16 14 18 15 14 5 8 6 4 6 13 24 21 10 13 19 19 15 10 9 9 14 17 22 25 27
35 33 30 26 12 9 10 7 12 21 8 3 4 3 3 5 5 6 5 9 3 5 5 5 8 7 8 7 17 17 16 15 17 15 15 16 14 13 16 19 22 23 27 29
36 35 12 5 12 11 22 11 10 9 11 7 3 2 2 5 3 2 6 4 2 3 5 9 4 10 15 3 5 7 10 12 13 7 9 13 13 14 19 20 17 20 22 24
16 5 4 14 18 7 2 5 6 7 3 7 6 6 1 10 2 2 2 3 3 3 2 5 5 2 5 15 11 10 8 9 9 11 13 11 12 15 16 16 19 21 24 25
5 10 14 14 5 1 2 4 1 5 3 5 5 8 10 6 2 2 2 2 1 1 1 1 2 4 21 15 9 6 4 3 4 6 6 7 9 12 16 17 18 21 25 29
12 7 5 3 2 4 4 7 4 4 2 4 4 4 6 3 3 3 2 2 2 1 2 3 3 13 22 17 9 3 2 3 4 5 5 8 11 13 20 25 26 25 25 27
4 3 3 2 1 2 2 5 4 5 2 3 7 3 2 3 2 1 2 2 1 2 3 4 7 24 23 13 6 1 4 6 8 10 11 13 16 16 17 16 19 24 29 30
7 7 4 4 5 8 10 8 1 4 2 3 5 6 3 2 2 2 2 3 5 5 4 5 20 22 12 8 7 8 10 12 15 15 16 19 20 21 23 23 25 29 31 30
6 8 7 13 5 8 11 11 7 7 2 6 5 2 3 4 3 4 6 3 6 5 6 21 19 13 12 11 11 13 15 17 18 18 19 21 23 26 28 28 29 28 25 23
5 4 18 13 5 8 14 15 18 9 4 3 3 5 7 3 4 4 5 4 5 14 15 17 19 14 14 15 17 18 19 21 22 23 25 27 29 30 30 29 23 22 20 17

GFSNW_850_spd_057.txt.gz
Wind_Speed
45 45 44 40 40 37 37 33 8 20 34 14 9 18 33 27 29 43 22 18 21 27 14 18 19 20 19 11 18 25 23 11 11 17 18 20 9 17 18 10 13 9 8 11
51 47 47 45 44 45 45 20 15 20 37 13 15 28 38 36 26 27 25 20 21 10 11 13 21 19 16 13 19 23 21 13 12 15 11 10 12 15 15 16 11 11 4 8
46 50 47 50 48 50 52 18 8 14 38 40 26 33 37 34 36 26 31 23 21 17 17 11 8 19 6 13 15 28 23 17 20 14 18 15 19 17 16 14 9 12 14 16
44 49 54 57 52 52 58 23 10 19 15 23 31 29 23 29 32 33 26 23 27 20 14 15 11 11 6 3 11 6 16 22 20 21 19 16 17 23 21 20 18 17 15 17
49 48 50 49 53 58 54 14 14 33 16 33 30 29 33 33 30 29 25 24 29 22 21 15 11 10 6 7 9 14 17 15 21 22 19 19 18 18 18 20 18 17 19 20
52 54 52 49 55 66 31 29 38 32 24 25 22 26 34 38 33 36 38 27 17 22 19 5 5 7 12 1 8 12 13 13 16 16 17 19 16 17 18 18 17 15 17 15
52 54 56 57 56 66 37 47 42 20 14 17 25 31 33 33 32 30 34 36 21 29 13 4 2 4 4 2 8 10 7 14 11 9 2 13 10 14 20 21 20 18 17 17
52 53 55 60 60 57 39 49 39 23 11 21 22 27 27 34 39 22 31 30 27 14 9 2 8 5 3 9 13 14 10 10 8 8 13 13 18 9 12 15 16 16 16 15
48 51 54 60 58 59 50 40 48 32 14 15 34 20 28 21 19 21 29 36 16 14 7 6 14 11 11 9 7 12 14 12 10 6 14 18 14 15 14 14 14 15 15 12
46 52 54 57 53 59 53 36 43 35 18 22 17 14 19 34 26 16 23 33 16 18 7 9 13 11 13 11 11 7 6 7 13 12 8 8 10 15 16 12 16 14 8 8
45 51 55 55 53 53 50 37 46 33 16 10 12 16 26 26 34 15 17 22 12 10 10 9 10 7 11 10 13 18 12 7 6 10 11 15 4 10 15 16 22 11 12 12
48 56 51 48 54 62 45 32 42 32 10 6 4 5 18 17 25 29 26 28 26 14 10 7 8 5 2 9 9 16 15 8 8 9 6 6 14 18 22 24 16 10 14 14
47 46 45 53 54 63 33 32 35 30 14 7 10 13 9 19 8 9 15 29 26 29 26 7 5 5 7 5 10 8 8 4 13 13 15 15 17 16 19 14 18 15 12 13
40 41 41 59 69 49 34 38 32 23 13 4 10 9 13 8 26 9 9 21 32 15 21 8 5 5 10 7 8 10 10 10 10 15 15 15 20 16 13 18 17 14 11 15
41 55 53 52 51 42 34 25 16 15 7 3 8 4 9 7 21 24 16 13 17 20 11 6 7 11 8 5 8 10 15 15 10 8 12 13 15 16 13 16 21 19 17 17
49 57 59 53 48 42 41 10 14 17 19 3 3 4 10 15 14 18 22 14 17 23 21 11 14 19 14 5 11 15 23 23 27 15 18 19 16 9 12 11 18 17 17 19
53 53 46 42 42 34 12 4 10 16 9 2 2 4 4 13 12 14 16 19 22 14 16 9 14 18 12 8 12 12 14 17 22 21 17 14 15 11 13 13 14 15 16 19
47 46 43 37 33 22 11 9 13 17 9 5 2 3 5 19 7 2 18 24 23 12 11 8 9 12 6 7 14 28 31 26 21 18 15 17 13 11 10 10 12 13 17 19
35 35 33 30 18 6 7 11 18 9 4 5 4 3 2 16 10 11 16 16 8 8 8 10 7 8 8 7 12 15 15 15 21 15 15 14 15 13 10 9 10 14 18 19
34 29 9 6 6 14 14 10 3 3 4 2 2 3 2 4 5 2 5 5 5 5 5 8 7 10 8 21 17 14 14 14 10 8 11 14 15 12 10 10 10 10 13 15
8 4 5 15 23 9 5 5 4 5 4 8 6 7 1 7 2 3 1 3 2 3 4 6 6 3 12 24 21 16 15 13 12 9 11 11 9 10 9 8 8 10 14 17
8 12 16 16 2 2 2 2 1 2 3 4 4 5 7 6 4 3 6 3 3 3 2 3 3 3 20 25 20 15 13 12 8 7 6 5 3 1 5 7 8 13 19 26
8 4 3 2 2 3 2 4 1 1 2 3 3 1 2 5 5 2 1 2 3 3 2 3 4 16 24 24 18 11 9 3 5 8 7 5 7 12 15 18 16 19 24 27
6 5 4 4 4 6 6 4 4 5 5 4 4 3 3 5 4 3 2 2 1 2 2 4 8 23 23 16 12 10 11 11 12 13 12 14 15 17 15 15 16 19 22 24
6 6 5 5 7 9 8 8 5 6 7 6 3 7 2 1 2 3 1 3 5 6 4 6 20 21 17 15 14 13 15 17 19 19 20 22 22 24 24 22 23 25 27 28
6 9 6 15 3 9 12 11 7 6 4 2 0 2 2 4 3 5 7 3 6 4 5 15 19 16 16 16 17 18 19 20 22 23 24 26 28 29 30 30 31 30 29 27
6 5 15 14 8 9 12 11 10 10 4 2 2 5 6 3 4 4 5 4 4 10 12 13 17 18 19 20 22 22 24 26 27 29 30 32 31 32 32 31 26 24 22 21

GFSNW_850_spd_060.txt.gz
Wind_Speed
42 43 41 41 39 35 35 31 10 22 37 16 7 21 33 35 29 37 28 25 26 24 25 10 19 21 21 20 25 27 25 6 12 15 14 16 19 16 17 9 9 9 5 2
42 41 41 43 42 42 44 19 14 22 42 13 17 23 34 34 31 32 27 23 23 24 23 17 16 21 17 14 15 22 22 14 11 14 15 16 15 12 15 13 10 12 4 6
40 42 40 44 46 46 48 17 7 11 36 40 26 27 33 28 41 31 33 26 25 20 19 18 17 13 15 14 9 16 15 13 14 11 17 13 13 16 18 18 6 6 9 12
41 41 42 46 51 50 54 22 8 20 13 23 31 24 15 32 27 37 36 26 25 20 12 16 21 15 14 15 14 6 7 17 20 17 18 19 20 20 20 21 17 13 19 16
42 42 40 44 56 53 60 16 9 30 16 33 25 27 28 32 28 28 35 28 26 21 21 18 21 22 14 14 12 13 11 14 15 19 17 22 15 21 21 20 19 17 17 17
44 44 46 46 52 65 34 34 41 27 21 21 18 23 34 33 27 30 36 31 24 20 22 8 10 16 26 14 13 10 11 9 13 17 16 18 19 17 17 15 19 16 16 12
49 48 48 51 53 60 42 42 38 10 9 18 21 31 31 31 27 26 31 35 28 31 18 3 4 15 15 17 9 7 2 11 11 4 3 21 11 15 16 15 16 15 14 13
48 53 53 53 56 54 51 31 37 23 6 18 23 27 23 30 32 25 25 33 39 36 7 1 2 4 4 8 1 3 4 3 3 5 11 13 16 15 11 11 17 18 18 17
47 50 57 57 58 58 53 30 45 31 16 14 34 19 25 17 18 19 28 35 36 29 7 4 5 5 9 3 2 8 3 12 6 3 5 14 9 14 21 9 13 14 14 10
47 49 53 58 59 57 51 38 45 28 16 23 24 13 18 30 22 14 18 30 11 10 8 9 7 10 13 8 9 6 4 7 9 6 4 7 8 16 21 15 9 10 15 17
41 42 54 56 57 58 53 39 48 25 19 10 11 15 16 17 22 13 17 15 14 10 11 9 6 5 9 12 15 12 11 10 5 3 4 13 8 11 20 8 21 7 17 11
42 38 46 53 51 55 54 27 45 33 17 6 13 17 19 17 12 12 25 20 8 11 8 5 5 3 5 9 7 10 11 8 6 7 6 8 20 13 11 15 17 19 15 15
35 38 42 46 47 52 52 31 40 27 12 9 9 10 15 16 9 10 11 24 27 31 20 5 4 4 4 3 4 10 9 15 8 10 19 8 21 15 12 12 12 15 11 14
35 39 44 40 48 46 45 33 41 24 9 3 5 5 10 15 17 12 4 9 16 19 24 9 1 4 9 4 4 8 8 5 10 13 10 11 21 18 15 8 14 15 15 9
37 41 42 41 45 44 23 35 41 23 5 4 5 10 13 11 12 23 14 7 11 12 2 4 4 10 5 3 6 7 9 8 5 5 8 6 7 19 22 21 20 23 18 12
39 41 46 43 41 46 39 18 24 27 13 5 4 8 14 13 12 12 24 16 11 10 9 8 13 14 8 3 5 9 17 20 24 13 22 18 19 15 17 18 21 24 19 16
44 48 56 41 38 28 15 5 22 20 9 2 1 3 10 21 12 6 11 14 10 9 13 11 11 11 14 5 8 8 13 20 20 25 21 18 15 9 9 17 18 16 14 13
51 49 43 31 31 26 18 22 26 15 8 2 1 1 2 13 6 4 11 13 9 8 4 4 6 8 9 8 11 16 21 27 31 26 18 13 10 12 16 16 14 13 13 9
47 43 37 31 20 8 17 21 16 10 2 2 2 3 1 5 7 9 11 13 6 5 2 3 6 5 5 8 14 19 18 13 14 15 12 11 8 8 9 10 11 9 7 7
31 26 8 6 9 24 27 6 3 3 3 2 3 3 2 2 3 3 4 6 5 5 6 6 4 2 11 19 17 17 19 18 15 15 14 15 10 10 9 7 6 4 4 5
6 5 7 20 19 3 2 4 3 4 3 6 6 10 4 5 2 2 5 2 3 4 5 6 5 3 10 21 22 19 15 15 15 10 9 7 7 9 7 0 1 3 5 9
6 14 15 14 2 2 2 3 2 3 2 5 4 4 5 6 8 3 4 3 4 7 3 2 3 5 19 20 20 19 16 11 8 7 7 5 5 6 8 11 9 9 12 12
16 6 4 0 3 2 1 3 2 1 6 8 1 3 7 8 14 4 3 4 2 4 3 3 5 18 21 20 17 15 15 12 10 10 9 8 10 9 8 10 11 12 15 19
5 4 4 4 4 5 4 5 4 5 8 16 15 2 3 3 1 2 2 1 2 3 4 4 7 19 18 16 14 15 18 19 19 19 19 20 21 22 19 18 16 18 22 23
8 7 5 5 6 8 8 10 8 10 11 11 3 3 3 3 2 2 1 3 6 7 4 4 18 18 16 16 17 19 19 21 23 23 26 27 26 27 27 23 22 23 24 25
7 10 5 13 5 8 12 12 8 9 11 5 4 2 2 5 4 6 9 4 6 4 4 14 15 20 20 20 22 23 23 25 26 28 29 30 31 31 32 30 30 30 30 30
5 4 12 10 6 10 11 10 11 12 8 3 3 5 5 4 4 4 6 4 6 11 12 15 17 19 21 24 27 28 29 31 31 32 34 34 33 33 33 33 29 27 26 26

GFSNW_850_spd_063.txt.gz
Wind_Speed
38 38 36 35 33 30 28 25 5 14 34 15 13 21 17 18 14 24 14 8 14 18 17 13 10 12 16 20 19 24 14 6 11 13 14 22 16 15 9 5 4 4 5 5
40 39 38 36 36 36 36 15 10 25 47 12 19 21 26 25 19 20 6 12 10 13 18 9 6 6 11 26 12 18 14 15 5 6 9 4 13 6 6 7 4 6 5 4
38 36 36 38 40 40 43 15 6 14 37 37 24 24 22 22 16 24 20 19 21 22 21 15 10 6 7 28 16 30 22 7 15 14 5 4 6 10 11 9 3 3 5 5
35 37 39 39 42 44 51 20 7 15 15 24 20 18 7 23 17 24 20 13 25 20 13 16 8 5 9 17 18 4 10 19 15 8 18 12 16 11 14 18 15 9 7 12
35 34 33 36 40 41 53 14 9 20 12 23 22 20 25 28 15 15 16 21 17 16 20 19 4 4 3 4 12 9 3 3 15 19 12 11 11 17 7 8 10 11 14 18
36 37 38 38 38 44 30 38 35 23 15 11 14 26 33 23 17 22 33 21 20 21 18 18 7 7 4 5 5 9 10 5 5 13 12 10 14 12 14 14 14 11 14 15
40 41 41 43 45 47 44 30 34 12 6 17 22 22 25 21 20 20 24 26 14 37 9 6 9 5 5 4 7 9 15 5 4 4 5 13 5 9 7 11 12 7 5 3
42 43 44 46 48 50 50 26 33 21 8 18 22 21 17 26 25 25 19 30 29 23 26 4 3 3 3 3 5 5 18 3 2 5 9 5 16 7 5 7 11 7 6 5
44 45 49 50 50 50 50 39 36 29 16 12 33 17 24 12 15 15 24 39 27 23 5 6 11 4 3 2 4 6 14 3 5 3 2 15 2 8 11 5 9 5 2 6
39 41 44 51 53 53 51 41 30 25 13 23 22 16 16 26 17 11 15 17 17 18 4 4 5 7 5 3 5 5 2 4 3 3 3 6 5 9 13 7 4 8 14 7
41 42 43 46 53 52 52 41 37 33 8 24 27 17 18 19 22 11 8 10 13 3 4 7 5 4 8 6 9 6 7 6 4 3 4 6 8 10 9 1 19 21 22 10
42 41 44 46 47 56 54 34 43 41 15 8 35 33 24 16 18 14 23 13 5 6 3 2 2 2 4 7 10 5 3 6 7 8 7 10 3 5 9 20 23 12 10 3
36 44 39 43 46 50 57 35 46 43 7 5 18 22 30 21 19 21 4 12 13 14 12 3 2 4 4 3 6 7 6 8 5 5 7 13 18 3 14 16 26 27 16 4
36 40 36 41 46 54 53 34 38 40 9 4 4 17 20 25 26 18 18 11 5 1 19 3 2 3 4 4 4 5 5 10 3 3 8 6 9 17 24 21 33 32 27 18
34 38 34 43 54 56 42 33 30 44 4 3 8 14 14 17 16 14 13 16 8 1 3 2 3 5 3 3 1 4 4 5 4 4 12 11 9 4 11 17 19 20 20 20
35 36 40 44 42 47 33 12 33 29 12 4 2 6 15 12 9 10 12 12 8 3 6 4 8 4 3 2 3 3 11 5 6 4 9 17 17 17 14 16 17 17 17 17
35 36 39 37 43 37 22 7 35 32 8 4 2 2 8 13 8 6 7 14 7 6 3 7 7 9 2 1 1 10 19 17 17 15 17 16 23 11 7 7 9 13 15 14
38 40 42 39 21 28 26 27 35 19 9 5 3 1 4 10 5 2 5 6 10 6 4 5 3 2 4 2 9 21 28 23 18 23 15 11 12 8 6 6 10 12 13 13
46 41 36 22 12 13 25 30 22 13 6 3 3 3 2 1 1 4 5 8 1 7 2 2 3 0 2 7 15 17 19 17 22 22 15 14 14 11 7 5 6 9 9 7
27 24 11 8 14 27 22 9 4 2 3 3 2 4 2 3 3 3 3 8 3 2 4 1 4 3 9 20 16 15 15 16 20 19 20 18 14 12 13 11 5 3 2 4
12 6 7 28 15 5 4 4 3 2 1 5 5 6 3 6 2 2 4 2 2 3 3 6 1 3 9 20 18 14 12 10 8 8 8 9 10 8 8 6 5 5 6 8
7 18 16 5 3 3 4 2 1 2 1 2 3 5 6 5 4 2 4 2 2 3 0 4 3 5 18 19 15 16 13 9 6 5 4 4 5 7 8 10 10 9 11 14
10 5 5 3 5 5 4 1 2 2 4 8 7 1 6 4 7 2 2 2 1 2 4 4 3 13 17 16 14 14 15 14 14 15 14 14 14 14 14 15 14 14 16 17
8 6 6 4 5 4 4 4 3 5 6 13 11 2 1 3 3 1 3 2 4 4 4 4 4 15 16 14 14 16 18 20 22 22 22 24 24 25 23 22 20 22 25 24
8 8 5 4 5 10 10 13 7 11 15 14 5 2 4 3 3 4 5 4 4 5 3 2 14 18 18 19 19 20 22 23 25 26 28 29 29 31 31 29 28 28 28 27
6 9 4 13 4 5 10 10 8 11 15 8 3 3 3 4 3 4 6 3 5 3 2 13 17 22 23 24 25 25 26 28 31 32 33 33 34 34 34 32 32 32 31 31
5 4 15 9 3 5 11 11 13 11 7 2 2 5 5 3 4 4 5 4 3 9 15 17 18 23 24 25 27 29 30 33 34 34 33 34 33 33 34 35 31 30 28 27

GFSNW_850_spd_066.txt.gz
Wind_Speed
38 36 32 30 29 26 25 23 5 15 32 14 12 19 12 15 16 7 13 5 6 5 4 5 4 3 3 16 5 5 12 11 13 17 6 11 10 11 9 6 5 4 5 9
36 36 35 36 33 31 29 13 9 26 43 11 17 14 22 20 6 5 4 6 12 4 3 3 6 4 8 7 5 6 2 7 4 7 9 12 6 7 12 5 4 9 6 5
38 36 35 35 35 34 34 14 5 12 36 16 12 19 20 20 17 24 27 12 12 9 10 7 6 7 7 13 5 16 3 7 15 18 6 5 4 8 18 15 4 5 6 7
38 37 37 36 37 37 40 20 7 11 12 19 15 16 8 23 18 16 12 9 22 8 6 6 8 4 5 5 10 7 5 13 16 14 13 10 7 6 14 14 10 8 8 8
38 38 39 39 38 38 42 15 8 14 2 23 23 22 22 21 18 12 14 16 11 14 16 10 6 7 5 4 3 4 9 6 7 10 9 16 16 18 13 7 6 7 9 9
37 37 39 38 37 37 32 29 27 16 15 12 16 30 22 17 17 16 23 13 12 15 12 15 16 16 6 2 4 2 3 6 9 14 11 15 11 17 10 6 5 7 7 10
35 34 35 37 39 45 48 27 23 12 7 17 23 11 19 20 19 20 14 23 14 18 20 11 9 6 6 5 5 7 6 4 2 4 2 11 20 8 7 12 12 11 6 8
34 35 36 38 41 43 46 23 24 16 11 15 18 19 15 22 26 23 20 21 14 17 17 3 5 3 5 5 7 10 6 5 1 4 7 6 13 7 15 16 10 8 7 7
37 38 39 41 42 42 42 34 29 13 9 18 28 17 20 11 14 14 24 33 33 20 1 3 9 5 2 3 2 6 7 6 4 0 7 13 2 7 4 2 6 5 4 6
39 40 40 41 43 43 43 32 40 19 3 22 27 16 21 20 12 4 6 13 17 22 3 2 4 8 6 5 5 4 2 3 7 2 7 7 7 5 3 9 5 3 1 7
41 44 45 46 45 45 45 44 32 38 9 11 24 32 22 23 26 8 6 5 7 2 6 4 4 4 6 4 5 6 6 6 3 3 4 7 3 5 3 5 0 9 14 22
33 41 43 48 49 51 48 37 39 35 24 7 18 22 34 34 38 29 15 9 6 13 3 3 2 1 1 6 8 5 4 5 5 9 7 9 4 11 2 14 10 10 11 18
37 39 39 38 40 39 57 33 38 35 20 26 21 27 20 25 26 26 12 16 13 8 9 5 2 3 4 4 5 7 5 7 5 2 7 8 12 6 11 13 28 19 16 19
36 37 39 45 40 40 50 38 39 36 15 4 7 24 37 24 27 25 19 14 7 9 15 3 3 2 5 4 6 7 8 6 13 5 5 3 3 8 12 16 14 19 15 11
36 35 35 40 39 38 47 44 41 37 22 4 3 20 29 32 25 24 16 16 9 13 3 2 2 3 1 2 1 4 2 5 4 5 9 8 8 3 7 18 17 5 6 12
37 33 36 37 43 42 42 13 34 39 32 4 4 7 17 19 16 15 21 28 22 22 8 4 3 6 7 2 3 6 17 23 20 6 10 12 11 15 15 15 20 13 6 7
32 34 36 41 48 41 25 9 21 35 28 5 2 3 10 16 14 11 12 15 8 7 5 6 7 5 8 1 3 13 17 20 17 22 16 3 6 10 7 12 11 6 3 5
39 49 45 50 38 27 12 18 34 29 16 5 3 2 5 9 5 5 9 7 7 5 4 3 4 3 1 2 11 16 19 20 13 24 16 15 8 3 4 2 1 5 8 10
43 42 39 34 24 7 17 40 28 12 3 5 3 4 3 6 3 4 5 6 1 4 3 3 8 2 3 9 14 16 18 16 19 19 13 14 19 17 10 7 6 6 6 6
19 10 6 6 17 25 29 16 1 5 2 3 2 4 3 3 2 1 1 4 3 3 5 6 3 3 3 14 13 14 15 13 14 15 18 20 18 13 10 10 8 6 6 5
8 10 11 21 15 7 6 4 3 4 3 4 3 4 3 5 3 2 3 2 1 3 3 4 3 3 5 16 14 15 14 11 6 5 6 7 7 5 3 4 6 7 7 9
10 19 12 5 5 5 6 3 2 3 2 4 1 3 3 5 3 2 2 3 2 3 1 4 3 3 14 13 13 12 10 10 10 5 4 5 3 1 2 7 8 9 11 14
7 5 5 5 7 9 5 2 2 3 3 7 7 0 4 3 2 1 2 2 1 3 4 3 3 10 13 12 10 13 13 13 14 14 14 12 13 13 14 16 16 16 19 20
8 7 7 4 5 4 4 3 2 3 5 12 8 2 1 2 2 1 2 2 4 4 3 3 4 14 15 14 13 14 16 19 22 23 22 23 24 26 25 25 23 24 27 26
9 8 6 5 5 9 8 12 4 9 14 11 1 2 5 3 3 4 4 4 5 4 3 2 11 14 18 18 18 20 21 24 26 26 28 28 30 31 32 30 31 32 32 32
7 10 5 10 4 7 11 15 9 12 14 4 3 3 3 5 3 5 6 3 4 2 2 9 15 18 19 21 23 23 24 26 29 30 31 31 33 34 35 34 34 33 32 31
6 5 17 8 5 6 9 13 17 13 7 3 3 5 5 3 3 3 4 3 3 7 14 15 17 19 21 22 24 25 27 30 31 31 30 29 29 29 31 33 30 29 28 28

GFSNW_850_spd_069.txt.gz
Wind_Speed
29 30 32 31 29 26 25 21 5 22 32 10 7 13 5 9 11 3 4 3 6 5 4 4 2 3 5 12 4 3 7 5 12 23 7 4 8 8 9 5 3 3 4 10
32 33 33 34 36 30 25 12 10 30 40 10 10 9 9 8 3 7 2 4 2 3 2 3 2 5 8 14 11 5 5 3 8 8 4 10 9 5 6 3 3 10 7 6
36 37 36 35 37 36 29 12 5 10 27 14 16 13 14 11 15 11 5 3 5 2 2 2 4 6 5 18 6 12 5 2 4 7 7 3 5 12 10 12 7 4 12 8
40 39 39 37 37 38 32 17 6 10 8 17 11 16 9 18 10 18 10 7 15 6 4 3 6 7 13 7 2 3 4 1 5 12 14 15 14 10 14 18 12 11 10 10
41 40 40 40 39 36 36 12 8 11 5 21 21 16 17 13 18 9 15 9 8 8 17 12 7 10 3 6 3 5 2 3 5 5 8 14 17 18 12 8 7 12 10 6
41 41 41 41 41 37 27 28 15 12 13 13 18 24 18 19 12 15 24 11 13 12 15 19 25 26 26 13 5 4 3 3 3 5 13 12 8 17 14 14 6 6 10 8
39 39 40 41 42 44 40 28 23 11 6 15 17 16 23 23 17 16 11 23 13 14 15 20 22 20 19 14 7 7 5 4 3 3 6 4 7 8 11 15 14 8 5 6
37 38 39 41 42 44 46 25 24 23 9 10 19 20 20 27 28 17 23 22 27 12 7 1 4 2 5 9 9 9 7 5 4 2 3 7 16 7 4 7 17 11 8 9
32 37 37 38 39 40 51 41 32 8 7 16 17 19 18 11 13 14 22 28 24 7 0 1 4 3 4 4 5 4 5 4 3 2 3 6 10 11 18 17 16 7 18 11
31 29 32 33 33 35 41 34 31 18 5 8 27 16 19 18 14 5 9 17 16 23 3 2 3 6 4 4 7 5 3 1 6 3 4 7 8 13 9 4 6 5 8 0
34 34 35 35 37 37 41 30 44 28 5 5 13 30 17 21 26 6 9 5 5 3 6 4 4 3 5 6 5 7 7 7 4 3 3 7 1 6 4 9 8 6 11 18
38 36 37 39 40 40 40 25 36 32 17 5 2 25 24 36 39 26 19 11 7 11 3 2 1 2 1 4 3 3 4 5 4 7 6 5 8 8 10 18 23 6 16 13
35 38 38 40 40 39 41 36 31 32 13 13 23 17 25 22 32 34 14 11 9 6 4 4 2 4 3 3 5 5 4 5 5 2 8 13 26 24 23 24 27 14 18 15
31 31 35 42 41 42 41 40 35 31 11 3 6 15 24 15 25 37 35 14 15 8 4 2 2 2 4 4 4 5 6 4 8 13 14 14 21 22 23 20 17 15 13 18
33 37 36 33 40 40 42 35 37 38 22 6 7 3 25 21 17 26 28 23 12 4 2 2 2 3 1 2 1 2 3 0 2 4 9 9 21 22 11 12 14 17 13 12
34 33 35 36 33 41 40 11 36 38 31 2 1 15 20 23 22 18 18 12 5 8 5 2 3 6 2 3 5 3 5 4 5 7 26 33 24 20 11 14 17 12 9 7
32 35 33 34 41 40 27 10 17 41 30 5 2 3 8 23 24 16 14 17 9 5 7 7 6 8 17 1 0 8 10 13 7 17 23 7 17 13 14 9 4 1 2 5
36 34 35 45 43 34 12 3 18 45 17 4 3 2 5 12 6 4 5 5 8 5 6 2 3 2 2 1 6 9 11 14 8 14 15 10 10 4 6 5 5 6 6 5
53 49 44 36 24 11 15 19 38 34 10 4 2 2 3 7 6 6 5 5 2 4 2 2 4 2 3 5 9 10 13 12 15 15 13 11 11 12 11 11 9 7 8 6
39 34 14 5 12 39 34 16 9 8 6 5 2 2 3 6 3 2 3 1 3 3 5 6 3 3 8 13 9 9 10 11 11 12 10 14 13 12 12 12 9 7 6 5
7 6 8 33 27 13 5 3 3 1 3 5 4 3 3 4 3 4 3 2 1 2 3 3 2 2 4 12 12 12 10 8 8 4 5 6 6 6 5 7 7 6 6 7
16 15 17 8 4 3 4 2 2 4 2 4 2 2 4 4 4 3 4 2 3 4 3 4 2 3 11 12 12 13 11 7 7 7 6 6 6 7 7 9 10 10 11 12
6 5 6 7 8 10 5 3 3 3 2 7 6 2 3 3 2 2 2 4 1 4 4 3 2 9 10 9 8 9 9 10 12 13 14 13 14 13 14 16 15 15 18 19
9 7 7 4 5 4 3 3 2 3 4 9 3 1 1 2 2 1 1 3 4 4 3 2 3 9 9 10 10 11 13 16 18 21 21 22 23 24 23 23 23 25 29 30
8 7 5 4 4 7 5 11 1 8 12 5 2 4 5 4 4 4 3 4 5 4 2 2 8 10 12 13 13 16 18 20 24 25 28 29 30 31 32 31 31 32 32 31
7 10 5 9 3 7 13 16 11 16 11 4 6 3 3 4 3 4 5 3 3 2 3 9 12 14 15 16 18 21 24 26 27 28 29 30 32 32 32 32 31 31 30 30
6 4 17 6 4 4 9 14 17 13 7 3 3 5 5 3 3 3 4 3 3 10 15 16 15 16 17 17 19 21 23 26 27 28 28 28 28 28 30 33 30 29 28 26

GFSNW_850_spd_075.txt.gz
Wind_Speed
29 28 30 26 20 17 16 16 5 14 21 11 4 4 7 5 8 5 5 2 3 3 5 4 6 4 3 15 12 5 5 2 3 5 2 3 2 8 10 6 5 2 2 7
31 29 27 26 21 20 15 9 8 15 30 9 7 5 5 5 4 4 2 1 1 2 3 4 3 4 4 11 12 9 6 2 2 2 2 4 3 2 4 3 2 15 9 4
31 31 29 26 23 23 19 7 3 8 23 12 16 8 9 7 9 14 3 1 1 1 3 2 4 5 4 16 10 13 1 2 3 1 2 3 5 10 10 6 5 7 11 9
34 34 32 29 25 25 22 11 5 8 4 9 10 14 12 14 8 9 14 5 8 4 2 3 4 4 5 5 8 6 2 5 5 6 11 7 8 7 10 10 10 10 6 13
36 36 35 31 29 28 28 8 6 7 2 9 14 14 12 17 15 8 6 6 6 10 8 9 9 4 2 3 6 6 7 1 5 5 10 11 8 10 17 15 10 13 12 14
41 39 35 33 32 33 25 24 26 9 5 9 9 9 15 17 13 10 18 11 12 12 9 9 14 17 16 11 7 5 5 2 2 3 5 7 6 9 8 2 5 4 6 9
36 40 41 38 37 41 41 25 19 13 8 12 12 15 17 18 18 15 12 20 9 3 3 11 11 15 16 14 12 13 5 3 2 1 2 7 3 4 5 6 9 9 7 9
38 36 41 45 44 45 46 37 25 16 8 8 12 16 19 21 21 19 19 9 7 10 10 3 4 1 2 7 14 15 13 5 2 3 6 8 9 7 4 6 8 7 4 10
37 35 35 42 48 51 45 44 38 18 4 12 19 15 23 13 10 8 21 9 6 3 1 2 2 2 2 1 2 8 13 10 3 3 3 5 3 2 3 1 6 5 5 7
37 35 33 39 44 45 50 34 47 27 14 17 25 14 13 18 15 4 5 9 5 11 4 3 5 4 2 3 2 5 6 3 9 4 4 6 9 8 3 2 5 8 4 9
34 34 34 35 38 43 46 43 36 39 11 6 28 28 19 18 22 6 11 6 5 4 6 4 3 3 4 3 2 4 7 6 5 5 4 8 0 2 1 7 9 12 22 19
33 34 33 31 35 39 42 31 38 38 23 6 23 27 28 34 36 24 21 9 7 10 3 4 3 4 1 5 3 2 4 6 4 8 6 2 3 6 14 17 20 22 26 35
29 33 33 32 35 38 40 33 36 35 19 10 9 16 26 26 27 25 12 17 12 11 10 4 3 3 4 4 5 3 3 4 3 0 3 7 9 10 12 21 21 25 27 28
21 34 33 31 30 33 45 31 38 34 10 3 6 17 19 32 27 29 28 12 13 8 11 2 2 2 5 3 1 3 2 3 3 5 7 14 11 13 22 25 23 24 28 20
22 33 31 31 27 32 38 30 37 31 16 4 5 13 20 19 30 25 24 23 14 13 6 2 2 1 2 0 0 3 3 3 3 5 2 4 10 19 16 21 20 20 22 17
26 31 35 33 30 31 35 11 24 27 17 5 3 7 9 21 26 33 20 20 21 14 4 3 6 5 3 2 2 1 1 3 3 2 9 12 9 12 14 19 17 16 15 15
24 34 37 35 37 33 14 8 19 30 14 4 1 1 4 16 26 22 21 20 13 16 5 5 4 3 6 2 4 3 6 8 7 6 8 4 5 8 15 15 15 13 10 14
28 39 41 36 35 29 10 7 23 31 12 4 2 2 3 16 8 5 14 10 10 11 5 3 3 5 3 3 5 6 11 13 5 12 11 12 13 12 13 12 14 13 12 10
35 38 39 38 24 14 7 21 30 17 4 6 4 3 2 16 5 7 9 11 3 7 3 3 6 3 1 6 9 10 11 10 14 16 13 7 8 9 12 12 10 10 10 10
47 46 18 7 10 26 27 10 3 4 2 3 2 3 3 10 4 2 4 1 3 2 1 6 2 3 11 12 10 9 11 11 12 14 12 15 14 13 12 10 8 8 7 7
12 6 10 39 37 13 4 4 3 3 3 2 1 2 2 3 3 2 3 2 2 3 2 2 2 3 5 13 11 11 11 11 9 8 8 9 9 8 6 6 6 6 6 8
19 23 27 9 5 5 4 2 2 2 2 3 1 3 3 4 4 3 2 2 1 2 3 3 2 3 10 11 12 12 12 10 9 8 6 4 4 5 5 7 9 11 12 14
28 7 6 5 7 8 4 3 3 3 5 8 8 3 3 4 6 4 2 3 2 2 3 3 3 9 10 11 10 11 11 9 7 8 9 8 8 9 10 13 14 16 20 23
9 7 7 4 4 4 3 2 2 4 4 6 6 4 3 5 4 3 4 3 3 3 2 2 3 9 8 8 9 8 10 10 12 13 13 16 18 20 19 19 19 23 26 25
7 7 5 4 2 3 4 4 1 5 4 4 2 6 6 4 4 3 3 3 4 3 2 2 3 5 7 9 10 11 12 14 16 16 19 20 22 24 26 24 25 26 27 27
6 9 4 5 2 6 8 13 7 11 8 5 6 3 4 6 3 5 4 2 2 2 1 1 2 6 8 10 10 13 15 17 19 20 21 22 23 25 26 25 25 26 26 26
6 5 11 5 4 3 7 11 12 9 5 3 3 5 4 3 3 3 3 2 2 4 5 5 6 7 8 9 11 13 16 19 20 20 20 21 22 22 24 26 24 23 23 23

GFSNW_850_spd_078.txt.gz
Wind_Speed
26 26 26 20 19 15 14 9 4 9 17 11 3 5 10 8 9 8 6 5 6 5 6 5 6 5 7 16 16 5 4 4 6 12 6 12 17 17 17 10 12 9 10 11
29 28 27 24 19 17 13 8 11 10 21 8 10 2 11 13 12 10 5 6 4 2 4 5 5 4 9 11 13 10 7 4 7 8 8 5 10 11 10 12 14 18 11 5
27 26 26 25 21 19 20 5 4 11 20 18 16 14 11 12 15 14 9 7 6 10 13 10 8 9 5 18 13 14 5 3 5 4 4 4 3 2 3 5 7 10 14 15
25 25 25 28 25 21 22 12 8 10 5 15 10 16 12 18 11 13 13 8 17 14 10 9 11 7 8 7 7 6 3 5 6 6 4 4 5 7 7 9 8 8 11 13
32 31 29 32 27 24 28 11 6 5 9 8 15 15 15 20 18 12 11 14 8 16 18 15 14 16 13 7 4 6 6 5 7 9 11 10 12 12 12 13 15 15 15 16
33 35 35 35 33 31 28 26 15 7 11 13 9 4 20 20 17 19 18 13 12 12 14 15 14 13 11 11 8 4 4 3 5 10 5 9 11 16 17 13 8 7 8 9
31 33 36 39 38 38 35 26 18 10 9 8 12 13 16 17 18 15 12 18 14 7 6 7 14 16 18 16 14 15 6 5 1 2 3 8 3 4 9 10 8 8 10 7
30 33 35 39 43 40 43 32 24 14 8 18 21 19 16 22 21 18 19 13 12 11 2 3 5 6 9 12 18 16 15 7 3 4 10 13 14 8 7 7 6 4 5 5
34 34 36 39 41 46 45 42 37 19 7 16 22 17 19 15 15 13 19 10 10 8 3 4 6 6 4 4 7 13 16 13 7 5 6 6 5 9 4 3 5 6 6 10
29 33 37 40 41 44 51 43 45 32 9 18 19 19 17 16 12 6 9 12 7 9 4 4 5 5 1 4 4 6 8 10 13 12 7 4 4 7 4 8 5 13 13 17
26 28 32 39 41 39 52 47 42 45 15 22 22 22 21 22 24 9 9 6 6 5 7 5 4 5 6 5 3 8 10 9 7 9 7 9 3 3 3 10 12 14 16 17
25 29 29 37 39 36 47 42 42 39 30 10 23 23 25 27 29 18 19 10 8 11 7 6 4 4 2 7 4 5 5 6 4 6 6 4 3 7 6 8 10 12 18 23
27 28 28 36 38 36 45 36 43 38 31 22 22 13 28 26 28 26 11 14 10 9 8 4 4 4 6 6 8 7 5 7 5 3 6 6 4 3 8 10 12 13 14 18
21 25 27 37 35 35 43 40 36 42 13 5 8 22 22 21 29 27 31 12 16 10 7 5 4 5 5 6 4 6 3 4 5 10 11 11 9 8 14 16 13 15 15 15
19 17 30 33 32 33 42 39 34 42 16 4 6 13 18 24 25 25 29 17 14 10 6 3 5 4 3 3 2 7 8 7 7 8 7 4 8 13 11 16 17 16 16 16
21 19 32 30 31 40 41 12 36 41 29 2 3 3 18 23 26 25 21 24 13 7 4 3 5 4 3 3 5 5 6 6 8 6 11 11 15 13 8 13 15 14 12 12
21 32 32 32 33 42 25 8 25 40 30 6 2 3 6 19 15 21 20 15 8 11 5 4 5 6 9 3 5 9 7 7 8 10 13 7 6 11 13 14 14 12 9 10
34 35 35 46 32 28 16 21 40 37 11 5 3 3 6 17 10 9 10 7 10 8 7 4 5 5 4 3 7 8 10 9 4 12 11 11 11 8 13 13 14 11 10 11
38 42 44 34 20 10 18 38 30 20 4 4 3 5 5 13 6 6 6 4 1 6 3 4 5 3 1 6 8 10 12 10 13 15 12 8 9 9 10 11 10 9 8 7
48 42 12 6 12 38 40 13 4 4 2 2 3 3 3 8 5 5 5 4 3 3 3 9 2 3 10 10 8 9 10 10 11 13 10 13 11 11 8 7 6 5 5 4
23 6 8 34 36 13 5 5 4 4 3 2 0 2 2 5 3 4 6 2 3 3 2 1 2 3 5 9 8 8 9 8 7 7 7 7 7 6 3 4 5 4 3 5
13 22 26 19 4 2 3 3 3 1 3 3 1 4 4 5 4 3 2 2 1 3 3 2 3 3 7 9 9 10 9 7 5 6 5 5 5 5 5 6 7 9 10 11
29 5 5 2 5 5 2 4 3 3 3 3 1 3 2 3 4 3 1 2 4 2 2 2 3 7 8 9 8 7 7 7 6 6 7 7 8 9 9 11 11 15 19 21
6 5 6 4 4 4 3 3 2 2 2 4 3 4 3 4 3 2 3 2 2 3 3 3 3 5 6 7 7 6 7 8 9 9 10 11 13 16 17 18 18 20 22 22
7 6 5 5 3 4 4 3 1 4 4 4 3 5 4 4 4 3 3 2 4 4 3 3 5 5 6 7 8 7 8 9 10 11 13 15 17 19 21 20 21 22 23 24
6 8 4 4 2 5 5 8 5 8 5 3 4 3 4 5 3 4 4 2 3 3 3 5 5 6 7 7 7 8 9 10 12 13 15 17 18 20 21 22 22 22 22 22
5 5 8 5 5 6 6 7 9 8 4 3 3 4 5 2 3 3 3 3 5 8 8 7 7 7 7 6 7 8 9 11 13 14 15 17 18 19 19 21 20 19 19 19

GFSNW_850_spd_081.txt.gz
Wind_Speed
24 23 21 21 18 17 11 13 5 10 22 13 4 11 17 14 9 16 10 6 8 9 6 6 3 2 7 14 14 4 17 5 12 10 21 18 20 20 20 8 11 11 10 4
25 24 22 20 22 20 12 11 13 10 19 8 12 12 18 18 15 15 12 13 7 5 7 5 2 3 5 8 12 11 8 8 11 4 7 9 16 18 19 16 13 10 3 2
24 25 24 25 27 23 18 9 4 17 16 9 11 17 18 15 15 20 16 13 12 11 14 13 7 7 3 8 11 16 7 9 11 8 4 3 13 11 18 13 10 13 13 17
25 22 24 27 25 23 22 14 8 9 7 16 16 15 8 21 18 15 13 15 16 16 16 15 16 13 11 3 2 8 3 8 9 11 8 5 5 5 8 12 12 10 12 10
30 29 26 27 27 26 30 11 8 14 21 14 18 19 12 22 19 16 16 16 16 16 17 15 13 8 8 9 5 4 5 8 6 11 11 11 12 11 12 13 12 14 14 16
28 30 32 31 32 32 26 28 15 14 13 17 12 12 21 15 23 17 20 12 14 13 11 9 11 14 10 10 9 8 6 6 10 11 9 8 10 14 15 14 14 15 15 7
25 26 34 36 37 39 35 23 21 12 11 13 16 19 14 14 19 20 15 17 10 9 9 10 11 14 16 16 15 13 9 8 7 7 3 10 9 4 6 9 14 6 8 5
28 28 31 36 40 42 41 31 27 24 12 18 17 17 8 9 17 20 11 9 8 5 7 6 8 9 11 15 20 18 14 12 7 7 10 13 18 6 6 9 11 5 4 5
29 29 30 37 39 46 44 41 35 23 15 18 26 18 21 12 9 11 19 10 9 4 4 3 7 6 9 7 6 19 16 14 10 6 11 11 13 5 6 4 8 9 4 6
30 33 33 34 41 43 51 43 40 31 13 22 21 19 14 20 11 7 13 11 5 9 3 5 7 8 4 4 9 11 11 11 14 12 8 6 7 7 3 10 2 7 7 10
26 22 28 33 37 46 49 52 39 43 25 22 19 23 17 20 15 4 6 7 5 2 6 5 5 4 5 7 3 10 11 9 7 8 5 14 9 6 7 8 4 9 10 12
26 27 28 28 30 39 47 41 47 38 32 12 25 27 22 22 18 14 14 9 9 13 7 6 4 4 3 8 5 10 6 10 8 11 8 6 8 9 3 7 8 11 13 15
26 29 30 30 33 37 48 43 47 32 32 24 27 22 19 24 20 16 7 8 10 7 15 2 3 6 5 5 9 6 8 12 6 3 8 7 9 2 10 10 10 12 13 14
25 25 28 29 31 33 47 45 43 39 15 6 13 20 34 14 21 22 21 15 13 17 7 6 3 4 6 6 7 8 2 6 8 9 12 9 11 12 9 11 11 12 13 13
27 26 26 29 29 34 46 37 45 43 26 7 20 10 16 25 22 23 24 24 23 9 3 4 5 7 4 5 4 7 7 4 4 2 12 9 10 16 12 13 15 15 16 16
23 24 25 30 30 41 39 12 33 42 41 5 4 17 12 20 21 20 25 26 16 7 5 3 9 10 4 3 5 9 11 11 12 6 12 10 10 7 12 11 13 14 13 13
20 22 22 36 40 42 28 7 17 41 36 6 2 3 7 18 18 18 18 17 8 7 4 5 8 5 6 3 3 5 8 8 8 11 14 6 11 9 9 11 11 10 10 10
25 27 33 32 33 36 15 3 23 36 19 6 3 2 4 19 8 5 13 7 10 9 5 4 7 5 5 2 5 7 10 8 5 13 11 7 9 11 11 11 11 9 10 10
36 36 42 31 26 11 16 26 37 28 6 6 2 4 3 14 6 4 4 5 3 6 3 3 3 3 2 5 6 7 10 9 11 12 10 7 10 10 11 11 10 9 9 8
45 35 8 6 10 41 37 12 4 4 3 4 3 4 2 8 10 5 5 4 2 3 4 4 1 3 8 5 5 6 8 9 10 12 11 12 10 10 9 8 8 7 6 6
9 6 10 42 41 11 4 4 4 5 3 3 0 4 3 3 3 3 4 3 3 3 3 3 4 3 4 6 7 8 9 9 8 8 8 8 8 8 6 5 5 5 5 6
13 23 25 13 4 3 4 4 3 2 3 4 3 4 3 2 5 3 4 2 3 1 2 2 3 3 7 8 8 9 10 10 9 9 8 8 7 5 4 4 5 7 8 9
23 7 5 3 5 3 1 5 3 4 2 3 4 3 4 3 1 3 2 2 3 1 1 3 4 8 9 9 9 9 9 8 8 9 9 9 8 8 7 9 9 10 12 13
6 4 4 4 3 4 3 4 4 4 3 4 4 5 1 1 2 2 3 2 2 3 4 4 5 8 7 8 9 7 9 9 10 10 10 11 13 14 13 13 13 14 14 14
5 5 4 4 4 8 5 2 3 6 4 5 1 4 4 3 3 2 3 3 3 5 4 4 8 8 8 8 8 9 9 11 12 11 12 12 13 15 16 16 15 17 18 19
5 8 4 2 5 7 10 9 8 8 5 2 0 2 3 4 2 3 3 1 4 3 4 8 8 8 8 8 9 10 10 11 12 12 13 14 15 16 17 17 17 17 17 17
5 5 9 8 9 9 7 8 9 8 6 2 2 4 4 2 3 3 5 4 6 11 10 8 7 7 8 8 9 10 11 11 12 12 13 14 13 14 15 17 16 15 14 13

GFSNW_850_spd_084.txt.gz
Wind_Speed
23 19 21 19 16 12 11 8 4 6 26 9 4 8 15 9 20 13 11 8 12 13 10 6 7 4 5 6 13 4 12 6 9 16 19 18 23 19 16 3 4 6 2 5
23 20 20 20 18 16 13 10 14 14 19 7 9 10 18 20 20 16 12 13 11 14 11 5 11 2 5 4 9 9 9 6 8 6 10 11 12 15 13 17 10 5 2 4
23 21 22 20 18 17 19 4 4 16 15 15 11 15 18 19 23 19 20 17 14 16 14 12 9 7 6 4 4 10 10 6 9 5 4 10 11 15 21 20 8 6 8 11
24 23 20 23 20 21 18 8 5 6 6 11 13 15 5 18 19 18 18 19 19 17 14 15 17 17 15 9 6 2 4 7 11 11 4 11 3 6 16 17 19 11 8 14
23 24 24 22 23 23 26 5 5 14 15 16 16 18 19 19 17 19 17 18 16 17 16 17 16 13 8 8 3 6 6 9 11 13 12 9 12 15 17 15 19 12 9 13
22 23 27 28 27 27 21 21 13 16 9 15 12 12 17 20 19 20 18 18 16 17 10 7 11 15 4 10 10 7 6 6 9 10 11 12 8 9 11 9 8 7 10 10
20 20 23 31 32 34 28 21 20 10 9 12 13 17 16 15 17 21 18 16 15 4 5 8 10 13 13 13 13 13 12 10 7 7 8 4 6 11 3 6 12 13 12 7
23 23 24 25 36 38 35 29 21 20 9 15 18 20 17 10 11 15 14 17 20 6 1 3 6 8 10 18 19 18 15 11 5 4 6 12 18 6 3 6 7 7 9 11
26 25 27 28 30 40 41 37 34 18 11 14 22 16 20 10 7 4 16 14 3 6 3 3 5 7 10 8 7 21 17 13 9 5 7 5 5 16 6 9 5 6 11 1
30 29 29 30 30 40 45 41 38 27 11 21 16 14 12 20 13 8 5 9 5 5 2 5 7 12 13 6 6 15 14 11 11 9 7 5 9 5 7 6 4 9 12 15
23 27 31 31 35 35 48 49 34 40 19 25 18 22 19 16 11 6 2 1 4 3 3 4 6 5 5 9 6 12 11 9 6 8 5 11 3 5 6 9 12 8 12 12
23 24 26 29 31 38 42 34 45 32 31 12 19 33 24 17 11 4 3 4 2 7 5 6 3 4 2 8 3 13 6 7 6 8 7 5 10 18 12 11 13 13 14 13
27 25 25 26 23 27 41 44 38 33 27 25 30 30 21 21 20 14 4 2 5 4 7 4 3 6 5 3 5 2 3 8 2 5 4 12 10 17 15 16 16 15 13 12
29 29 28 28 29 28 30 43 38 42 11 7 15 18 35 23 14 19 16 13 11 9 10 3 3 3 6 5 7 4 0 1 13 9 10 13 17 10 10 16 14 12 12 13
32 32 30 28 30 29 31 49 44 47 25 8 19 16 16 19 30 14 17 16 11 8 3 3 4 4 5 6 4 4 5 7 4 4 10 10 9 13 13 12 11 11 12 12
30 29 30 25 27 26 38 10 33 42 44 6 3 8 20 15 20 22 14 15 12 10 4 3 6 10 2 2 0 5 12 14 18 5 11 9 11 14 12 10 11 11 9 9
27 27 29 25 30 35 31 10 16 45 31 5 2 3 9 16 16 17 14 14 8 8 3 4 5 4 6 2 1 6 12 10 13 14 13 9 15 9 13 14 14 11 11 13
23 26 27 27 36 36 17 8 9 37 16 5 3 3 4 16 7 7 9 7 9 7 3 4 5 3 5 3 8 9 12 8 15 16 13 8 9 11 12 12 12 10 10 10
22 26 41 38 25 11 11 13 32 31 8 5 5 3 2 13 6 6 4 7 2 4 2 3 3 3 4 6 10 11 13 11 13 13 9 12 12 11 11 10 10 8 9 8
39 39 14 7 15 36 41 20 6 7 5 4 3 3 2 5 5 4 4 3 2 2 4 2 2 3 9 8 8 10 11 12 13 13 14 13 12 12 12 9 8 8 6 6
13 5 9 40 39 16 4 5 5 6 4 7 4 6 4 1 3 3 4 3 3 3 3 4 4 3 5 7 9 11 12 11 10 9 9 10 9 9 8 9 9 8 7 8
15 26 25 15 6 4 4 4 3 4 4 3 2 4 4 4 1 0 2 3 1 1 5 2 4 4 10 11 12 11 11 11 11 11 10 10 9 8 7 8 8 10 11 11
22 9 6 1 3 2 4 6 4 4 2 3 4 3 3 3 1 1 2 4 1 2 1 3 4 9 9 9 10 10 11 11 10 11 12 11 9 9 10 11 11 11 13 13
6 3 4 5 3 4 4 4 4 4 4 7 5 5 2 2 2 2 2 2 2 1 3 4 5 9 9 9 8 8 9 9 10 11 11 11 13 15 14 14 13 13 16 16
6 6 4 4 4 7 4 4 7 5 3 4 6 6 4 2 2 2 3 2 3 6 4 4 10 9 8 8 8 8 9 10 11 11 11 12 13 14 15 13 14 15 17 16
5 7 3 3 8 8 12 11 9 5 4 2 1 2 3 3 2 3 5 3 5 4 4 10 8 7 7 7 8 9 9 10 10 11 11 13 13 15 16 15 15 15 14 15
5 5 10 8 11 10 8 9 7 8 5 3 2 4 3 1 3 3 5 4 5 9 9 8 8 8 7 7 8 8 9 10 10 11 11 12 12 13 13 15 13 12 11 10

GFSNW_850_spd_087.txt.gz
Wind_Speed
21 19 20 16 13 10 10 9 3 7 10 9 4 4 5 6 11 20 7 3 4 7 9 6 5 4 2 4 6 4 5 3 7 16 10 8 8 11 7 3 5 3 0 4
21 19 18 16 13 12 9 5 10 13 13 6 5 4 8 16 17 15 7 6 3 7 6 4 4 9 4 3 3 2 5 2 3 5 3 8 9 14 13 10 2 4 2 1
20 19 17 16 14 12 13 5 3 7 12 6 4 8 9 13 16 14 18 12 13 8 6 5 4 2 3 8 6 4 2 4 4 4 4 2 6 7 19 14 3 4 4 6
19 19 18 17 16 14 14 6 4 5 2 6 7 6 3 8 14 13 14 5 9 10 9 7 5 6 6 6 10 5 3 2 9 11 8 7 2 11 3 12 10 6 0 10
20 18 19 18 16 16 18 4 4 7 8 10 6 6 4 10 12 10 10 12 9 9 10 8 4 5 7 2 5 3 0 3 6 8 11 7 11 14 3 1 4 11 12 12
14 13 17 19 21 21 17 15 22 9 6 5 2 3 7 9 10 12 14 10 7 12 11 4 2 6 5 6 2 3 5 3 4 3 9 14 5 10 13 11 16 11 10 11
17 16 15 21 25 27 28 18 14 5 4 3 4 9 11 11 9 8 9 7 5 4 13 10 3 1 15 10 8 9 4 5 3 4 6 3 4 6 4 2 10 5 12 10
20 19 19 19 23 30 31 29 17 7 3 7 11 12 10 16 17 5 5 13 5 11 10 4 0 3 3 9 14 11 10 5 2 2 3 6 14 4 3 2 7 11 12 9
24 21 20 22 21 28 32 34 29 16 3 7 16 12 13 7 5 3 4 8 4 4 2 1 3 4 6 4 4 18 12 7 5 2 4 5 5 2 10 1 5 7 12 11
22 24 23 24 25 25 36 34 35 22 13 21 13 4 5 7 5 2 6 3 4 6 3 2 3 4 3 4 4 2 10 5 11 7 3 6 5 7 10 4 4 10 18 17
19 20 24 27 27 28 29 42 36 37 16 24 13 15 14 10 11 1 4 4 1 1 2 3 4 1 4 3 9 4 7 7 4 4 3 6 13 6 4 6 18 20 24 23
19 20 21 22 29 31 31 32 42 34 26 7 9 27 30 23 14 6 5 2 2 4 1 1 3 2 2 5 3 5 2 6 5 6 5 9 22 18 24 23 24 22 25 21
21 21 23 22 24 29 31 39 29 34 22 21 31 37 18 16 16 16 4 3 1 2 9 4 2 3 1 1 4 3 2 10 2 3 10 12 22 24 20 22 24 23 18 17
26 27 25 24 24 26 23 42 33 40 11 4 10 13 23 33 19 12 20 15 6 5 3 3 2 2 3 3 4 4 3 2 5 4 11 19 17 14 14 22 18 18 16 12
30 29 26 26 24 23 18 41 39 39 26 7 7 16 18 10 18 25 11 15 11 3 1 2 2 4 4 4 2 3 8 5 3 3 9 14 12 14 13 14 14 10 5 7
29 29 29 29 27 26 29 10 36 41 43 4 3 4 9 22 16 24 22 10 11 5 4 3 5 8 6 2 2 8 16 19 21 5 8 17 16 14 12 10 9 7 8 8
28 32 30 31 29 32 24 9 8 43 37 5 3 4 1 17 15 18 18 13 6 5 3 5 4 5 3 2 3 9 15 14 17 20 7 16 14 10 10 10 10 10 8 10
22 30 31 31 27 28 23 7 6 32 19 7 2 2 4 19 7 5 11 8 7 7 4 3 3 2 5 3 7 10 13 10 17 16 14 13 9 10 11 6 5 9 10 7
27 33 32 32 28 11 15 12 23 30 7 8 4 3 3 16 6 5 5 6 2 4 3 3 2 3 5 5 10 13 15 13 13 11 13 13 14 12 9 8 9 8 8 7
32 36 14 7 16 30 43 17 6 8 4 5 2 3 1 4 5 3 5 5 3 3 5 5 3 3 9 10 12 14 15 14 13 13 15 14 12 11 10 10 9 8 7 5
22 4 6 41 41 9 5 5 5 5 2 6 6 6 2 2 2 2 3 2 3 2 3 3 3 3 4 12 14 12 11 12 11 9 8 7 9 8 8 10 10 8 7 8
18 29 26 15 4 4 4 4 4 4 3 3 3 4 4 3 3 2 3 2 1 1 3 2 3 3 11 12 11 9 9 8 8 7 7 7 11 8 8 9 10 10 11 11
26 10 5 2 2 2 3 5 2 3 2 4 5 3 3 2 3 3 2 3 3 2 3 3 3 9 9 8 7 8 7 7 7 7 7 7 6 6 6 9 9 9 12 12
6 4 5 3 3 3 2 2 3 3 5 11 14 6 2 2 2 1 3 1 0 0 3 2 3 10 8 7 7 7 9 9 9 10 10 11 12 13 13 12 12 13 16 16
6 6 4 3 1 5 4 6 6 6 8 7 9 6 3 2 3 2 2 1 4 4 2 2 11 8 6 6 6 6 7 7 8 8 10 10 10 12 14 13 13 14 14 13
5 8 3 4 6 7 11 11 9 5 6 5 2 3 3 3 2 4 4 2 2 1 3 13 10 9 7 7 6 7 7 8 9 9 10 10 11 12 14 12 11 11 10 11
5 4 12 10 11 10 9 8 9 7 4 2 3 4 1 1 3 3 3 2 3 12 14 13 10 9 9 9 9 9 8 8 8 8 8 10 11 10 10 10 9 8 7 7

GFSNW_850_spd_090.txt.gz
Wind_Speed
20 20 17 16 11 10 7 4 4 1 6 4 5 3 2 7 9 13 7 6 3 3 5 4 4 4 4 1 2 3 2 1 4 9 11 6 8 4 4 3 3 3 2 3
20 18 16 13 10 8 7 4 8 12 7 4 6 3 7 6 10 11 6 9 8 10 5 4 3 4 2 3 1 3 2 3 4 6 5 6 3 8 11 8 2 4 4 2
17 16 14 11 9 8 10 2 3 2 7 3 3 7 6 8 9 9 8 9 9 6 5 4 2 2 4 7 4 4 1 3 3 4 7 4 6 3 12 10 3 3 6 6
16 17 16 12 11 11 12 6 4 3 1 4 6 4 4 3 4 4 9 3 2 7 4 6 4 3 4 5 2 1 3 1 2 7 14 6 6 6 7 4 12 4 2 4
16 14 14 14 13 13 15 6 3 3 7 5 2 6 3 3 5 2 6 5 10 5 4 4 6 2 2 1 5 3 4 2 3 4 8 10 14 14 11 5 11 11 16 14
16 13 9 12 17 19 12 13 12 3 5 4 3 1 3 6 8 8 13 10 3 3 1 7 12 8 3 2 2 1 2 3 4 3 6 12 8 7 15 7 12 7 2 7
16 14 12 11 19 24 23 15 10 4 3 2 3 8 14 11 10 4 5 7 3 2 5 12 14 9 9 5 5 7 3 2 2 3 3 5 7 13 9 5 4 15 3 12
19 16 15 15 15 25 27 21 12 5 3 4 6 7 7 13 19 7 2 4 3 2 3 3 5 3 4 5 8 7 9 4 1 2 3 10 14 2 3 10 5 8 10 5
20 19 18 17 18 19 30 29 24 13 2 5 12 3 7 4 3 6 5 7 2 1 2 2 2 3 4 3 3 8 9 5 4 1 3 4 5 6 21 3 3 4 9 5
20 19 20 21 21 21 23 32 28 24 9 17 14 1 1 3 3 2 4 6 4 2 1 2 3 3 3 3 3 2 3 1 12 7 3 6 5 16 18 8 3 10 16 15
15 16 17 20 23 23 26 30 31 31 12 19 9 5 6 0 2 1 7 4 2 1 1 1 2 2 4 3 4 4 6 5 4 3 4 9 18 7 4 5 18 20 19 18
14 15 17 18 22 26 27 26 27 29 22 7 4 16 24 23 14 8 3 3 3 2 2 2 2 2 2 3 3 2 4 5 3 6 4 7 17 17 22 17 21 19 21 17
16 15 16 18 19 22 30 34 25 29 21 22 30 32 17 15 23 20 8 2 4 3 7 2 1 3 2 2 2 3 3 4 1 3 8 11 16 19 22 22 18 16 16 15
21 19 19 19 20 21 24 36 34 32 10 4 8 3 14 25 25 18 19 15 9 5 2 0 1 2 3 2 2 3 6 3 4 5 10 13 16 14 11 14 11 12 8 9
28 24 25 23 22 22 24 31 37 31 20 5 7 18 25 11 15 31 22 11 12 6 0 1 2 4 3 2 3 4 8 5 3 2 9 9 6 10 10 8 7 8 5 8
30 29 26 27 25 24 29 7 31 37 27 3 2 4 5 11 18 13 28 16 14 5 3 3 5 4 1 3 3 8 11 13 21 5 13 15 14 12 10 10 6 5 8 12
28 27 26 27 28 31 25 8 8 32 29 5 3 4 2 5 15 10 19 18 5 6 4 4 4 4 6 2 3 8 12 17 19 14 5 15 13 8 10 9 7 8 10 12
23 25 28 31 31 31 24 9 10 29 24 7 2 3 3 9 6 4 9 9 9 5 4 4 3 2 4 3 7 12 11 8 16 14 13 10 7 5 5 5 5 6 8 8
18 29 33 33 31 15 12 12 20 32 7 9 5 3 3 8 5 6 7 7 2 5 2 3 1 3 4 5 9 13 14 9 7 7 6 6 8 5 4 4 4 4 5 6
36 41 16 8 20 22 21 21 11 9 6 5 2 5 3 9 4 3 6 5 2 3 4 5 3 3 12 12 10 9 9 9 7 3 9 8 5 5 5 6 6 3 2 1
23 5 7 35 32 26 8 5 4 4 2 5 7 8 3 6 3 3 5 3 3 3 2 2 2 2 4 7 8 8 8 8 7 6 5 5 3 3 4 7 7 5 4 6
8 21 32 23 7 4 4 3 4 4 5 4 5 4 5 2 4 3 3 2 3 2 3 3 2 3 8 5 6 7 7 7 7 7 6 6 6 6 6 7 7 7 7 8
39 8 4 2 3 3 5 6 4 3 3 6 6 3 4 3 3 3 2 2 2 2 3 2 2 9 7 5 5 6 6 6 5 6 7 5 5 5 6 8 9 8 10 10
6 3 5 3 3 2 2 1 2 3 5 16 15 5 3 3 3 2 3 1 2 2 3 3 1 8 7 5 6 5 8 8 9 9 9 10 11 12 11 10 9 9 11 9
5 5 3 2 1 4 4 8 6 7 12 13 10 6 4 2 3 2 2 2 2 1 3 2 12 9 8 7 7 8 8 7 8 8 8 9 9 11 13 11 10 9 9 8
5 7 4 4 6 5 9 10 8 8 13 10 5 3 3 3 2 4 1 2 3 2 2 14 11 8 6 6 5 6 7 8 8 8 9 9 9 9 11 10 8 7 6 6
5 4 11 12 9 7 6 7 6 7 4 2 3 4 2 2 3 2 2 3 2 13 16 12 8 9 9 8 7 6 5 6 7 8 8 8 9 8 7 6 6 5 5 5

GFSNW_850_spd_093.txt.gz
Wind_Speed
17 17 16 15 11 10 9 4 3 2 2 3 3 2 5 12 8 8 6 11 7 7 8 7 3 5 4 4 2 4 1 3 2 8 5 5 3 3 4 2 2 3 2 5
17 15 15 14 9 8 6 3 8 8 5 2 2 5 8 9 10 7 4 7 6 5 4 5 8 5 3 7 3 3 3 2 3 2 3 5 4 1 2 6 3 6 4 2
16 14 14 13 8 8 7 2 3 4 1 1 2 3 8 4 9 8 12 11 10 3 5 6 4 4 5 4 2 4 5 2 2 3 4 3 4 6 7 3 3 3 7 4
15 13 12 15 10 10 9 3 3 2 2 2 3 3 5 9 4 3 9 3 5 4 6 5 5 6 5 6 4 3 3 1 2 5 8 5 5 10 12 9 8 6 5 5
14 13 10 10 11 12 14 6 2 3 4 8 5 2 2 2 4 3 5 4 4 6 4 2 2 5 4 2 5 3 2 2 1 4 5 2 5 14 15 12 9 11 14 16
14 13 11 9 14 18 11 11 7 2 3 4 3 3 7 7 11 4 8 7 3 4 1 2 5 5 9 5 1 1 1 1 2 4 4 7 6 7 10 3 4 2 5 5
15 14 12 11 13 20 19 13 8 5 3 2 3 9 12 8 11 5 7 6 3 4 4 8 8 8 8 7 7 7 5 4 3 3 3 3 6 11 11 6 5 16 15 6
17 16 15 14 14 19 23 20 12 6 2 6 6 7 4 9 13 6 5 8 5 6 5 3 3 3 3 4 8 7 5 4 1 2 3 8 9 4 3 10 8 6 7 11
18 17 17 17 17 18 24 24 20 8 2 5 12 5 6 3 3 6 3 7 8 4 3 3 2 2 1 3 5 3 5 3 3 1 2 3 4 3 15 11 3 2 8 10
18 18 18 18 20 19 24 22 25 18 5 12 9 1 1 3 2 1 4 9 7 7 2 0 2 3 2 2 2 1 3 1 7 6 6 6 4 11 13 4 3 9 10 14
20 19 19 19 19 22 24 29 20 29 9 15 4 8 14 7 1 1 6 4 3 3 2 1 2 2 2 2 3 2 4 4 3 3 4 7 15 4 1 4 16 15 17 18
18 15 15 18 19 24 26 25 26 22 17 7 3 17 19 17 8 2 3 1 3 4 2 2 1 2 3 1 2 4 1 2 2 5 3 8 19 15 18 18 20 20 19 17
17 15 12 13 14 20 27 29 19 26 16 19 24 27 17 22 26 16 6 2 1 5 6 4 2 2 1 1 3 3 1 3 3 3 7 9 14 15 19 17 16 16 16 16
21 19 15 13 14 16 21 32 29 25 6 3 9 11 11 19 22 21 24 20 7 2 3 3 2 2 1 2 3 2 3 7 7 2 6 6 18 14 12 15 11 12 10 13
25 23 18 17 16 16 19 27 34 28 18 4 5 10 17 8 12 29 18 16 18 5 2 1 3 4 3 3 3 3 6 4 3 3 11 6 8 11 10 14 13 13 12 10
24 24 24 23 19 17 17 10 32 27 32 3 2 5 3 5 19 13 30 18 11 6 3 2 4 5 3 2 2 6 11 12 17 5 12 16 14 17 14 13 11 13 12 11
28 29 28 28 25 28 25 6 8 35 31 4 2 4 1 3 13 12 13 25 16 10 4 4 4 4 3 2 2 6 8 11 15 13 1 9 16 9 10 10 10 10 10 11
29 29 30 31 28 27 29 25 8 34 22 6 2 3 1 9 5 5 8 11 14 5 4 3 4 1 3 2 7 8 7 6 12 13 11 7 4 4 7 7 7 9 10 9
23 22 23 22 23 15 20 19 23 28 8 9 5 4 3 8 4 5 5 7 2 5 3 2 0 2 3 4 7 7 9 7 8 8 7 7 6 6 7 8 8 8 8 8
22 27 14 7 19 29 31 18 13 8 6 6 3 5 4 7 5 3 4 4 2 3 4 7 3 2 9 8 7 5 6 8 7 1 6 8 6 7 8 9 8 6 5 4
24 8 6 41 40 21 5 6 5 5 2 7 7 12 4 7 3 4 6 3 3 3 3 3 2 3 3 5 6 5 4 4 4 4 3 2 1 2 4 6 6 6 5 4
13 28 29 21 7 4 4 3 4 3 5 6 6 6 5 6 7 3 5 3 3 2 3 3 2 3 9 6 4 4 4 4 5 4 4 3 2 1 1 2 3 5 5 4
32 9 5 3 1 4 6 6 4 3 7 9 7 3 5 4 4 3 2 3 2 5 3 2 1 10 7 5 3 4 4 4 4 6 5 3 4 4 5 7 7 7 8 8
4 4 4 2 2 1 3 2 4 4 9 18 14 7 4 2 3 1 3 2 2 3 1 3 2 11 8 5 4 3 5 6 7 9 9 10 10 10 10 9 8 6 7 7
5 5 3 2 1 2 5 8 7 7 19 16 9 6 4 2 3 2 2 3 1 2 3 2 12 11 8 6 5 5 7 7 8 9 8 10 9 9 11 10 7 6 6 5
5 7 4 3 5 4 6 8 6 9 13 9 5 3 3 2 2 3 2 3 4 3 3 17 15 11 9 8 7 7 9 9 9 9 9 9 8 7 8 7 6 5 5 6
4 4 9 9 9 6 5 5 3 6 3 2 3 4 2 3 3 2 0 3 3 11 19 15 11 11 10 9 8 7 7 8 8 9 9 8 7 6 5 4 5 5 6 7

GFSNW_850_spd_096.txt.gz
Wind_Speed
10 12 12 12 12 11 10 5 3 5 4 4 3 2 4 3 13 13 3 4 5 5 9 5 4 4 5 5 3 4 2 3 2 3 4 5 3 3 1 3 3 3 4 5
10 11 11 10 10 8 6 3 5 5 2 1 2 6 7 7 10 9 4 5 4 7 6 4 6 5 5 14 5 3 2 2 3 3 3 5 3 2 2 3 3 6 2 5
11 10 9 8 13 7 4 1 3 3 1 5 5 4 5 5 11 12 1 5 8 8 8 8 6 2 2 1 3 11 6 3 4 2 3 2 3 3 6 7 3 4 7 11
11 9 8 8 8 7 5 1 2 1 3 2 4 5 5 9 7 9 3 1 8 8 4 4 6 7 6 8 8 5 4 3 2 1 4 3 6 9 9 11 12 7 6 14
11 8 7 6 5 9 10 4 2 2 6 10 4 7 9 11 8 4 2 5 5 9 4 1 4 5 6 4 7 4 4 2 2 2 5 2 5 9 12 15 15 13 13 15
11 8 7 6 8 13 9 9 6 3 5 3 2 1 5 9 14 8 10 7 3 5 6 6 4 2 2 1 2 2 1 3 2 2 2 6 7 4 5 6 4 2 6 7
12 10 9 8 10 12 16 8 5 4 3 2 3 6 7 9 13 4 11 12 4 7 13 11 7 5 6 4 5 4 2 2 2 2 3 2 6 10 5 4 4 7 10 13
13 12 10 11 12 13 13 15 9 4 2 5 7 7 5 10 19 4 4 8 11 14 8 4 2 3 3 3 2 3 4 3 1 1 1 6 8 3 4 4 8 4 4 10
15 15 15 14 14 14 20 19 16 7 1 4 8 4 7 3 4 6 3 8 12 9 3 3 3 1 0 3 3 8 5 4 2 1 0 3 5 4 15 6 3 14 5 8
18 18 16 15 16 16 18 22 21 15 3 10 8 1 2 2 2 3 5 10 9 12 3 3 2 2 3 1 1 1 3 3 3 2 4 5 4 11 12 2 4 12 14 3
19 17 16 17 17 17 20 24 21 20 8 16 7 7 13 8 1 2 7 4 4 4 4 2 2 1 2 3 2 1 2 3 3 2 3 6 14 4 4 4 16 17 20 19
18 18 18 20 18 19 22 24 24 20 15 8 5 10 20 17 5 2 5 1 3 6 3 2 2 2 3 3 2 5 2 2 2 5 2 8 12 12 11 13 13 17 22 18
18 16 16 15 16 17 22 27 19 24 14 18 22 23 14 18 22 16 5 2 2 4 9 3 2 1 0 2 2 2 3 7 3 5 5 9 11 13 15 15 18 17 17 14
15 17 16 15 13 13 16 31 27 21 4 3 7 7 10 7 20 16 22 11 1 5 5 2 2 2 1 1 3 1 3 8 5 2 6 6 19 14 12 14 15 16 16 15
18 18 19 17 11 11 11 19 28 27 16 3 5 12 5 10 6 22 14 14 14 8 3 1 2 4 3 0 1 2 4 4 3 3 12 5 10 12 12 16 16 16 16 14
17 20 21 21 14 11 13 7 28 22 27 4 2 4 3 2 13 8 24 12 10 7 4 3 3 4 3 2 2 4 5 7 12 4 5 11 13 14 14 15 13 15 15 15
21 19 20 21 19 19 17 4 3 29 27 4 2 4 1 0 7 9 12 18 8 4 3 4 4 1 2 2 2 4 6 7 9 11 2 3 15 9 11 11 11 12 11 12
25 23 22 22 19 19 22 24 13 24 21 6 2 3 0 7 5 4 6 6 11 5 4 3 2 2 2 1 4 4 5 3 9 11 10 5 3 5 9 9 9 10 12 11
25 24 23 22 22 20 18 22 15 16 9 6 5 4 3 9 3 5 4 5 1 3 2 2 1 1 2 1 5 4 6 5 7 4 6 6 7 8 10 10 9 9 9 9
28 23 15 9 15 22 25 19 16 10 8 6 4 4 3 8 5 2 4 2 2 3 4 7 2 1 5 5 5 2 3 6 7 3 6 7 7 8 10 11 9 8 6 5
27 13 7 23 46 22 6 7 5 6 3 8 6 9 5 7 3 3 5 3 3 3 3 3 2 2 4 6 4 2 4 6 6 4 2 4 4 5 6 7 8 8 8 8
24 18 33 20 6 5 4 4 4 4 5 9 7 8 6 8 6 3 5 4 4 3 4 3 2 1 11 7 3 1 2 3 3 2 2 4 6 6 5 7 9 10 10 10
38 17 6 4 2 4 5 6 3 3 8 11 12 5 7 5 7 3 3 5 2 5 3 2 1 11 9 6 3 2 2 2 3 4 4 3 3 4 7 9 11 10 10 11
5 4 4 1 1 3 4 3 4 6 10 20 19 7 4 4 3 1 3 2 1 2 0 4 3 13 10 6 4 3 4 5 6 7 8 8 8 8 10 10 11 9 9 10
5 4 2 1 2 1 3 10 10 10 21 23 9 5 3 1 2 1 3 2 2 3 3 3 14 14 10 7 6 6 7 7 8 9 9 11 10 9 10 10 9 8 9 8
5 6 3 4 3 2 5 12 9 11 21 11 4 3 3 0 3 2 3 4 4 3 2 14 18 14 11 9 9 9 9 9 9 10 9 9 8 7 7 7 6 6 7 7
4 4 8 7 9 5 4 6 6 12 9 2 2 3 3 3 3 0 1 4 3 12 21 19 14 14 13 11 11 10 10 10 9 9 9 8 7 6 6 5 6 6 8 8

GFSNW_850_spd_102.txt.gz
Wind_Speed
5 2 1 2 4 7 8 3 1 9 8 2 3 6 11 18 12 11 8 8 11 13 15 7 8 7 5 0 11 10 1 7 11 9 4 4 3 5 4 3 5 2 0 3
6 4 1 1 3 7 4 2 2 5 6 4 7 10 9 7 12 12 7 6 9 15 5 5 3 4 11 6 5 3 5 7 8 8 6 7 6 6 6 4 2 3 2 3
8 6 3 2 3 6 3 2 1 1 2 1 7 10 10 15 15 11 13 9 11 14 3 4 6 6 14 16 11 17 2 3 4 6 8 9 8 8 6 3 3 1 7 13
9 8 5 4 1 2 3 3 2 1 2 1 8 8 10 15 13 9 10 3 14 13 8 11 9 12 8 18 19 10 6 8 11 11 10 8 8 7 5 2 5 4 10 14
11 10 7 5 4 2 2 2 1 1 3 6 6 4 7 13 12 5 12 16 19 12 13 12 13 13 9 6 1 4 5 2 7 9 7 5 3 1 4 3 4 6 8 9
9 11 10 8 5 5 2 3 1 2 1 4 4 3 7 9 14 6 13 17 14 13 17 24 17 13 12 6 7 7 2 3 2 4 1 1 3 7 6 2 5 7 9 12
10 12 12 9 8 6 4 3 2 1 1 3 5 10 11 10 11 11 18 16 13 16 28 20 4 4 1 3 7 3 2 4 2 3 3 3 6 6 6 4 11 16 15 8
11 12 13 10 10 10 9 6 2 1 3 5 3 9 8 10 10 6 10 13 16 21 15 5 2 3 2 5 13 5 4 2 3 1 4 6 8 8 9 8 7 16 17 4
14 13 15 11 10 11 14 9 9 2 5 1 4 8 6 5 8 6 5 15 12 16 3 3 5 4 4 3 3 6 4 4 2 0 2 3 7 11 12 8 2 15 15 11
10 13 18 13 13 11 12 12 13 8 4 4 3 4 6 4 4 4 5 14 11 14 6 4 4 4 4 2 3 5 3 3 4 2 3 5 11 16 18 4 6 12 13 14
14 16 17 16 15 14 13 14 13 10 4 10 10 10 10 7 6 4 12 5 6 6 4 4 4 4 5 3 6 4 4 3 2 1 1 2 21 8 6 5 12 11 12 12
16 15 16 19 18 15 12 18 14 14 13 7 8 14 19 16 11 8 3 5 4 5 3 3 3 2 3 4 2 7 2 5 4 5 3 7 16 14 11 12 10 13 12 10
17 14 16 22 19 14 14 16 20 18 14 17 13 7 8 10 14 13 5 1 1 3 5 3 2 3 3 2 3 3 3 9 2 4 6 10 12 13 13 12 13 11 11 10
17 15 16 22 23 19 16 18 19 21 4 3 3 3 3 6 7 16 16 5 1 3 7 2 2 3 3 2 4 3 4 6 4 4 8 9 13 12 10 11 11 11 11 11
14 17 19 16 15 16 19 22 20 22 12 2 2 9 6 3 4 7 14 13 11 8 4 3 2 3 3 0 2 1 5 3 2 2 4 8 7 8 8 10 11 10 9 9
13 18 17 16 8 18 16 10 21 21 23 2 2 2 1 3 7 6 11 7 6 6 4 4 3 2 3 2 1 3 5 6 6 2 7 11 8 7 7 8 8 8 8 9
15 17 17 14 9 19 15 5 3 20 19 3 3 3 1 3 6 4 8 8 5 5 3 2 5 2 3 2 2 9 6 6 6 5 7 6 5 4 5 5 6 7 8 9
20 17 19 11 9 18 18 8 7 22 18 4 2 2 4 7 4 4 6 7 7 5 3 2 4 2 2 3 7 7 7 6 5 6 5 5 4 5 5 4 3 4 6 7
20 16 10 8 11 9 13 16 8 2 9 3 4 3 3 7 3 3 3 5 3 3 4 4 3 3 4 2 9 7 5 4 3 4 5 5 6 5 5 5 5 5 5 6
25 12 7 5 11 13 17 15 15 8 7 6 4 4 3 7 5 4 4 4 3 3 4 2 3 2 5 5 7 7 5 4 2 6 2 2 3 3 5 5 6 6 5 5
18 9 6 12 29 16 7 5 6 7 5 7 7 14 6 8 4 3 5 2 1 3 3 3 4 3 6 9 8 7 6 5 6 7 6 5 4 4 4 6 7 7 7 7
13 7 15 24 7 5 5 5 4 6 6 12 9 9 7 7 4 4 5 3 2 4 7 3 3 4 10 11 9 7 7 7 8 8 8 8 7 7 7 8 8 9 9 8
13 10 6 7 6 6 7 10 5 6 10 12 15 9 8 5 5 3 4 5 4 0 3 3 3 11 12 11 10 9 8 8 9 9 9 10 10 10 9 10 10 9 8 8
7 8 7 6 5 7 5 7 4 6 11 23 21 11 5 4 5 2 3 3 2 3 3 2 5 14 14 10 9 10 9 9 10 11 11 11 11 12 11 10 10 8 7 7
7 4 6 5 2 1 5 8 9 8 23 27 14 6 4 3 3 3 1 4 4 4 1 3 14 16 14 12 11 12 12 12 12 13 13 13 11 10 9 8 7 7 7 8
3 3 2 5 7 5 8 10 11 17 25 21 5 4 4 3 3 5 6 3 4 3 4 14 18 16 14 14 14 14 14 13 13 12 11 10 9 7 5 5 5 5 5 6
4 2 2 1 6 7 6 10 12 25 20 3 4 6 3 4 3 4 3 1 3 11 16 16 15 16 16 16 15 14 13 12 11 10 9 7 6 4 3 2 1 2 4 5

GFSNW_850_spd_105.txt.gz
Wind_Speed
10 9 6 4 3 3 5 2 1 5 4 3 2 5 11 10 13 17 10 10 14 12 17 9 6 5 11 7 13 13 11 4 12 19 14 9 14 11 10 5 5 1 4 4
11 10 6 6 3 2 1 2 1 2 4 3 5 9 8 12 17 14 7 8 6 11 7 4 7 3 13 3 3 4 6 5 10 6 9 6 10 7 4 3 2 5 3 3
11 11 8 7 3 1 4 1 0 1 1 0 9 9 8 15 10 6 16 10 7 16 6 8 10 8 15 16 9 13 2 5 8 6 12 14 8 10 7 3 3 1 5 9
10 13 10 8 5 4 5 1 2 1 0 2 7 8 9 13 12 10 18 5 20 16 8 13 15 14 8 13 22 8 5 6 8 5 11 12 11 10 6 4 2 3 9 10
12 15 12 10 7 7 2 3 3 4 2 4 6 1 7 11 13 5 13 18 21 17 18 18 19 15 11 6 11 10 12 5 8 12 10 10 10 6 2 2 3 6 8 10
11 16 13 11 9 8 3 2 1 4 2 2 4 3 7 12 12 6 15 17 16 14 22 30 21 13 8 7 4 5 7 4 4 4 5 7 7 9 6 5 19 12 8 12
10 16 15 13 11 10 1 3 2 2 3 4 4 6 8 10 11 10 15 17 15 19 30 21 2 3 2 6 5 6 4 2 2 4 4 4 7 10 7 16 18 15 14 10
12 15 16 13 12 12 6 3 1 4 4 3 2 7 7 9 7 9 9 16 18 22 18 5 2 4 4 8 10 7 7 4 2 1 4 13 8 9 9 8 10 16 14 13
12 16 17 15 13 14 10 5 4 3 5 3 4 7 3 6 8 6 8 17 12 18 5 4 5 4 8 5 5 6 3 3 1 2 4 3 7 16 17 8 4 15 15 13
13 17 17 16 13 12 11 11 7 2 3 5 5 8 7 8 8 7 9 20 10 16 7 5 5 4 5 4 5 6 5 5 6 2 2 7 11 23 25 4 4 11 13 14
16 15 16 18 15 11 10 9 7 4 4 9 10 8 7 7 8 6 14 9 9 7 7 5 4 4 6 4 7 6 7 6 5 3 2 4 24 9 6 5 9 11 12 12
16 15 19 20 16 15 10 12 11 10 7 8 10 11 14 14 11 9 5 2 6 6 3 5 3 3 3 5 1 10 3 5 4 6 3 4 10 11 10 9 8 11 11 10
18 16 15 20 20 17 16 12 11 12 13 18 9 2 2 6 9 9 7 2 3 4 7 3 3 4 4 4 5 4 3 9 3 5 5 8 10 11 11 12 11 10 10 10
19 17 13 22 22 19 13 13 12 12 2 4 2 2 1 3 3 9 12 6 4 6 8 2 3 3 6 3 4 4 5 5 4 5 8 9 10 10 9 10 11 10 10 11
18 16 14 18 22 21 15 14 16 16 8 3 3 4 4 2 2 4 9 9 8 8 5 2 3 6 5 4 2 2 7 3 2 3 3 9 7 7 7 8 10 10 9 9
17 15 19 20 20 19 15 12 20 21 18 3 3 1 2 2 3 3 6 7 6 8 2 5 5 2 4 3 2 4 5 5 5 4 8 11 8 6 6 7 7 8 9 9
18 10 20 19 23 15 23 5 5 18 22 3 3 3 2 2 3 3 4 6 5 6 4 5 6 2 2 3 3 7 5 6 7 6 7 6 4 3 4 4 5 6 7 8
14 16 21 17 7 10 20 9 6 21 15 5 3 2 4 5 3 3 3 4 5 5 5 3 8 3 3 3 8 7 6 5 5 6 5 6 4 3 4 3 3 3 5 6
10 17 14 11 10 7 13 13 16 22 6 3 4 3 3 7 3 2 4 3 3 4 2 4 4 4 4 4 7 8 8 4 5 4 4 6 5 4 4 4 4 3 4 5
13 14 8 6 10 13 19 17 14 8 6 5 4 7 3 7 6 7 4 5 3 3 5 1 3 5 6 4 6 8 6 4 4 5 4 3 2 3 4 5 5 4 4 4
17 9 7 9 23 16 7 5 5 6 4 7 8 15 6 8 4 4 5 2 2 3 2 3 3 3 7 8 8 7 5 5 5 5 5 4 4 4 5 6 6 6 5 5
16 9 10 18 7 4 4 5 6 6 6 11 8 10 9 6 5 4 3 2 2 4 4 3 3 4 9 11 9 7 6 7 8 7 8 8 8 8 8 7 7 7 6 6
13 7 7 6 6 6 7 10 5 5 8 10 12 7 6 5 4 1 3 4 4 2 3 3 3 10 12 11 10 9 8 9 9 9 9 10 10 10 8 8 7 6 5 4
4 4 6 4 6 6 5 7 7 6 13 20 19 8 5 3 5 2 4 3 2 3 4 1 5 13 14 12 11 11 10 10 10 10 10 10 9 9 8 7 6 4 3 4
4 6 6 8 2 2 5 6 10 12 18 25 16 6 5 3 3 4 2 3 4 4 1 3 14 17 15 13 11 11 11 12 11 10 11 10 9 8 7 5 4 4 4 5
4 5 3 0 7 5 7 9 9 16 23 22 8 4 4 4 3 5 7 3 4 2 4 13 18 17 14 13 12 12 13 11 11 11 10 9 7 5 3 3 3 3 5 6
5 5 5 2 1 9 8 14 10 22 24 4 4 6 5 4 4 4 3 1 3 11 14 15 16 16 16 16 15 15 13 12 10 9 7 6 4 2 2 3 2 2 6 6

GFSNW_850_spd_108.txt.gz
Wind_Speed
14 12 9 8 7 5 5 1 2 2 2 3 6 3 10 12 15 13 10 8 6 6 16 6 6 8 13 5 19 11 11 6 7 15 9 11 12 7 15 2 6 4 3 3
14 12 10 9 7 4 3 3 2 2 1 3 4 8 8 8 9 9 11 5 5 14 5 7 8 9 16 29 14 7 4 3 2 4 7 5 7 17 14 8 3 3 1 4
13 13 10 10 7 6 5 2 1 1 5 3 7 8 8 9 5 6 15 6 8 11 4 14 5 10 13 23 20 20 9 3 4 2 5 8 7 10 7 3 2 5 12 8
13 14 12 10 9 9 5 2 3 1 2 3 4 9 8 11 10 7 15 7 18 15 8 11 15 8 12 11 24 13 5 9 3 9 17 12 7 7 6 6 3 4 12 18
12 14 14 12 10 11 3 4 3 5 7 4 7 2 6 10 12 9 12 15 17 11 14 16 18 11 8 7 12 7 10 1 8 9 12 21 10 4 10 15 17 18 13 11
12 15 15 13 12 12 1 1 2 4 2 4 4 1 8 11 11 8 15 15 14 12 19 27 26 12 10 4 6 8 10 5 6 10 12 11 11 16 17 19 19 12 11 9
10 15 16 14 14 14 3 4 5 5 4 4 3 6 11 11 10 8 14 16 14 17 27 22 6 1 4 8 7 3 3 7 3 2 1 4 6 18 21 22 20 17 14 12
10 15 17 15 15 13 6 4 3 5 3 9 4 6 9 13 8 9 8 16 19 20 20 5 4 2 6 8 7 6 4 4 2 2 2 10 12 16 14 10 14 18 15 15
13 12 16 16 14 15 11 2 4 1 6 5 6 9 9 6 10 8 12 20 14 21 5 4 7 4 7 5 6 5 6 7 3 2 4 1 6 20 24 14 7 16 17 15
11 12 16 16 14 14 12 5 8 0 3 3 7 8 7 9 9 8 13 22 13 19 6 4 5 4 10 6 8 8 7 5 7 4 3 5 15 23 20 3 4 10 15 16
11 11 15 16 13 12 12 5 4 2 3 9 7 7 6 10 12 7 16 9 10 7 7 5 4 4 5 4 13 9 7 5 5 6 5 4 29 7 6 2 7 10 12 13
12 13 18 18 14 13 10 4 4 7 5 8 12 12 13 11 10 11 9 5 6 6 4 5 4 3 4 9 1 11 5 4 3 6 3 5 11 12 11 11 11 12 12 13
14 13 12 16 17 13 12 7 7 4 5 12 4 2 2 2 6 7 8 7 8 4 6 4 2 4 5 5 5 4 5 12 3 6 6 9 10 10 11 11 11 10 11 11
15 14 13 14 18 15 12 9 5 7 3 4 3 1 1 1 2 5 7 8 6 7 9 3 2 3 7 4 4 5 5 6 3 5 9 11 10 9 8 9 10 10 10 12
15 14 13 10 20 18 13 8 8 9 6 4 7 7 2 1 1 2 3 5 6 8 6 2 3 6 5 5 1 5 9 4 3 2 5 8 6 6 7 8 10 10 11 11
13 14 14 9 16 17 12 4 14 13 13 3 3 4 4 1 1 1 2 3 5 8 7 5 6 5 4 3 3 4 7 7 8 5 4 10 7 5 5 7 8 10 11 11
15 12 9 13 15 19 14 4 0 4 16 3 4 2 1 1 2 1 1 2 3 4 5 5 9 5 3 1 2 8 7 6 7 7 8 6 2 3 3 4 6 7 9 11
14 13 8 16 14 19 23 19 6 9 14 3 3 1 3 4 2 2 1 2 3 4 4 5 8 3 2 2 8 9 8 7 6 5 5 6 4 4 5 4 4 6 9 10
12 9 13 13 9 6 11 17 18 19 6 3 4 2 2 5 3 2 2 3 2 4 2 3 4 3 3 4 10 10 7 5 9 6 5 6 6 6 7 7 8 8 8 9
10 15 9 5 6 12 17 15 12 11 6 4 4 8 3 7 5 4 3 3 2 2 5 1 2 2 6 3 7 11 9 5 6 5 5 4 5 6 8 9 8 8 8 8
14 8 5 5 18 18 6 6 6 6 4 7 7 12 6 7 4 3 5 2 2 3 2 2 3 3 8 8 10 9 7 5 6 8 8 7 8 7 7 8 8 8 6 6
13 8 7 16 7 5 4 5 6 6 5 12 6 11 13 6 5 4 2 2 2 4 3 2 2 3 10 10 9 8 8 8 9 9 10 11 11 10 10 8 7 6 6 7
17 7 7 6 7 6 6 9 4 5 5 8 10 4 5 4 3 0 1 2 4 3 2 3 3 12 11 11 11 10 9 10 11 12 12 13 13 11 9 8 6 5 5 5
6 6 6 4 5 5 4 6 6 7 14 16 15 7 3 2 3 2 3 3 3 3 3 0 6 14 15 13 12 12 12 13 13 13 11 9 8 9 7 6 4 3 3 3
4 3 4 6 2 2 3 5 12 13 19 22 13 6 3 2 3 3 3 3 4 4 1 3 17 19 18 16 13 12 13 12 10 10 10 9 8 7 5 3 2 1 2 4
3 4 3 4 3 2 3 8 10 16 21 20 7 4 4 4 3 5 6 3 4 2 4 17 21 19 16 15 13 13 13 11 11 11 10 8 6 4 2 2 2 3 4 7
3 3 4 7 7 5 8 8 10 16 24 4 4 6 6 4 4 4 4 1 3 14 15 17 18 19 18 17 16 16 14 12 11 10 8 7 4 3 5 6 8 8 10 11

GFSNW_850_spd_114.txt.gz
Wind_Speed
19 18 17 16 16 13 13 8 2 6 6 0 2 2 3 2 2 8 4 2 4 5 4 5 4 5 7 15 13 7 3 2 7 6 10 2 2 2 4 4 1 3 3 3
17 18 18 16 16 14 13 7 4 6 5 2 2 4 3 2 2 1 2 3 6 4 2 2 5 7 12 20 10 4 2 1 4 1 4 5 3 2 2 8 2 1 3 4
18 19 19 17 15 14 10 4 2 3 6 3 4 1 2 4 3 1 5 5 3 4 3 5 5 4 8 25 9 17 5 3 5 3 4 2 4 8 5 6 4 6 8 6
18 19 18 16 15 13 9 3 2 4 2 2 3 2 0 3 3 3 6 4 3 2 3 6 3 4 11 9 7 7 3 6 8 2 3 13 10 8 10 12 9 4 8 8
19 18 17 15 15 15 6 4 3 3 3 11 4 1 2 1 4 3 6 2 8 2 3 5 9 8 3 6 9 6 6 3 7 12 17 22 20 24 20 16 13 13 13 9
15 17 16 16 16 14 4 2 2 2 1 3 4 4 3 2 3 7 6 3 4 6 5 19 29 23 18 15 5 5 5 3 3 2 7 1 15 16 21 20 18 7 5 6
13 14 17 17 16 12 7 5 3 1 1 2 4 5 3 3 4 3 7 12 5 11 32 27 10 11 9 6 5 7 6 6 2 2 7 6 4 9 19 22 16 14 10 10
13 11 18 18 16 14 10 6 3 2 2 3 7 8 3 6 10 5 3 14 13 24 14 5 5 4 6 5 1 10 3 4 3 1 6 7 8 9 6 6 11 11 10 4
13 9 19 18 15 15 9 6 5 3 5 3 6 4 5 2 4 6 4 17 12 19 3 3 3 3 4 5 10 8 7 11 4 1 4 3 4 17 14 7 8 13 14 14
11 12 19 18 16 15 10 7 5 3 4 4 5 3 0 2 2 1 4 12 9 15 4 4 3 3 3 4 6 7 4 4 6 5 4 4 13 20 4 3 3 10 12 13
12 13 17 17 16 16 11 7 8 5 3 1 1 0 1 1 3 2 6 4 6 6 5 3 2 2 3 2 4 4 6 4 4 3 4 3 26 5 5 6 12 11 11 10
14 11 17 17 15 16 15 8 8 5 2 2 3 6 8 8 1 1 4 1 3 3 3 2 2 2 3 4 3 6 4 3 2 5 3 6 12 17 16 14 12 12 12 10
14 13 17 18 16 15 14 11 7 5 1 1 2 3 4 4 4 3 2 2 4 2 4 2 1 1 2 3 2 3 3 2 3 3 4 9 10 12 13 10 11 12 14 14
15 14 17 17 16 14 15 10 6 4 4 2 2 3 1 2 2 3 1 2 2 5 5 2 1 1 1 1 2 3 2 4 3 4 8 11 9 9 10 13 14 13 13 13
17 16 15 16 16 13 12 8 4 4 3 3 2 2 3 2 4 3 1 1 2 3 3 2 1 2 3 2 2 2 4 2 0 2 12 8 7 8 8 11 12 13 10 11
19 16 13 12 17 15 11 4 6 4 2 2 2 0 5 2 3 2 1 3 4 2 1 2 3 1 1 2 1 3 5 4 4 5 8 13 13 10 8 11 9 8 9 9
17 15 12 9 15 18 7 4 5 11 5 1 3 2 3 5 2 1 0 2 2 2 2 2 2 2 1 2 2 9 8 8 11 11 14 11 7 8 9 11 10 7 7 6
17 14 12 12 14 19 9 10 10 15 4 1 1 3 1 4 2 1 1 1 2 2 2 2 1 3 1 2 11 13 9 11 12 8 4 15 14 10 15 12 9 5 6 6
19 14 13 14 11 11 11 4 13 11 2 1 2 2 3 5 2 2 1 1 1 1 1 2 1 2 0 3 17 18 18 15 13 9 10 14 14 13 12 9 5 3 6 4
19 17 7 5 11 16 13 3 5 1 3 3 3 3 1 5 3 2 1 1 2 0 4 1 2 1 2 4 14 14 18 13 15 21 18 17 13 10 8 5 4 4 5 6
20 8 4 13 20 17 5 5 4 4 3 6 6 9 3 7 3 2 4 2 1 1 3 3 1 2 2 15 15 14 17 17 15 11 14 11 6 7 8 9 7 7 6 5
10 8 13 17 5 3 3 3 4 4 4 8 8 7 8 6 4 2 2 1 2 3 1 3 3 1 17 20 18 16 14 15 13 11 16 14 9 7 8 9 8 7 6 5
10 4 5 4 3 4 4 6 3 2 6 10 9 3 8 4 2 3 1 1 3 3 1 3 2 14 20 21 19 16 12 10 10 13 13 13 11 9 7 9 9 7 5 3
4 3 4 4 4 4 4 4 4 8 7 19 19 6 4 3 3 1 3 4 1 2 2 4 3 23 25 22 18 16 14 11 12 14 14 12 11 12 11 8 6 4 2 1
2 1 3 4 6 4 1 2 3 6 16 25 12 6 4 1 3 2 3 0 3 4 4 3 20 29 26 23 19 15 14 14 15 15 14 13 12 10 8 6 4 2 0 3
2 1 2 3 2 3 2 3 3 15 25 17 5 3 3 2 3 3 5 3 5 4 2 10 24 27 24 22 19 15 16 15 15 15 14 13 12 9 7 5 4 2 1 1
1 2 4 4 3 1 1 1 3 15 23 2 4 4 6 3 2 4 5 5 3 5 9 16 23 24 23 22 20 19 18 17 17 17 16 13 11 9 7 6 4 4 2 1

GFSNW_850_spd_117.txt.gz
Wind_Speed
27 28 28 25 25 22 21 13 2 10 7 4 3 2 4 2 3 4 3 3 4 5 2 3 3 4 5 12 16 9 3 3 4 4 11 7 3 5 4 3 3 2 3 3
25 24 25 25 24 23 18 9 6 6 8 3 0 3 0 3 2 2 3 2 5 2 3 2 4 5 10 22 10 4 3 2 6 3 2 3 3 3 4 6 2 4 0 3
23 21 24 23 23 24 14 7 3 3 3 2 4 3 1 2 0 2 3 3 2 2 1 3 4 4 8 24 8 15 1 2 6 4 4 7 5 5 9 6 4 3 5 6
22 21 22 23 23 21 11 3 2 5 2 2 3 2 2 2 1 1 1 2 2 2 2 3 4 4 8 10 4 8 3 5 11 20 16 20 16 4 10 14 9 5 5 6
22 21 21 22 22 20 6 5 5 4 5 10 5 1 4 3 2 3 3 1 5 3 4 7 7 4 2 7 7 6 3 1 3 6 11 25 23 23 18 21 15 11 10 9
22 22 21 22 21 20 6 9 9 5 1 3 4 3 4 3 2 2 4 1 2 2 8 15 27 22 17 11 6 4 3 3 2 4 5 7 14 16 16 16 16 5 6 5
21 22 21 21 21 13 14 14 9 5 1 3 4 4 3 1 0 2 3 5 1 7 27 23 7 7 12 11 7 14 6 5 2 1 2 6 2 11 10 20 15 12 12 8
19 20 20 20 19 16 15 15 7 4 2 1 5 5 3 1 3 3 1 5 10 16 11 4 5 5 4 1 5 8 6 1 2 2 5 5 4 8 6 7 9 12 8 8
17 19 20 21 20 17 14 13 9 5 9 1 2 3 2 1 2 5 2 7 9 13 3 3 3 3 4 4 8 5 6 11 3 2 3 2 4 12 11 6 5 11 11 10
16 16 21 20 21 17 14 11 9 6 6 3 4 2 2 1 1 0 4 8 8 11 3 3 3 2 4 3 5 5 5 4 6 4 3 3 11 14 4 1 1 7 9 12
14 17 21 20 20 18 15 11 8 7 4 7 5 3 2 2 2 2 4 3 4 4 4 2 2 2 2 1 2 4 4 4 4 3 4 3 20 3 3 7 8 9 9 10
14 19 21 20 20 18 15 11 8 8 4 4 4 1 4 5 1 1 3 3 1 2 3 1 1 2 2 2 3 5 4 3 2 5 3 5 10 14 13 11 11 9 11 14
15 18 20 20 20 18 15 11 9 7 5 5 5 3 5 3 3 4 1 2 3 3 2 2 1 2 1 2 1 2 2 2 3 2 4 9 9 12 10 11 14 13 13 14
15 20 21 19 17 16 13 11 9 7 5 4 3 4 4 2 2 2 1 1 1 4 3 0 0 1 1 1 1 2 2 4 3 4 8 10 9 10 12 12 10 11 11 9
16 19 20 19 17 16 16 9 7 6 3 4 5 6 4 3 5 4 3 3 4 2 1 2 1 2 1 2 2 2 4 1 1 2 12 8 8 9 7 7 8 7 6 8
17 18 19 19 17 17 16 5 5 6 5 2 2 4 7 4 4 3 2 3 2 1 1 2 3 2 0 2 1 1 3 1 3 4 8 8 14 9 6 8 7 5 6 6
19 17 16 18 18 16 6 5 6 10 5 2 2 1 5 7 3 1 0 1 1 1 1 2 2 1 1 2 2 9 7 6 13 13 16 12 12 9 11 7 7 5 6 6
20 17 13 15 19 14 8 8 7 11 4 2 2 1 2 5 3 2 1 1 1 1 1 2 2 1 1 1 5 14 10 12 13 12 5 12 13 14 15 10 7 5 5 6
20 16 15 15 16 10 9 14 15 8 3 2 2 3 3 5 4 2 1 1 2 0 0 2 1 2 2 2 17 18 16 13 13 10 14 15 12 16 14 10 5 2 3 3
20 19 6 5 10 12 12 6 3 1 1 1 2 2 2 4 3 1 1 0 1 1 3 1 2 2 3 3 16 15 17 14 18 17 14 15 15 13 11 8 5 4 5 5
22 6 4 20 21 8 2 3 2 3 2 5 5 8 3 5 3 2 3 2 1 1 3 2 2 3 4 10 14 16 17 12 12 9 9 11 7 10 11 11 9 8 6 5
7 12 19 18 6 3 2 3 3 4 4 7 8 7 6 5 3 3 2 2 2 2 3 1 3 3 11 15 16 17 17 16 14 12 12 12 9 8 10 10 9 7 6 4
14 7 7 6 4 3 6 5 3 3 6 10 9 3 7 4 2 4 1 2 3 3 1 3 4 14 19 20 19 18 15 13 12 13 15 14 11 11 9 9 8 6 4 1
2 3 4 3 3 4 4 3 4 5 5 19 22 9 3 3 4 1 3 3 0 2 2 5 3 24 26 23 18 14 16 15 13 15 16 13 12 11 11 9 6 5 3 1
2 2 3 3 4 4 2 1 3 2 17 25 12 7 4 2 3 1 2 2 3 4 4 3 10 25 27 25 21 17 15 15 14 15 16 14 13 11 10 9 7 5 3 2
2 1 1 2 2 4 2 1 3 8 23 16 5 3 3 1 4 3 4 2 5 4 3 4 13 24 26 23 20 16 13 14 15 16 15 14 13 11 9 8 6 5 3 1
0 1 2 2 1 1 2 1 4 11 19 2 4 4 5 2 2 2 3 5 4 3 8 6 15 20 23 21 19 17 16 17 17 17 15 14 14 12 9 7 5 5 5 4

GFSNW_850_spd_120.txt.gz
Wind_Speed
31 39 43 38 36 37 36 13 4 18 18 4 2 4 4 7 4 5 4 4 3 5 3 1 1 3 2 8 10 10 4 4 4 11 5 5 4 5 5 3 4 2 3 3
37 36 34 37 37 38 22 9 10 11 10 4 1 2 3 3 4 3 4 3 3 2 4 2 4 3 9 13 6 3 5 3 5 7 2 1 3 2 1 2 2 3 2 3
31 32 33 34 35 30 15 9 3 4 3 4 6 5 3 4 4 4 4 3 4 3 2 2 2 3 5 12 4 13 0 2 7 5 7 8 6 6 3 3 3 4 4 5
26 28 30 31 33 23 9 4 3 6 3 1 5 4 3 5 4 3 3 2 3 4 0 3 3 4 6 4 3 7 1 2 2 5 17 14 17 11 10 12 7 4 4 5
22 25 28 27 27 19 4 6 5 6 5 16 7 2 2 5 3 4 0 4 2 5 5 6 4 3 2 3 6 4 1 3 3 3 3 13 20 21 17 16 13 11 11 7
20 24 23 24 24 16 5 9 14 10 3 3 4 4 5 5 6 3 4 3 1 2 7 13 19 18 14 9 4 3 2 4 3 3 11 5 8 15 15 15 16 5 5 4
21 21 23 24 21 15 10 18 10 7 2 4 4 5 3 4 3 5 3 2 1 3 19 20 3 6 11 13 11 11 4 3 2 3 2 5 1 7 9 18 13 10 9 6
19 20 23 19 16 13 14 17 8 6 3 5 5 7 5 6 4 2 2 1 5 13 10 4 2 3 2 2 2 4 2 3 0 2 4 3 2 6 5 5 8 10 5 5
20 20 20 20 17 16 16 15 12 10 11 1 8 5 4 3 1 2 2 1 5 8 2 3 2 1 0 3 7 3 4 10 1 1 2 2 2 9 7 9 3 10 9 7
18 20 20 20 19 16 14 14 14 14 10 5 7 4 4 4 3 1 2 5 5 8 2 2 2 1 2 2 4 5 4 3 6 4 3 3 7 13 4 2 1 9 11 14
17 21 21 21 18 15 13 15 13 11 8 9 8 7 7 5 3 3 1 3 3 4 3 2 1 1 1 2 2 3 3 4 3 2 2 1 18 3 2 6 8 9 10 10
14 21 21 21 18 15 12 14 12 13 8 9 9 6 4 4 4 4 2 3 1 1 3 1 2 1 2 1 1 3 2 2 2 4 2 3 9 13 10 7 9 8 10 10
15 21 21 20 18 15 12 13 13 14 16 13 10 8 9 5 3 2 3 3 2 2 2 2 2 3 1 2 0 2 2 2 3 3 4 6 9 10 11 9 10 8 6 6
17 20 19 18 18 15 13 14 15 11 10 5 4 8 7 6 5 5 4 4 3 2 2 2 1 2 1 1 2 2 1 3 3 4 8 11 8 11 12 12 9 8 7 4
19 20 18 17 17 14 13 12 12 11 5 5 7 11 8 8 7 6 5 4 4 2 2 2 0 0 2 1 3 2 1 3 1 3 14 6 10 13 11 10 10 7 6 7
21 21 18 18 18 18 17 6 7 10 14 6 2 6 7 6 5 5 3 4 4 2 1 0 1 0 1 2 1 3 3 1 4 5 12 8 17 14 10 11 11 9 8 6
21 21 20 19 18 18 5 5 13 11 10 5 4 4 6 8 4 3 2 1 0 0 1 0 1 1 2 2 2 9 5 4 9 15 19 15 16 10 11 9 9 7 6 6
21 21 20 18 16 13 8 8 15 11 7 5 3 1 4 7 4 2 2 1 1 1 1 0 1 0 1 1 4 13 10 12 15 13 3 10 12 16 14 10 8 6 6 6
20 18 18 17 14 6 8 13 12 8 6 4 2 5 3 7 3 3 2 1 2 0 1 1 1 1 3 4 16 18 15 13 12 9 8 11 10 14 13 10 7 4 5 5
21 23 7 6 9 22 16 5 2 2 3 3 2 4 2 5 3 2 2 1 1 1 2 1 1 3 3 7 12 17 18 14 15 16 15 15 15 16 14 11 8 6 6 7
20 4 4 20 19 6 3 3 2 2 2 4 4 5 3 4 3 2 2 2 1 1 2 2 2 3 4 8 15 16 16 14 15 10 6 11 9 14 13 12 10 9 8 6
7 12 20 15 4 3 3 2 3 2 4 7 7 7 3 5 3 4 2 2 2 2 1 1 3 3 8 14 17 19 18 14 15 12 9 12 10 10 11 11 11 10 8 5
26 7 5 5 2 2 5 6 2 3 6 10 8 3 6 4 2 5 2 3 3 2 1 3 4 5 13 18 19 20 19 16 15 14 12 13 11 10 11 12 11 8 6 4
3 3 3 4 3 2 3 2 2 4 5 18 20 6 3 3 4 1 4 3 2 3 1 4 3 14 18 19 19 19 18 18 15 14 15 15 12 12 12 10 8 6 4 2
3 2 2 3 1 2 2 1 1 2 16 24 10 6 3 3 3 1 3 4 2 5 4 3 5 10 21 23 22 18 15 16 15 14 16 15 13 12 13 12 9 6 3 2
3 3 2 2 1 4 3 2 3 9 23 15 3 3 3 1 3 3 4 4 5 4 3 5 6 11 20 23 21 16 13 13 14 15 15 15 13 12 11 9 7 5 4 3
2 3 3 3 2 3 3 5 3 17 17 2 4 4 5 3 2 1 3 4 4 2 6 7 5 9 16 19 19 17 15 14 15 16 15 15 15 13 10 8 6 5 5 4

GFSNW_850_spd_123.txt.gz
Wind_Speed
49 55 58 58 56 53 51 18 5 25 27 5 2 3 6 9 7 7 4 4 3 4 5 3 3 2 3 4 1 4 1 4 6 11 16 3 2 4 9 4 3 1 1 3
26 38 42 46 54 49 28 11 13 21 19 4 3 2 3 5 4 4 4 3 2 3 4 3 3 3 6 5 1 1 3 2 6 8 3 5 4 2 4 7 1 2 2 3
29 35 42 51 49 29 23 11 4 6 8 3 6 7 5 5 7 5 5 5 5 3 2 0 2 2 3 4 3 5 4 1 1 3 4 8 8 10 6 2 2 5 4 5
31 34 41 43 37 20 11 4 4 9 4 3 5 4 4 10 5 4 5 2 3 4 3 2 2 3 4 3 1 2 1 2 4 7 11 16 15 17 11 7 4 4 6 6
30 30 32 43 28 12 4 7 8 6 6 15 10 3 4 6 4 4 2 5 6 5 4 4 3 3 2 2 3 3 1 1 2 2 4 8 16 17 9 13 15 12 11 8
23 25 32 32 21 8 3 10 20 13 2 3 5 3 5 6 8 5 9 7 3 3 3 7 11 11 9 6 3 3 1 3 2 0 5 3 5 10 11 14 14 4 4 4
22 26 27 27 19 6 10 17 11 8 3 3 4 7 9 8 4 6 6 7 3 2 9 9 3 2 7 8 9 9 4 2 2 2 3 3 3 4 11 15 11 9 9 7
21 24 24 22 18 6 15 12 7 6 4 8 8 11 7 12 9 4 5 3 1 6 5 2 3 1 2 3 4 2 8 2 1 2 3 3 4 3 3 3 7 8 3 8
19 19 17 17 16 12 10 10 11 12 12 1 13 7 9 4 3 2 3 2 1 2 2 2 2 2 2 2 1 4 2 4 2 2 3 4 3 6 5 5 3 7 5 1
20 19 18 18 16 13 11 11 16 15 11 6 9 4 5 7 5 3 2 1 1 3 2 2 1 2 1 1 2 3 2 3 4 3 2 2 6 10 3 2 3 7 8 8
19 19 20 19 16 13 12 14 14 11 9 10 11 9 11 9 6 3 5 3 2 2 3 2 2 2 2 2 2 2 1 0 2 0 1 2 11 1 1 7 9 8 8 10
17 19 20 19 15 14 14 17 15 23 12 15 15 14 12 11 9 12 4 4 3 3 3 1 2 2 1 2 2 2 1 1 2 2 2 3 6 11 9 8 11 8 10 9
16 19 20 18 15 14 11 19 18 26 28 18 11 12 10 9 9 8 6 3 3 4 3 4 2 3 2 2 1 2 2 1 3 4 4 5 7 10 11 11 13 13 12 10
16 19 19 17 14 11 11 17 18 17 11 6 5 12 11 12 10 9 11 12 9 7 4 3 2 2 1 2 2 1 0 2 5 3 8 7 4 9 12 14 14 14 12 10
18 17 17 17 14 14 12 16 14 13 6 6 10 16 13 12 10 12 10 8 6 4 3 2 1 2 2 2 2 1 3 4 3 3 14 4 8 13 10 9 10 9 8 9
19 16 18 17 15 15 15 7 8 15 28 10 3 10 11 11 11 10 9 7 6 4 3 2 2 2 1 2 1 3 3 3 4 2 16 5 15 12 7 7 7 6 6 7
21 19 18 20 19 17 4 6 14 14 11 6 4 4 6 10 7 4 4 4 3 3 2 2 2 2 2 2 2 11 8 6 7 16 15 14 16 9 11 8 8 5 6 7
23 20 19 17 14 10 11 15 14 12 7 6 3 2 4 8 4 3 2 2 2 3 1 2 1 2 1 2 5 14 12 12 16 16 4 10 15 16 13 10 7 6 5 6
22 21 18 16 10 5 10 13 9 7 5 5 2 4 3 8 4 3 2 2 1 0 1 1 0 0 3 3 19 19 19 17 16 11 7 13 15 19 15 12 9 6 7 7
24 23 7 5 8 18 15 4 2 2 4 4 3 4 3 7 3 2 2 2 1 1 1 1 1 3 4 5 15 20 21 17 20 17 14 16 17 19 17 13 9 6 8 9
19 5 4 25 21 6 4 3 3 1 2 2 4 4 4 4 3 2 1 2 0 1 1 1 1 3 3 11 14 20 18 15 16 12 7 13 12 16 16 14 11 9 9 8
6 16 20 14 4 3 3 1 2 1 3 5 6 5 5 5 4 4 2 2 1 1 1 1 2 3 4 12 18 21 18 16 16 13 8 13 12 13 14 12 12 12 10 8
27 8 4 3 1 3 4 5 2 3 6 9 8 3 5 4 3 5 2 2 2 0 1 2 4 2 9 15 19 20 18 16 16 13 10 12 12 13 12 13 13 12 10 10
4 3 4 2 1 2 3 1 2 3 7 17 15 6 3 3 3 1 3 0 1 2 1 4 2 6 13 18 18 21 21 18 16 14 12 12 12 12 13 12 11 10 10 9
4 3 3 1 1 1 3 3 3 3 18 20 11 7 4 2 3 1 3 2 2 4 3 2 3 4 14 20 20 19 17 17 16 14 13 15 14 12 14 14 13 12 10 8
3 4 3 2 2 2 3 5 4 13 23 10 5 3 3 2 3 2 3 5 4 3 3 3 8 3 14 18 18 17 15 14 14 13 14 15 14 13 13 13 12 11 9 7
3 3 5 4 5 4 4 5 4 22 10 2 3 4 3 3 2 1 3 4 3 3 3 7 6 4 12 17 19 17 14 13 13 13 15 14 15 15 15 14 12 10 8 6

GFSNW_850_spd_129.txt.gz
Wind_Speed
31 20 26 39 56 75 59 27 6 47 51 12 5 5 10 14 19 13 5 7 7 15 13 13 13 10 9 13 10 10 5 2 4 7 5 2 4 9 11 8 8 7 6 2
9 24 42 51 76 69 42 12 16 40 40 6 10 13 11 14 23 16 12 9 8 7 6 3 2 10 7 10 10 7 9 5 5 8 8 7 3 5 8 9 7 14 6 4
38 51 62 57 44 44 35 11 6 12 17 8 18 20 19 16 21 13 12 11 11 10 4 2 7 10 9 10 6 6 4 4 5 5 4 3 5 10 13 15 6 4 4 7
40 41 35 31 33 28 25 7 7 15 7 7 17 15 18 19 15 9 14 6 11 11 5 7 5 11 10 9 8 7 3 4 1 7 8 5 3 7 10 4 3 3 7 6
34 26 18 21 28 21 17 9 11 23 26 23 18 10 16 21 13 13 14 11 17 12 11 7 12 9 12 8 10 7 6 3 5 7 7 5 6 6 2 8 10 9 12 7
27 32 22 15 9 15 9 15 18 19 16 14 13 11 18 19 12 8 10 16 15 11 10 9 11 5 4 4 7 8 7 5 6 3 11 8 5 3 6 6 7 3 4 7
26 25 20 15 14 15 12 21 17 16 11 13 13 21 23 20 16 11 15 20 11 9 9 9 7 5 6 5 5 2 6 6 3 5 9 5 6 7 7 9 7 10 13 9
24 27 15 15 14 13 16 19 14 12 13 20 17 20 18 21 12 16 18 10 10 13 10 7 8 5 5 7 8 7 5 4 4 4 7 6 8 8 7 5 4 3 8 10
20 19 15 12 13 19 19 10 10 20 13 14 21 19 24 15 14 13 8 8 8 7 5 5 7 6 8 7 5 6 6 5 4 4 5 5 10 11 5 4 6 9 10 13
19 14 12 7 7 10 9 8 13 13 10 19 24 15 19 15 13 7 13 9 5 4 6 7 6 5 2 7 8 7 8 8 8 7 6 5 7 12 9 5 5 10 10 10
20 22 10 4 4 6 8 13 16 11 18 14 10 10 13 11 12 8 17 7 3 5 7 7 4 3 5 3 3 3 5 4 4 3 4 4 7 9 4 8 15 14 13 12
16 15 11 9 8 7 10 9 16 16 13 17 17 15 12 7 4 10 18 1 18 9 6 3 3 2 2 8 4 3 3 3 3 5 3 4 4 6 12 13 15 14 16 15
16 13 12 9 9 9 13 17 20 28 29 22 14 12 11 8 8 12 8 4 5 4 2 3 0 4 5 4 2 5 3 2 2 7 5 7 8 9 11 13 14 14 14 15
17 16 13 11 10 14 24 20 15 16 13 8 8 9 10 10 8 6 4 12 7 9 6 3 3 2 4 2 2 4 4 8 6 4 7 9 9 11 13 14 14 14 13 13
18 17 14 11 14 14 20 18 19 14 5 9 15 14 10 9 11 13 12 11 11 9 5 3 2 3 3 2 0 4 8 6 5 2 16 6 16 15 16 16 15 13 14 14
18 18 15 14 16 18 11 7 13 24 29 17 4 9 9 10 11 11 10 8 6 3 2 3 2 1 4 4 4 4 5 4 2 5 19 11 19 18 15 16 15 14 13 13
20 19 17 17 17 18 4 5 17 19 16 8 7 6 6 6 6 8 8 7 4 3 4 1 2 5 4 1 2 9 8 8 9 17 16 18 19 20 17 16 15 15 14 13
21 19 17 14 16 9 9 24 19 12 8 5 4 3 8 5 4 5 3 4 2 3 2 2 2 4 3 2 6 11 11 12 13 18 6 16 16 18 18 17 17 16 15 15
22 21 18 15 9 5 10 14 11 8 5 4 3 7 4 6 5 4 3 1 2 1 1 1 2 3 3 1 8 12 13 14 15 13 10 18 20 19 18 16 16 15 16 15
24 15 6 5 4 21 15 5 3 2 3 4 3 7 4 10 7 2 4 0 2 3 2 2 2 2 3 2 5 10 13 9 17 17 18 20 20 21 20 18 15 14 15 15
12 5 4 16 17 6 2 3 1 2 3 4 5 10 9 4 4 4 1 2 1 2 3 2 2 2 4 5 7 10 12 11 14 13 13 16 18 20 20 18 16 15 16 16
6 12 16 8 3 2 3 3 1 3 3 6 10 12 9 4 2 3 2 2 2 1 3 1 2 3 3 6 9 11 12 13 13 11 13 15 16 18 18 17 17 17 17 18
23 7 3 2 1 2 4 6 3 4 6 7 11 6 5 4 3 4 2 3 2 2 2 2 1 6 4 6 10 12 11 12 13 12 14 14 16 16 17 17 16 19 19 17
4 3 4 2 3 3 1 1 4 4 10 18 16 7 4 4 3 1 3 2 3 3 3 2 4 4 4 7 10 13 14 15 15 14 15 17 18 19 20 19 15 16 17 17
3 2 3 2 2 5 4 5 7 8 17 16 10 5 5 2 3 2 3 3 4 4 2 3 4 1 4 9 11 17 19 18 17 15 14 16 16 16 17 16 16 17 17 16
3 4 3 4 5 4 4 8 8 12 15 8 4 3 3 2 4 3 3 3 3 3 3 4 2 2 5 10 14 17 18 17 16 14 14 14 15 15 15 16 18 18 17 16
3 4 4 3 7 7 4 7 9 13 8 2 2 3 2 3 3 4 1 1 3 5 4 2 2 1 5 9 12 14 16 17 16 14 15 15 15 17 16 18 18 18 16 15

GFSNW_850_spd_132.txt.gz
Wind_Speed
40 40 41 34 32 28 57 38 6 45 61 15 12 12 18 21 19 27 18 16 12 13 17 15 8 12 6 9 13 11 4 3 4 11 8 8 8 9 10 5 7 7 5 2
32 37 33 20 30 48 53 22 13 47 58 12 10 11 14 15 21 17 13 11 8 4 3 5 3 6 5 13 9 4 6 4 3 6 6 6 5 5 5 5 3 9 5 3
7 6 20 24 44 45 41 17 6 14 28 13 17 16 16 14 26 18 11 7 6 5 3 2 6 8 6 9 7 4 2 5 10 3 3 2 2 4 8 11 6 5 1 7
6 16 22 20 18 19 21 6 6 12 11 7 16 20 15 23 19 17 24 9 10 10 4 5 5 11 10 8 10 6 3 5 1 4 3 6 3 2 5 5 5 5 8 7
12 16 12 10 10 16 11 3 10 20 26 20 15 18 21 23 21 18 23 10 18 16 8 9 9 13 12 7 11 9 6 3 3 3 5 2 3 5 7 1 4 7 11 7
14 16 9 8 7 7 4 6 17 22 20 18 11 11 18 17 13 13 18 7 12 17 9 15 19 17 15 5 13 11 6 6 6 5 9 9 7 6 2 4 4 7 8 8
19 17 5 6 7 6 11 9 17 10 12 13 13 18 18 19 14 8 11 13 9 8 16 17 14 7 8 8 10 13 9 11 7 1 8 6 2 7 6 7 5 10 15 13
19 18 18 8 9 12 14 19 8 5 6 12 12 17 14 19 12 8 17 14 12 17 14 6 8 4 5 8 10 9 7 5 3 3 9 4 4 10 9 9 6 10 12 13
19 17 13 8 11 17 13 5 9 9 7 9 26 20 26 11 14 10 10 12 13 13 4 6 6 6 8 8 7 10 7 8 4 6 5 3 6 12 13 6 6 13 15 16
17 13 8 6 11 17 6 3 7 10 6 25 29 17 18 22 11 6 10 8 5 7 4 6 5 6 11 7 10 8 9 8 10 7 6 4 5 10 5 5 3 16 16 17
12 8 9 9 14 8 4 2 7 12 9 17 26 24 27 20 14 7 16 7 5 3 5 5 4 1 4 3 1 10 9 6 6 6 7 4 10 7 5 4 12 11 13 13
15 9 6 6 5 9 5 7 11 12 17 19 22 21 13 14 3 16 23 4 14 8 4 4 4 2 0 6 3 2 1 3 2 4 2 3 5 3 9 9 12 11 14 15
18 10 4 5 1 9 7 8 15 20 24 18 14 12 12 10 14 15 9 4 9 4 1 1 2 2 2 3 2 5 4 2 4 6 4 7 6 8 9 12 13 13 14 16
18 9 5 1 4 15 19 21 9 20 11 6 9 10 12 8 9 10 7 11 7 6 2 2 2 2 1 2 2 2 3 8 7 4 7 9 8 10 13 14 14 14 14 14
12 11 7 6 13 17 18 16 10 10 5 10 17 16 12 11 11 10 8 11 10 9 3 1 2 3 2 2 3 2 7 6 4 2 18 8 19 17 17 18 16 14 15 15
15 16 8 11 16 19 13 10 14 19 29 16 3 11 11 11 12 13 11 9 6 5 4 2 4 3 3 2 3 5 8 8 4 4 17 12 19 19 18 18 17 16 16 16
20 15 14 15 14 10 5 5 12 17 14 8 6 5 5 9 10 11 9 7 4 3 4 1 4 3 3 1 1 6 7 7 7 17 18 18 20 20 17 17 17 16 15 15
18 15 13 11 9 9 10 24 16 10 6 6 3 4 8 4 9 5 2 5 4 5 4 2 2 4 2 1 8 9 9 12 13 12 9 17 18 18 17 16 17 18 17 17
19 17 16 15 10 5 9 12 8 9 4 3 3 6 4 4 6 6 3 1 2 0 1 2 1 3 2 1 6 10 11 10 13 12 13 17 17 19 19 18 17 16 17 17
21 15 4 6 6 19 13 4 2 3 3 3 4 8 4 10 6 3 3 3 3 3 2 4 1 1 5 2 2 9 11 8 14 13 15 19 19 20 19 18 17 16 17 16
10 3 5 18 16 5 2 2 1 3 2 4 6 11 8 6 3 2 4 2 1 2 3 2 3 2 3 4 4 8 10 8 12 10 12 14 16 18 18 17 16 16 17 18
5 11 19 10 2 2 2 2 0 3 4 6 8 13 8 3 3 3 1 2 2 3 3 1 1 3 6 5 7 8 9 9 10 10 12 14 15 16 17 16 16 16 17 18
18 8 3 1 2 2 3 3 2 4 4 7 10 6 5 3 4 3 2 2 2 3 1 2 3 9 6 6 8 10 8 9 10 8 11 12 14 15 17 17 16 18 20 19
4 3 3 2 2 2 3 3 4 4 8 15 15 7 4 3 3 1 3 2 1 3 3 3 6 8 5 5 9 11 11 11 11 11 13 14 16 17 17 19 19 19 18 18
4 3 2 1 4 7 5 5 4 6 14 16 9 5 5 2 3 1 3 2 3 3 1 3 8 3 7 7 9 14 16 15 15 15 15 16 17 18 18 18 17 16 16 16
3 4 2 4 5 3 3 7 6 7 15 11 2 3 2 2 4 3 3 4 3 2 4 10 4 4 8 10 12 13 15 13 15 13 13 13 14 15 16 16 17 16 16 16
3 3 6 5 10 7 4 6 7 7 6 1 2 2 2 3 2 3 1 2 4 10 9 2 2 2 5 7 9 12 15 15 15 14 14 13 14 15 14 16 16 15 15 15

GFSNW_850_spd_135.txt.gz
Wind_Speed
26 26 30 37 35 26 21 31 9 21 46 15 15 16 27 24 13 33 17 9 12 6 9 6 7 7 2 6 10 6 2 4 2 6 8 9 10 5 3 4 4 1 3 3
17 24 27 39 31 30 36 21 9 45 57 15 14 13 23 25 16 18 12 13 11 2 7 4 5 1 6 8 7 5 5 2 1 4 7 5 2 6 2 4 3 5 1 3
17 20 23 25 6 21 39 19 4 12 42 37 25 25 17 26 30 17 23 5 7 4 3 5 5 4 4 9 7 8 7 1 5 2 1 3 3 5 6 3 1 2 4 7
17 18 20 11 8 24 27 7 7 15 11 18 6 21 16 18 14 30 19 3 6 6 4 3 4 3 2 2 11 5 5 3 2 1 6 5 1 3 2 2 3 5 5 7
18 16 15 10 5 16 2 4 3 18 18 16 6 18 17 21 22 18 13 6 9 6 7 7 6 6 6 5 2 5 4 2 3 2 5 5 3 5 5 5 3 4 8 3
19 19 13 9 9 12 3 1 12 11 17 10 7 10 18 18 21 13 22 14 12 13 12 18 14 24 20 7 9 7 6 4 3 4 5 4 6 9 9 4 2 7 7 6
19 19 15 8 10 5 3 7 8 6 5 13 14 15 13 16 15 5 15 11 12 12 15 15 13 15 13 6 12 11 6 6 4 1 5 4 4 2 7 5 5 6 10 14
20 22 20 14 7 8 3 6 3 1 3 14 14 19 17 19 12 2 6 4 6 23 23 6 5 2 2 4 7 7 5 5 1 3 5 0 2 6 6 7 6 9 12 12
14 21 15 13 12 8 8 14 6 4 3 12 19 14 21 12 5 5 6 9 20 20 3 4 5 4 5 6 5 14 12 6 4 3 1 4 2 6 11 12 4 19 19 18
13 19 16 12 14 18 14 7 13 3 4 12 23 7 14 14 7 4 6 5 5 3 2 3 3 4 8 7 7 6 4 2 5 2 3 2 3 9 8 4 4 21 25 24
15 13 11 5 13 17 11 10 13 9 5 19 18 18 18 19 14 5 14 5 3 2 2 3 3 2 1 4 1 6 6 5 3 3 2 4 8 6 3 2 9 18 25 26
11 8 10 14 13 1 3 5 11 11 8 14 19 20 7 23 18 12 23 9 6 9 2 1 1 2 3 3 3 4 1 3 5 2 1 3 8 5 9 11 10 14 19 23
12 8 19 12 1 4 4 12 18 26 25 21 19 15 17 15 20 23 12 6 9 6 3 1 1 3 3 2 1 4 3 7 4 4 2 3 3 7 11 14 14 13 14 18
9 12 14 5 5 7 7 21 16 7 9 5 8 10 13 12 16 15 17 15 10 8 3 3 2 3 4 1 2 4 1 5 5 3 5 7 4 10 16 20 19 17 14 15
18 12 3 7 10 18 19 14 12 10 9 6 14 18 14 11 11 12 11 10 11 6 3 3 1 2 4 2 3 2 4 5 4 5 16 8 15 17 18 22 20 18 22 21
21 10 7 12 12 12 17 14 14 20 34 10 3 9 11 13 14 13 12 14 8 3 3 2 4 3 3 2 2 4 17 12 6 5 13 7 23 20 19 20 20 20 20 19
22 9 11 14 11 6 5 7 16 16 16 9 3 3 6 10 11 12 11 8 7 4 3 4 4 2 3 2 2 10 13 10 10 15 24 19 24 18 18 17 17 15 16 18
16 14 15 13 11 15 20 18 16 11 7 7 3 2 3 4 5 3 4 3 6 8 3 2 4 2 3 3 12 17 15 17 18 18 6 16 19 20 20 20 20 20 20 20
17 18 18 17 13 5 11 12 12 10 6 5 3 4 3 5 5 4 4 3 3 3 1 1 2 1 1 2 18 20 19 13 12 12 16 21 23 23 22 22 21 22 21 20
19 17 8 7 7 18 11 4 2 4 5 5 3 4 2 10 5 2 2 2 3 2 2 2 2 0 7 5 12 18 16 12 18 19 21 20 22 22 23 21 21 21 21 21
12 3 6 19 12 5 3 2 2 2 3 4 3 15 4 5 3 2 1 2 0 3 3 3 1 1 1 5 15 16 14 11 14 12 15 20 20 23 22 19 20 18 18 19
5 14 19 11 4 4 4 2 3 2 3 3 7 9 5 5 4 4 2 2 2 2 1 3 1 3 8 9 16 14 12 10 13 12 13 16 18 20 20 19 18 18 16 18
17 8 4 3 4 4 3 3 2 2 2 5 11 3 4 4 4 4 3 3 0 1 3 3 2 9 10 11 14 13 11 11 10 10 13 15 17 16 16 18 18 18 16 16
5 4 3 2 1 1 3 3 2 4 11 21 16 5 3 3 4 1 4 1 2 2 2 3 2 11 9 11 13 15 13 13 11 12 14 15 16 15 15 17 17 16 16 15
5 3 2 2 5 7 3 4 5 8 17 16 9 5 4 2 3 1 3 3 2 3 3 2 9 10 9 11 13 13 12 12 11 10 12 13 14 15 16 16 15 13 13 14
4 5 2 6 6 2 3 4 7 7 17 9 2 2 3 1 4 2 3 4 3 2 2 11 9 10 10 10 11 14 13 11 11 11 9 10 12 13 14 14 15 14 13 13
3 3 8 5 9 5 3 3 3 8 7 1 2 3 2 3 2 1 3 2 2 14 12 8 6 8 9 8 9 13 14 13 12 12 11 11 12 13 13 14 14 15 14 13